     2.11           OBSERVATION DATA    G (GPS)             RINEX VERSION / TYPE
teqc 2010Oct21 OPUS Account 20111025 20:03:32UTC            PGM / RUN BY / DATE
Z 1521                                                      MARKER NAME
1156                                                        MARKER NUMBER
CSMIDDLETON NGS                                             OBSERVER / AGENCY
0220390632 TRIMBLE R7 2.28                                  REC # / TYPE / VERS
60183425 TRM41249.00 NONE                                   ANT # / TYPE
  -739236.2801 -5488110.1501  3154247.5136                  APPROX POSITION XYZ
        2.0010        0.0000        0.0000                  ANTENNA: DELTA H/E/N
     1     1                                                WAVELENGTH FACT L1/2
     5    L1    L2    C1    P1    P2                        # / TYPES OF OBSERV
    15                                                      LEAP SECONDS
  2011     7    28    17     2   30.0000000     GPS         TIME OF FIRST OBS
                                                            END OF HEADER
 11  7 28 17  2 30.0000000  0  9G03G06G07G10G13G16G19G20G23
      6869.19958        71.00056  20907688.7664                   20907687.3874
     64415.49257     37242.68455  22152357.3524                   22152356.2344
    -75448.29357    -53998.22754  23082297.7274                   23082296.7424
    -12568.79756    -13078.37153  24010260.2974                   24010259.4264
    -55733.75458    -40289.94956  20534413.4064                   20534411.1604
    176379.03158    109451.26255  22039880.3984                   22039878.2544
   -103877.02057    -71413.81655  22087784.2504                   22087781.6254
    187200.54756    119568.57054  23825877.5784                   23825877.3054
     48141.79758     26668.12557  20068079.6804                   20068075.6374
 11  7 28 17  3  0.0000000  0  9G03G06G07G10G13G16G19G20G23
     11090.59848      3360.40246  20908492.1564                   20908491.2194
    100505.98847     65365.13345  22159225.0004                   22159224.1644
   -118620.50047    -87638.86745  23074082.0164                   23074081.4804
    -19791.71547    -18706.66043  24008886.1414                   24008884.4144
    -86594.55948    -64337.34046  20528540.6564                   20528538.4064
    274575.98847    185968.34045  22058566.7814                   22058564.6684
   -161604.48847   -116396.23445  22076799.0394                   22076796.2114
    291971.14846    201207.85243  23845815.0314                   23845815.1994
     75302.07048     47831.94147  20073248.3284                   20073244.3954
 11  7 28 17  3 30.0000000  0  9G03G06G07G10G13G16G19G20G23
     16110.31348      7271.85246  20909447.1094                   20909446.3164
    137325.13747     94055.36745  22166231.7274                   22166230.8874
   -161596.96947   -121126.98845  23065904.1254                   23065903.6254
    -26326.06647    -23798.37943  24007643.1564                   24007641.4344
   -116837.99648    -87903.66046  20522785.5234                   20522783.4924
    373145.37947    262775.62945  22077323.7814                   22077321.6604
   -218793.76647   -160959.28545  22065916.6094                   22065912.9104
    396924.28946    282989.38343  23865786.9304                   23865787.3874
    103195.21548     69566.82847  20078556.0634                   20078551.9614
 11  7 28 17  4  0.0000000  0  9G03G06G07G10G13G16G19G20G23
     21945.83248     11819.00846  20910557.5554                   20910557.1134
    174889.35547    123326.17645  22173379.5864                   22173379.3914
   -204361.23447   -154449.74245  23057766.6724                   23057766.1954
    -32155.23846    -28340.60543  24006532.8594                   24006532.8754
   -146445.21548   -110974.22346  20517151.6094                   20517149.8284
    472101.34448    339884.12945  22096154.7344                   22096152.5824
   -275425.18047   -205087.65645  22055140.0634                   22055136.6994
    502073.97346    364924.06644  23885796.0554                   23885795.9734
    131838.21948     91886.02747  20084006.8284                   20084002.6374
 11  7 28 17  4 30.0000000  0  9G03G06G07G10G13G16G19G20G23
     28605.16048     17008.08246  20911824.8054                   20911823.8324
    213205.93447    153183.21945  22180671.3754                   22180671.0314
   -246905.40647   -187601.00045  23049670.3834                   23049669.5784
    -37271.30546    -32327.12543  24005559.5474                   24005560.0204
   -175406.05148   -133541.10546  20511640.8054                   20511638.2034
    571449.09047    417297.92245  22115059.5234                   22115057.5704
   -331487.82047   -248772.82045  22044471.9304                   22044468.3164
    607425.06646    447015.68843  23905844.9774                   23905844.0434
    161239.47348    114796.06647  20089601.7814                   20089597.6214
 11  7 28 17  5  0.0000000  0  9G03G06G07G10G13G16G19G20G23
     36090.67648     22840.93046  20913249.6094                   20913248.6724
    252275.52747    183627.04345  22188106.3834                   22188105.5394
   -289228.15647   -220579.72745  23041616.7344                   23041615.8484
    -41672.71147    -35756.76243  24004722.2424                   24004722.7854
   -203717.21148   -155601.74246  20506253.1254                   20506250.7734
    671187.19947    495015.91045  22134039.4694                   22134037.2504
   -386977.60947   -292011.59845  22033912.2974                   22033909.3914
    712975.59046    529262.69143  23925929.7894                   23925930.0274
    191400.95348    138298.50047  20095341.2034                   20095337.2154
 11  7 28 17  5 30.0000000  0  9G03G06G07G10G13G16G19G20G23
     44388.92648     29307.09846  20914828.5944                   20914827.8444
    292083.52047    214646.23445  22195681.3134                   22195681.4844
   -331343.98847   -253397.22745  23033602.1884                   23033600.8554
    -45373.99246    -38640.86343  24004017.7274                   24004018.1954
   -231390.58648   -177165.41446  20500987.2274                   20500984.4884
    771299.44947    573025.42645  22153089.8914                   22153088.0984
   -441905.52047   -334812.55146  22023459.5634                   22023456.7704
    818708.70346    611652.00443  23946049.5784                   23946050.4064
    222308.60948    162382.35947  20101222.9304                   20101219.0744
 11  7 28 17  6  0.0000000  0  9G03G06G07G10G13G16G19G20G23
     53490.66848     36399.34846  20916560.3054                   20916559.6414
    332619.68447    246232.83245  22203395.1724                   22203394.8984
   -373262.56247   -286060.99645  23025624.7034                   23025624.3634
    -48384.60946    -40986.79743  24003444.9454                   24003445.5744
   -258433.62548   -198237.91046  20495841.0234                   20495838.7384
    871772.83247    651316.34845  22172209.6094                   22172207.2854
   -496278.30148   -377180.91445  22013112.8914                   22013109.9694
    924612.35246    694174.18043  23966203.3054                   23966203.5084
    253952.87948    187040.21547  20107244.3444                   20107240.8714
 11  7 28 17  6 30.0000000  0  9G03G06G07G10G13G16G19G20G23
     63381.32048     44106.35246  20918442.8284                   20918441.3444
    373868.19947    278374.50445  22211244.7974                   22211244.3754
   -414998.98047   -318582.85245  23017682.5004                   23017681.7384
    -50719.81846    -42806.42043  24002999.7194                   24003001.0824
   -284859.07448   -218829.16446  20490812.1884                   20490809.8674
    972589.82847    729875.02745  22191394.5704                   22191392.2074
   -550107.96947   -419126.10245  22002869.2734                   22002866.2624
   1030668.08946    776814.88643  23986384.0944                   23986385.1174
    286319.17248    212260.68847  20113403.7814                   20113399.8954
 11  7 28 17  7  0.0000000  0  9G03G06G07G10G13G16G19G20G23
     74047.61747     52417.73045  20920471.9224                   20920471.0354
    415814.69547    311060.07445  22219226.4924                   22219226.3444
   -456567.07047   -350973.53145  23009773.1334                   23009771.1884
    -52393.44546    -44110.49244  24002681.5234                   24002682.8054
   -310678.89148   -238948.50046  20485898.8134                   20485896.7934
   1073734.30547    808688.86345  22210641.5314                   22210639.7154
   -603405.74647   -460656.80945  21992726.9224                   21992723.9104
   1136859.10246    859560.93843  24006592.6334                   24006593.1414
    319394.26248    238033.45747  20119697.5944                   20119693.6524
 11  7 28 17  7 30.0000000  0  9G03G06G07G10G13G16G19G20G23
     85483.87147     61329.09046  20922648.0004                   20922647.0594
    458452.55547    344284.36345  22227340.2034                   22227339.9804
   -497973.27747   -383238.09845  23001893.5554                   23001892.5314
    -53411.85246    -44904.01243  24002488.0634                   24002489.4064
   -335897.08248   -258599.03946  20481100.0314                   20481097.7774
   1175197.55947    887751.12945  22229949.3524                   22229947.3674
   -656174.54747   -501775.32445  21982685.1884                   21982682.5234
   1243176.76246    942405.77343  24026824.5164                   24026824.5784
    353171.98848    264353.74647  20126125.3284                   20126121.2304
 11  7 28 17  8  0.0000000  0  9G03G06G07G10G13G16G19G20G23
     97675.25047     70828.87146  20924968.5864                   20924967.7234
    501764.72347    378034.07445  22235582.9614                   22235582.5664
   -539233.16047   -415388.63345  22994041.6644                   22994041.1884
    -53791.00846    -45199.42243  24002415.7274                   24002417.1414
   -360527.46948   -277791.55546  20476412.8674                   20476410.8674
   1276961.03947    967047.32045  22249313.9144                   22249311.8874
   -708427.61347   -542491.97746  21972742.0704                   21972739.3054
   1349601.98046   1025334.37543  24047076.1724                   24047076.3054
    387636.54748    291209.21947  20132683.7194                   20132679.5634
 11  7 28 17  8 30.0000000  0  9G03G06G07G10G13G16G19G20G23
    110617.12148     80913.44946  20927431.4304                   20927430.2544
    545745.82447    412305.07045  22243952.2734                   22243951.3444
   -580351.81247   -447429.11345  22986217.3134                   22986216.2734
    -53535.98846    -45000.70343  24002463.5784                   24002465.3324
   -384572.50848   -296527.94146  20471837.4064                   20471835.5944
   1379017.18847   1046571.55545  22268735.1254                   22268732.7974
   -760166.47748   -582807.95346  21962896.9144                   21962893.9344
   1456127.25046   1108340.92643  24067348.0704                   24067347.4454
    422783.75448    318596.62547  20139371.9924                   20139367.5634
 11  7 28 17  9  0.0000000  0  9G03G06G07G10G13G16G19G20G23
    124297.10247     91573.17245  20930034.2424                   20930033.3524
    590382.46947    447086.85945  22252446.3984                   22252445.4144
   -621341.89147   -479369.40645  22978417.3594                   22978416.5354
    -52659.94946    -44318.05144  24002630.4844                   24002631.7384
   -408043.09848   -314816.71546  20467371.2114                   20467369.0124
   1481350.76247   1126311.97345  22288208.4694                   22288206.9184
   -811401.35548   -622731.22346  21953147.1804                   21953144.3954
   1562736.86746   1191413.22743  24087634.4224                   24087635.7934
    458600.92248    346506.09447  20146187.6094                   20146183.9494
 11  7 28 17  9 30.0000000  0  9G03G06G07G10G13G16G19G20G23
    138712.82848    102806.18846  20932777.2274                   20932776.7424
    635671.03547    482376.64145  22261064.2894                   22261063.4774
   -662206.05947   -511211.59045  22970640.8364                   22970640.3594
    -51165.66446    -43153.66843  24002915.4924                   24002916.9844
   -430939.70348   -332658.23846  20463014.0314                   20463011.8914
   1583956.55147   1206264.48845  22307733.7734                   22307731.7194
   -862132.23047   -662261.74646  21943493.7194                   21943490.3984
   1669425.28146   1274546.89143  24107937.0084                   24107937.0274
    495085.26248    374935.42247  20153130.5864                   20153126.8594
 11  7 28 17 10  0.0000000  0  9G03G06G07G10G13G16G19G20G23
    153858.86747    114608.29346  20935659.3204                   20935658.3404
    681604.86347    518169.22745  22269805.2894                   22269804.4024
   -702950.43047   -542960.40645  22962887.2274                   22962886.3834
    -49059.39846    -41512.39143  24003315.4774                   24003317.0634
   -453266.15248   -350055.47346  20458765.3204                   20458763.2774
   1686826.23847   1286422.65245  22327309.2814                   22327306.8324
   -912361.90647   -701401.72346  21933934.9144                   21933931.8834
   1776183.84046   1357735.23843  24128252.7034                   24128252.5204
    532231.34048    403880.39847  20160199.1884                   20160195.2664
 11  7 28 17 10 30.0000000  0  9G03G06G07G10G13G16G19G20G23
    169726.26647    126972.51246  20938679.0554                   20938678.0664
    728174.32047    554457.10245  22278666.7034                   22278665.8874
   -743583.87547   -574622.80145  22955155.2424                   22955154.0314
    -46350.05146    -39401.18743  24003831.6884                   24003832.5314
   -475029.46548   -367013.90246  20454624.0784                   20454621.9614
   1789948.09047   1366777.30945  22346932.6724                   22346930.1884
   -962096.22347   -740155.71146  21924470.4844                   21924467.2584
   1883000.72746   1440969.04743  24148579.6484                   24148580.1454
    570030.12948    433333.97747  20167392.1724                   20167388.1294
 11  7 28 17 11  0.0000000  0  9G03G06G07G10G13G16G19G20G23
    186313.12147    139897.32845  20941835.3594                   20941834.4414
    775375.55147    591237.27045  22287648.5554                   22287647.7274
   -784109.35547   -606201.06245  22947443.1334                   22947442.4264
    -43040.94146    -36822.65643  24004461.0164                   24004461.9494
   -496230.48848   -383534.18046  20450589.7974                   20450587.2934
   1893316.78947   1447324.31645  22366602.9534                   22366600.8954
  -1011335.28947   -778523.79346  21915100.8524                   21915097.6094
   1989870.34446   1524243.88743  24168915.8054                   24168916.5864
    608478.91848    463294.03947  20174708.6254                   20174704.7814
 11  7 28 17 11 30.0000000  0  9G03G06G07G10G13G16G19G20G23
    203612.78148    153377.59845  20945127.1564                   20945126.1214
    823200.98847    628503.83645  22296749.6804                   22296748.8444
   -824533.53547   -637700.39145  22939751.1094                   22939749.8364
    -39138.93746    -33782.11743  24005204.0004                   24005204.5824
   -516873.73848   -399619.84046  20446661.2114                   20446659.1644
   1996923.12947   1528056.48045  22386318.7734                   22386316.4384
  -1060083.37147   -816509.28946  21905824.3594                   21905821.3054
   2096783.05946   1607552.31643  24189261.3674                   24189261.4184
    647570.83648    493755.25047  20182147.7664                   20182143.6604
 11  7 28 17 12  0.0000000  0  9G03G06G07G10G13G16G19G20G23
  -1353797.42648  -1060188.79746  20648762.1094                   20648760.9574
   -703771.76247   -561345.07045  22006176.3594                   22006175.8284
  -2440280.82447  -1896724.22745  22632284.4224                   22632283.1024
  -1610067.81646  -1257882.53143  23706265.9144                   23706266.5664
  -2112380.99648  -1642872.25446  20143046.3674                   20143044.1884
    525344.94947    381372.16045  22106286.3754                   22106285.0164
  -2683762.18047  -2081713.52346  21596848.2974                   21596845.4774
    628316.46946    463292.46143  23909821.1484                   23909821.8914
   -888115.51248   -702883.48447  19889916.4384                   19889912.1684
 11  7 28 17 12 30.0000000  0  9G03G06G07G10G13G16G19G20G23
  -1335081.03947  -1045604.59445  20652323.4534                   20652322.5394
   -654709.91847   -523115.06645  22015512.2894                   22015511.8674
  -2480511.60547  -1928072.84845  22624628.5554                   22624627.3794
  -1604990.97346  -1253926.51643  23707231.5634                   23707232.2274
  -2131912.02748  -1658091.23846  20139330.0164                   20139327.5634
    629409.63347    462461.46545  22126089.4454                   22126087.6604
  -2731528.85247  -2118934.26646  21587758.9304                   21587756.1254
    735297.47746    546654.13743  23930178.8984                   23930179.9304
   -847745.96548   -671426.72347  19897598.1884                   19897594.4804
 11  7 28 17 13  0.0000000  0  9G03G06G07G10G13G16G19G20G23
  -1315655.60947  -1030467.89145  20656019.8914                   20656018.4494
   -605030.91847   -484404.16845  22024966.6254                   22024965.0864
  -2520644.90647  -1959345.53145  22616991.7664                   22616990.5084
  -1599326.70346  -1249512.80143  23708310.0084                   23708309.4064
  -2150883.63748  -1672874.30946  20135719.9844                   20135717.6524
    733700.40647    543726.96145  22145935.4844                   22145933.1454
  -2778800.23447  -2155769.07846  21578763.5784                   21578760.2154
    842308.72346    630039.33643  23950543.1334                   23950543.4304
   -806737.35948   -639471.98447  19905401.3984                   19905397.7584
 11  7 28 17 13 30.0000000  0  9G03G06G07G10G13G16G19G20G23
  -1295533.58647  -1014788.38745  20659849.0864                   20659847.6564
   -554748.08247   -445222.73845  22034534.6484                   22034533.7814
  -2560693.89547  -1990552.50445  22609370.7114                   22609368.7504
  -1593087.98046  -1244651.46143  23709497.3984                   23709497.0274
  -2169306.53548  -1687229.81646  20132213.7584                   20132211.9144
    838202.03547    625156.77045  22165821.5554                   22165819.0084
  -2825586.13747  -2192225.60546  21569860.5944                   21569857.1294
    949335.03546    713436.27743  23970909.3914                   23970910.4144
   -765102.13748   -607028.97747  19913324.8134                   19913320.8364
 11  7 28 17 14  0.0000000  0  9G03G06G07G10G13G16G19G20G23
  -1274716.42648   -998567.21945  20663810.7344                   20663809.6764
   -503864.09847   -405572.88745  22044218.0704                   22044216.4574
  -2600659.46147  -2021694.48045  22601765.1174                   22601763.9414
  -1586277.02346  -1239344.18443  23710793.3984                   23710793.1994
  -2187180.12148  -1701157.28146  20128812.4384                   20128810.2854
    942910.48047    706747.73445  22185746.9064                   22185745.0124
  -2871885.24647  -2228302.79746  21561050.0634                   21561046.8444
   1056372.07846    796841.59443  23991277.4844                   23991278.6564
   -722841.86348   -574098.91847  19921366.7584                   19921362.9454
 11  7 28 17 14 30.0000000  0  9G03G06G07G10G13G16G19G20G23
  -1253215.21947   -981813.03145  20667902.4064                   20667900.9534
   -452391.36747   -365464.28545  22054012.5554                   22054011.7304
  -2640553.37947  -2052780.62145  22594173.4534                   22594172.0984
  -1578905.46946  -1233600.10943  23712195.4774                   23712196.0514
  -2204513.99248  -1714664.18746  20125513.6954                   20125511.9964
   1047811.58247    788488.81345  22205709.2274                   22205707.2854
  -2917706.17647  -2264007.38746  21552330.4304                   21552327.3284
   1163405.57846    880244.12143  24011645.7894                   24011647.0704
   -679968.21548   -540690.90247  19929525.4224                   19929521.3714
 11  7 28 17 15  0.0000000  0  9G03G06G07G10G13G16G19G20G23
  -1231032.82048   -964528.03945  20672123.4534                   20672121.7734
   -400333.69947   -324899.86745  22063918.9454                   22063917.9304
  -2680378.46947  -2083813.12145  22586595.0704                   22586593.9534
  -1570976.67646  -1227421.79743  23713704.1174                   23713704.5944
  -2221308.91448  -1727751.13746  20122318.1174                   20122315.8054
   1152900.37947    870376.13745  22225706.9224                   22225704.8484
  -2963048.98047  -2299339.41846  21543701.9384                   21543698.7384
   1270429.94546    963639.58643  24032012.5704                   24032012.8554
   -636483.77348   -506806.94547  19937800.2344                   19937796.1604
 11  7 28 17 15 30.0000000  0  9G03G06G07G10G13G16G19G20G23
  -1208170.56648   -946713.29346  20676474.1644                   20676472.4144
   -347693.31247   -283881.39145  22073936.1644                   22073935.0514
  -2720135.57847  -2114792.66445  22579029.9384                   22579028.1564
  -1562492.31246  -1220810.58643  23715319.3204                   23715319.1724
  -2237564.00048  -1740417.44147  20119224.6334                   20119222.7034
   1258173.38747    952407.00845  22245740.2034                   22245738.1134
  -3007912.05947  -2334297.63746  21535164.7504                   21535161.2464
   1377441.43046   1047024.98843  24052375.8754                   24052376.5824
   -592390.13348   -472448.28547  19946190.9534                   19946186.9734
 11  7 28 17 16  0.0000000  0  9G03G06G07G10G13G16G19G20G23
  -1184631.97348   -928371.52746  20680953.3834                   20680951.8984
   -294475.34847   -242412.84845  22084063.0004                   22084062.5354
  -2759828.53947  -2145722.20745  22571476.3594                   22571474.4184
  -1553456.78946  -1213769.93443  23717038.7424                   23717039.3054
  -2253281.53548  -1752664.86346  20116233.9774                   20116231.8014
   1363624.03947   1034576.28545  22265806.3204                   22265803.9454
  -3052296.79347  -2368883.10946  21526718.9064                   21526714.9654
   1484433.32446   1130395.14543  24072736.1724                   24072736.8404
   -547691.32448   -437618.06647  19954696.8834                   19954692.8754
 11  7 28 17 16 30.0000000  0  9G03G06G07G10G13G16G19G20G23
  -1160419.26248   -909504.48846  20685560.9774                   20685559.2814
   -240682.57847   -200496.41445  22094299.8524                   22094298.9804
  -2799459.37947  -2176603.36345  22563935.0314                   22563933.6914
  -1543872.53547  -1206301.67243  23718862.1954                   23718862.6254
  -2268461.51648  -1764493.41846  20113345.5944                   20113342.8714
   1469248.07447   1116880.68045  22285905.8444                   22285903.7384
  -3096202.43447  -2403095.28146  21518363.4844                   21518360.1994
   1591400.76646   1213746.24243  24093090.9924                   24093092.5944
   -502389.28948   -402317.79747  19963317.6954                   19963314.0354
 11  7 28 17 17  0.0000000  0  9G03G06G07G10G13G16G19G20G23
  -1135535.51648   -890114.54746  20690296.7584                   20690295.2234
   -186319.48447   -158135.57045  22104644.2424                   22104643.1684
  -2839031.16847  -2207438.49645  22556404.4844                   22556403.2664
  -1533743.23846  -1198408.70743  23720790.1094                   23720790.1024
  -2283105.10248  -1775904.00046  20110558.7894                   20110556.5434
   1575039.51647   1199315.52345  22306037.4064                   22306035.2074
  -3139629.54147  -2436934.55746  21510099.2194                   21510095.9184
   1698337.83646   1297073.66843  24113441.0634                   24113441.2274
   -456487.66848   -366550.32847  19972052.6644                   19972048.5164
 11  7 28 17 17 30.0000000  0  9G03G06G07G10G13G16G19G20G23
  -1109987.32048   -870206.87146  20695158.1024                   20695156.6174
   -131393.76647   -115336.31645  22115096.4304                   22115095.3594
  -2878550.29747  -2238232.58645  22548885.1254                   22548883.0044
  -1523076.25046  -1190096.74243  23722819.6414                   23722820.2074
  -2297217.15248  -1786900.39547  20107873.2974                   20107871.0354
   1680989.64147   1281874.00845  22326198.5704                   22326196.6484
  -3182581.89547  -2470403.89546  21501925.5554                   21501923.1024
   1805235.40246   1380370.32443  24133782.9774                   24133783.5354
   -409993.18748   -330320.89147  19980900.1484                   19980896.2734
 11  7 28 17 18  0.0000000  0  9G03G06G07G10G13G16G19G20G23
  -1083774.30548   -849781.16446  20700146.1954                   20700145.2154
    -75905.96947    -72099.09045  22125655.6484                   22125654.6684
  -2918015.87547  -2268984.94145  22541374.2504                   22541372.8914
  -1511871.54346  -1181365.80144  23724952.2504                   23724952.5394
  -2310795.23848  -1797480.71546  20105289.6094                   20105286.8524
   1787096.63747   1364554.71945  22346390.9924                   22346388.8674
  -3225056.04347  -2503500.61346  21493843.5864                   21493840.7074
   1912091.20346   1463634.40243  24154117.0234                   24154117.6054
   -362905.28148   -293629.03147  19989860.8914                   19989856.2974
 11  7 28 17 18 30.0000000  0  9G03G06G07G10G13G16G19G20G23
  -1056904.55548   -828843.69946  20705259.6884                   20705258.1094
    -19865.33247    -28431.08645  22136320.0234                   22136318.7814
  -2957436.10247  -2299701.95745  22533872.5084                   22533871.6254
  -1500137.80146  -1172222.60944  23727183.9614                   23727185.3634
  -2323845.34448  -1807649.63747  20102806.3914                   20102803.9774
   1893350.12147   1447349.59445  22366610.2894                   22366607.7894
  -3267057.65647  -2536229.12546  21485850.9614                   21485847.2274
   2018894.50046   1546857.59443  24174441.8834                   24174441.7504
   -315232.38748   -256481.34047  19998932.3674                   19998928.2424
 11  7 28 17 19  0.0000000  0  9G03G06G07G10G13G16G19G20G23
  -1029378.61748   -807394.92646  20710497.6334                   20710496.1644
     36726.72347     15666.59845  22147088.7584                   22147087.7424
  -2996811.02347  -2330383.67645  22526379.8754                   22526378.4344
  -1487876.10546  -1162668.04343  23729518.6334                   23729518.6564
  -2336366.28148  -1817406.21146  20100423.1414                   20100421.1294
   1999747.16447   1530256.34845  22386856.5554                   22386854.9264
  -3308584.39147  -2568587.59846  21477947.7814                   21477945.3244
   2125642.11746   1630037.34843  24194754.6024                   24194755.4064
   -266975.06648   -218878.25046  20008115.5704                   20008111.6134
 11  7 28 17 19 30.0000000  0  9G03G06G07G10G13G16G19G20G23
  -1001199.81248   -785437.41846  20715859.6954                   20715858.9804
     93865.73847     60190.49245  22157961.9144                   22157961.4804
  -3036143.82847  -2361032.57445  22518895.2274                   22518893.4144
  -1475090.14546  -1152704.95344  23731951.1804                   23731951.5784
  -2348359.24648  -1826751.38346  20098141.1724                   20098139.2304
   2106282.32447   1613270.69945  22407129.9304                   22407128.2304
  -3349636.87947  -2600576.52346  21470136.1724                   21470133.6914
   2232328.46946   1713169.36743  24215056.1484                   24215057.7424
   -218137.03548   -180822.66046  20017409.1954                   20017405.0634
 11  7 28 17 20  0.0000000  0  9G03G06G07G10G13G16G19G20G23
   -972373.74248   -762975.55146  20721345.3284                   20721343.7074
    151545.30947    105135.59445  22168938.0234                   22168937.1134
  -3075439.37547  -2391652.45745  22511416.8834                   22511415.6054
  -1461785.77046  -1142337.90244  23734482.8834                   23734483.0864
  -2359827.45348  -1835687.65647  20095958.9844                   20095956.3874
   2212948.03947   1696386.80145  22427427.4304                   22427426.1254
  -3390217.48447  -2632197.74246  21462413.9924                   21462410.7384
   2338945.71146   1796247.55543  24235344.3524                   24235346.5004
   -168723.53548   -142318.66046  20026812.2584                   20026808.2234
 11  7 28 17 20 30.0000000  0  9G03G06G07G10G13G16G19G20G23
   -942896.52348   -740006.29346  20726954.6804                   20726953.5944
    209767.75047    150503.71145  22180017.3984                   22180016.6294
  -3114693.98047  -2422240.41045  22503946.9224                   22503945.8284
  -1447960.08646  -1131564.66043  23737114.2664                   23737115.3634
  -2370765.75048  -1844211.01247  20093877.2894                   20093874.8874
   2319745.69147   1779605.70745  22447750.5634                   22447748.8444
  -3430319.98447  -2663446.42646  21454782.9774                   21454780.3094
   2445494.71946   1879272.56643  24255620.5474                   24255622.6054
   -118731.33248   -103363.71546  20036325.6414                   20036321.4264
 11  7 28 17 21  0.0000000  0  9G03G06G07G10G13G16G19G20G23
   -912772.36348   -716532.93046  20732687.6334                   20732685.4454
    268528.37147    196291.17645  22191198.8524                   22191198.8754
  -3153910.84047  -2452798.94945  22496484.5234                   22496483.0864
  -1433617.38746  -1120388.52343  23739843.5784                   23739843.8204
  -2381175.90648  -1852322.81646  20091896.5084                   20091894.5474
   2426669.51247   1862922.94945  22468097.3204                   22468095.4104
  -3469945.46147  -2694323.37946  21447242.3984                   21447240.0124
   2551969.23046   1962239.49643  24275882.3204                   24275883.7344
    -68164.20348    -63960.78146  20045947.7424                   20045944.0274
 11  7 28 17 21 30.0000000  0  9G03G06G07G10G13G16G19G20G23
   -882006.78148   -692559.74246  20738541.2664                   20738540.1764
    327820.23047    242492.59845  22202482.1954                   22202481.3404
  -3193095.60547  -2483332.50445  22489027.7504                   22489026.0234
  -1418763.80146  -1108814.28143  23742669.1414                   23742669.9454
  -2391061.55548  -1860025.93046  20090015.1644                   20090013.1844
   2533711.56347   1946332.32045  22488466.7504                   22488464.8284
  -3509096.84047  -2724830.90646  21439792.2274                   21439789.2664
   2658360.89546   2045141.84443  24296128.9064                   24296130.2664
    -17028.39848    -24114.71946  20055678.9384                   20055674.8164
 11  7 28 17 22  0.0000000  0  9G03G06G07G10G13G16G19G20G23
   -850599.11748   -668086.24246  20744518.2894                   20744516.8484
    387643.42247    289108.06345  22213866.2424                   22213865.1094
  -3232246.48447  -2513839.65645  22481577.5234                   22481576.4534
  -1403399.00846  -1096841.71543  23745593.2194                   23745593.9654
  -2400419.46948  -1867317.80946  20088234.4534                   20088232.3794
   2640870.48847   2029832.75445  22508858.4614                   22508857.0594
  -3547770.14147  -2754965.90646  21432432.7274                   21432430.1294
   2764668.82846   2127979.00443  24316357.7424                   24316359.6414
     34677.12948     16175.28146  20065518.0944                   20065514.0084
 11  7 28 17 22 30.0000000  0 10G03G06G07G10G13G16G19G20G23G08
   -818554.36348   -643116.31646  20750615.8444                   20750614.8134
    447991.80547    336132.75845  22225350.5704                   22225349.1844
  -3271368.16447  -2544324.03945  22474133.6884                   22474132.1054
  -1387528.52046  -1084475.14843  23748613.6334                   23748614.2274
  -2409253.16448  -1874201.21146  20086553.5944                   20086550.7704
   2748139.43847   2113418.91845  22529271.2274                   22529270.0354
  -3585967.77347  -2784730.27046  21425164.1094                   21425160.8554
   2870885.19146   2210744.80543  24336571.6644                   24336572.3714
     86947.16048     56905.15647  20075464.9064                   20075461.1884
  -1645651.07856  -1277059.29753  24570037.7584                   24570038.7274
 11  7 28 17 23  0.0000000  0 10G03G06G07G10G13G16G19G20G23G08
   -785880.75048   -617656.36746  20756833.8594                   20756832.4654
    508856.34847    383559.65645  22236932.3834                   22236931.4184
  -3310467.87547  -2574791.31245  22466692.8834                   22466691.6954
  -1371160.58646  -1071720.89843  23751727.6414                   23751728.8554
  -2417568.35248  -1880680.57446  20084971.3204                   20084968.8984
   2855508.53947   2197083.11745  22549702.8524                   22549701.1054
  -3623694.90647  -2814128.00446  21417984.7584                   21417981.2424
   2976999.91446   2293431.42643  24356763.9774                   24356766.3244
    139773.59048     98068.58246  20085517.2664                   20085513.4494
  -1693446.83647  -1314302.71143  24560941.9614                   24560943.1454
 11  7 28 17 23 30.0000000  0 10G03G06G07G10G13G16G19G20G23G08
   -752581.43048   -591708.84846  20763169.7344                   20763169.0314
    570232.92647    431385.55545  22248611.9924                   22248611.1254
  -3349548.67647  -2605243.84045  22459255.9144                   22459254.9024
  -1354299.25046  -1058582.22744  23754936.5784                   23754938.0084
  -2425366.11747  -1886756.75446  20083487.0314                   20083484.8674
   2962972.61747   2280821.32445  22570152.8204                   22570150.9454
  -3660951.60547  -2843159.17646  21410894.5634                   21410891.6174
   3083007.53946   2376034.58243  24376935.7974                   24376938.1994
    193153.07448    139662.96146  20095675.0164                   20095671.1844
  -1741301.46546  -1351591.98043  24551835.5234                   24551836.3444
 11  7 28 17 24  0.0000000  0 10G03G06G07G10G13G16G19G20G23G08
   -718654.48848   -565272.27346  20769626.1954                   20769625.2774
    632122.12947    479610.90645  22260388.8284                   22260388.5474
  -3388608.03547  -2635679.68445  22451823.2894                   22451821.8634
  -1336943.18446  -1045058.02044  23758240.1094                   23758240.0864
  -2432643.06647  -1892427.09846  20082102.7194                   20082100.4614
   3070531.34447   2364633.27345  22590620.7344                   22590618.1374
  -3697733.70747  -2871820.52746  21403895.1484                   21403891.9924
   3188907.37146   2458553.75843  24397088.5234                   24397090.1214
    247087.04348    181689.40646  20105938.4614                   20105934.7074
  -1789213.22746  -1388925.75443  24542719.0314                   24542720.0554
 11  7 28 17 24 30.0000000  0  9G03G06G07G10G13G16G19G23G08
   -684106.80148   -538352.02046  20776199.9064                   20776199.4344
    694516.07447    528229.56345  22272262.1414                   22272261.5514
  -3427651.95347  -2666103.47745  22444393.1254                   22444392.1414
  -1319099.72746  -1031154.03144  23761635.2504                   23761635.8914
  -2439403.46147  -1897694.93746  20080816.1484                   20080813.8244
   3178176.16847   2448512.31345  22611104.9064                   22611101.9064
  -3734045.08247  -2900115.09446  21396985.6024                   21396982.1454
    301568.56648    224142.52046  20116305.7974                   20116301.7734
  -1837189.02346  -1426309.39543  24533589.1254                   24533590.3834
 11  7 28 17 25  0.0000000  0  9G03G06G07G10G13G16G19G23G08
   -648941.01648   -510950.11746  20782892.1174                   20782891.1954
    757411.62547    577239.07045  22284230.6334                   22284230.2624
  -3466682.07047  -2696516.52345  22436965.8834                   22436964.6884
  -1300771.62146  -1016872.40643  23765122.4304                   23765123.7704
  -2445647.84048  -1902560.68746  20079627.9844                   20079625.3524
   3285903.07847   2532455.31344  22631604.2424                   22631601.2384
  -3769885.05947  -2928042.32046  21390165.4844                   21390162.6524
    356595.35948    267020.51246  20126777.2894                   20126773.2854
  -1885231.15647  -1463744.74244  24524446.6954                   24524447.9494
 11  7 28 17 25 30.0000000  0  9G03G06G07G10G13G16G19G23G08
   -613154.93048   -483064.86346  20789702.0314                   20789700.8094
    820809.64147    626640.11345  22296295.1884                   22296294.2114
  -3505695.77747  -2726916.78145  22429541.8204                   22429540.5004
  -1281957.30946  -1002211.92243  23768703.9844                   23768703.9654
  -2451372.11747  -1907021.16046  20078538.4224                   20078535.7774
   3393712.00447   2616462.20344  22652119.9064                   22652116.1884
  -3805248.69947  -2955598.37946  21383435.5784                   21383433.0434
    412169.47348    310324.99647  20137352.7734                   20137348.9804
  -1933337.38347  -1501230.02743  24515292.3984                   24515293.1804
 11  7 28 17 26  0.0000000  0  9G03G06G07G10G13G16G19G23G08
   -576741.09848   -454690.45746  20796631.5004                   20796630.1564
    884716.77047    676437.85245  22308456.5554                   22308455.0004
  -3544685.00847  -2757297.97345  22422122.4224                   22422120.4884
  -1262649.61346   -987166.97344  23772377.1884                   23772378.4184
  -2456566.48447  -1911068.72746  20077550.4384                   20077547.5004
   3501608.90247   2700537.65244  22672652.0394                   22672648.6994
  -3840125.36747  -2982774.99246  21376798.9304                   21376795.7154
    468298.05948    354061.53946  20148033.7664                   20148029.5864
  -1981499.86747  -1538759.15243  24506127.4924                   24506127.9264
 11  7 28 17 26 30.0000000  0  9G03G06G07G10G13G16G19G23G08
   -539704.20348   -425830.55146  20803678.8834                   20803677.2894
    949127.36347    726627.92645  22320713.1334                   22320712.2664
  -3583653.50447  -2787663.02345  22414707.1024                   22414705.1644
  -1242853.64146   -971741.54744  23776144.2664                   23776144.8834
  -2461233.91047  -1914705.68046  20076662.1724                   20076659.3554
   3609587.31347   2784676.62945  22693199.6644                   22693197.4064
  -3874516.98047  -3009573.62546  21370254.2664                   21370251.5704
    524976.44548    398226.49246  20158819.1884                   20158815.3984
  -2029723.13347  -1576335.67643  24496950.5704                   24496951.7274
 11  7 28 17 27  0.0000000  0  9G03G06G07G10G13G16G19G23G08
   -502046.35948   -396486.78946  20810844.6414                   20810843.4924
   1014038.89547    777208.33245  22333065.8754                   22333064.6914
  -3622601.75847  -2818012.28545  22407295.3134                   22407293.9264
  -1222571.42246   -955937.25043  23780003.6804                   23780004.7814
  -2465373.41448  -1917931.27046  20075874.3914                   20075871.7544
   3717644.00447   2868876.61745  22713762.7734                   22713760.4844
  -3908421.93047  -3035993.04346  21363802.8134                   21363799.3834
    582202.87548    442818.48846  20169709.0004                   20169704.9654
  -2078008.32847  -1613960.39543  24487762.3524                   24487763.1374
 11  7 28 17 27 30.0000000  0  9G03G06G07G10G13G16G19G23G08
   -463774.12148   -366664.27346  20818127.3524                   20818126.7154
   1079443.65247    828173.06645  22345511.4694                   22345510.5784
  -3661535.97747  -2848350.60245  22399886.5394                   22399884.4264
  -1201810.30546   -939759.74243  23783954.7034                   23783955.2894
  -2468989.68747  -1920749.15246  20075185.9304                   20075183.7074
   3825770.75447   2953131.18445  22734338.6174                   22734336.4614
  -3941844.44947  -3062036.53546  21357442.4144                   21357439.5274
    639970.53148    487832.22347  20180702.0004                   20180697.9454
  -2126362.29747  -1651638.71143  24478561.3524                   24478561.6764
 11  7 28 17 28  0.0000000  0  9G03G06G07G10G13G16G19G23G08
   -424901.85948   -336374.22346  20825524.9144                   20825524.2384
   1145326.00847    879509.94945  22358048.3594                   22358048.0944
  -3700469.50047  -2878688.38345  22392478.0944                   22392476.3054
  -1180585.23446   -923220.72343  23787993.6804                   23787994.9694
  -2472095.55148  -1923169.31246  20074595.2274                   20074592.5314
   3933951.13747   3037427.55145  22754923.8524                   22754922.9344
  -3974796.16847  -3087713.18046  21351171.8914                   21351169.4494
    698264.57448    533256.11747  20191795.0864                   20191790.9384
  -2174799.18747  -1689381.68744  24469343.9614                   24469344.9304
 11  7 28 17 28 30.0000000  0  9G03G06G07G10G13G16G19G23G08
   -385432.36748   -305618.78545  20833035.4844                   20833034.6484
   1211682.63347    931216.37945  22370675.6724                   22370674.7934
  -3739404.29347  -2909027.15245  22385068.2894                   22385066.6954
  -1158898.77046   -906322.19943  23792120.4224                   23792120.5554
  -2474690.88348  -1925191.65246  20074101.1174                   20074099.1884
   4042181.16047   3121762.58244  22775518.8984                   22775518.3984
  -4007276.48447  -3113022.48846  21344990.6724                   21344988.4064
    757082.62148    579088.34047  20202987.7114                   20202983.5234
  -2223321.06646  -1727190.89144  24460111.0314                   24460111.9414
 11  7 28 17 29  0.0000000  0  9G03G06G07G10G13G16G19G23G08
   -345357.68048   -274391.77045  20840661.4144                   20840660.6094
   1278520.66047    983297.93845  22383394.3834                   22383394.1054
  -3778330.90647  -2939359.56245  22377661.3524                   22377659.1994
  -1136743.77746   -889058.59443  23796336.7504                   23796337.0474
  -2476765.79748  -1926808.47346  20073706.3674                   20073704.0274
   4150467.57047   3206141.54744  22796125.4384                   22796124.3324
  -4039274.27047  -3137955.79346  21338901.5474                   21338898.8594
    816432.63748    625335.07846  20214281.7664                   20214277.4144
  -2271919.14146  -1765059.46543  24450862.2974                   24450863.0784
 11  7 28 17 29 30.0000000  0  9G03G06G07G10G13G16G19G23G08
   -304686.56248   -242700.00445  20848401.2814                   20848400.1094
   1345830.56347   1035747.17645  22396203.1414                   22396202.5824
  -3817257.23847  -2969691.73445  22370253.4774                   22370252.4454
  -1114129.55146   -871437.12944  23800640.2734                   23800640.2194
  -2478326.71148  -1928024.78147  20073409.1414                   20073406.8134
   4258799.87147   3290556.30544  22816740.8204                   22816739.1644
  -4070795.26647  -3162517.57446  21332903.6334                   21332900.6294
    876305.72348    671989.41046  20225674.8834                   20225671.1994
  -2320602.41046  -1802994.37943  24441597.4774                   24441598.7074
 11  7 28 17 30  0.0000000  0  9G03G06G07G10G13G16G19G23G08
   -263414.50048   -210539.96945  20856255.0474                   20856254.3404
   1413615.60947   1088566.67645  22409102.1334                   22409100.5204
  -3856177.75047  -3000019.37545  22362846.9064                   22362845.9414
  -1091052.11346   -853454.71943  23805031.1954                   23805031.6564
  -2479367.31648  -1928835.65247  20073210.6174                   20073208.9734
   4367181.16847   3375009.23845  22837365.1954                   22837362.9884
  -4101832.19547  -3186702.17246  21326997.9844                   21326994.6524
    936705.80148    719054.37946  20237168.8594                   20237164.8874
  -2369365.73846  -1840991.70344  24432318.4924                   24432318.9654
 11  7 28 17 30 30.0000000  0  9G03G06G07G10G13G16G19G23G08
   -221553.58248   -177921.08246  20864221.0704                   20864220.0664
   1481863.37547   1141746.72345  22422089.7114                   22422088.3874
  -3895103.12947  -3030350.81645  22355439.8054                   22355438.4144
  -1067522.98046   -835120.36343  23809508.4454                   23809508.6134
  -2479896.78148  -1929248.23047  20073110.6174                   20073108.5234
   4475598.57047   3459490.31644  22857996.2734                   22857993.8054
  -4132393.69947  -3210516.30146  21321181.7274                   21321178.4104
    997621.85548    766521.40646  20248760.4534                   20248756.6844
  -2418220.19946  -1879060.05543  24423020.9534                   24423022.9384
 11  7 28 17 31  0.0000000  0  9G03G06G07G10G13G16G19G23G08
   -179101.17248   -144841.27345  20872299.9144                   20872298.3094
   1550575.08247   1195288.29345  22435164.9304                   22435163.9454
  -3934030.05947  -3060683.46945  22348032.1884                   22348029.9774
  -1043540.65246   -816432.87543  23814072.2894                   23814072.5204
  -2479910.85248  -1929259.20346  20073107.9534                   20073105.5044
   4584052.55947   3543999.89144  22878634.2114                   22878631.9534
  -4162474.60547  -3233955.96146  21315457.8204                   21315454.5274
   1059055.47748    814391.73446  20260451.2894                   20260447.6094
  -2467163.07446  -1917197.27743  24413707.3364                   24413709.1174
 11  7 28 17 31 30.0000000  0  9G03G06G07G10G13G16G19G23G08
   -136056.02748   -111299.60945  20880490.5394                   20880489.5704
   1619751.47347   1249191.94945  22448328.5634                   22448328.2074
  -3972956.00447  -3091015.35545  22340625.2814                   22340623.0704
  -1019103.76246   -797391.17243  23818722.2274                   23818723.3444
  -2479405.74248  -1928865.62946  20073204.0314                   20073201.7854
   4692543.33247   3628538.10545  22899279.5164                   22899277.5594
  -4192070.39547  -3257017.59046  21309825.7894                   21309822.5824
   1121008.27048    862666.60546  20272240.2814                   20272236.5084
  -2516192.50046  -1955401.96943  24404378.6414                   24404378.6294
 11  7 28 17 32  0.0000000  0  9G03G06G07G10G13G16G19G23G08
    -92429.40648    -77304.84446  20888793.2274                   20888791.4024
   1689380.63747   1303448.40245  22461578.3444                   22461577.9104
  -4011890.58647  -3121353.95745  22333216.1884                   22333214.2894
   -994224.00846   -778004.39543  23823457.2734                   23823456.5904
  -2478390.46948  -1928074.51246  20073397.3054                   20073394.8634
   4801058.77047   3713095.52744  22919929.6254                   22919927.5354
  -4221189.42247  -3279707.71946  21304284.7344                   21304281.7274
   1183469.29348    911337.50446  20284126.3834                   20284122.2384
  -2565318.86346  -1993682.19543  24395029.5004                   24395029.7034
 11  7 28 17 32 30.0000000  0  9G03G06G07G10G13G16G19G23G08
    -48218.52747    -42854.80546  20897205.6954                   20897204.7304
   1759464.46547   1358059.14845  22474915.8524                   22474913.8094
  -4050829.68447  -3151696.10245  22325805.7584                   22325803.8324
   -968898.81646   -758270.46943  23828276.0704                   23828276.9144
  -2476859.73848  -1926881.75446  20073688.6804                   20073685.9884
   4909600.52347   3797673.46144  22940583.7734                   22940582.5434
  -4249825.18047  -3302021.27746  21298835.1174                   21298832.0044
   1246441.12948    960406.44146  20296109.3984                   20296105.4844
  -2614538.75046  -2032035.26243  24385662.8134                   24385663.7234
 11  7 28 17 33  0.0000000  0  9G03G06G07G10G13G16G19G23G08
     -3421.02348     -7947.65646  20905730.5944                   20905728.9964
   1830004.37547   1413025.29345  22488338.4144                   22488337.5824
  -4089769.75447  -3182039.00045  22318396.3284                   22318393.2894
   -943126.17247   -738187.93444  23833180.7504                   23833180.4304
  -2474809.37948  -1925284.08246  20074078.5394                   20074076.2814
   5018169.46947   3882272.57444  22961244.8134                   22961242.4804
  -4277972.60247  -3323954.32446  21293479.1024                   21293475.6054
   1309926.25448   1009875.34046  20308190.6254                   20308186.5944
  -2663849.48846  -2070459.17643  24376279.4384                   24376280.2464
 11  7 28 17 33 30.0000000  0  9G03G06G07G10G13G16G19G23G08
     41962.69548     27416.29346  20914366.9144                   20914365.0904
   1900999.68047   1468346.28945  22501848.3054                   22501847.7384
  -4128709.72747  -3212381.79745  22310986.1024                   22310984.1954
   -916906.52347   -717757.04744  23838170.1564                   23838170.5864
  -2472237.18748  -1923279.78946  20074568.1484                   20074565.5314
   5126764.33647   3966891.89844  22981909.1024                   22981906.9884
  -4305628.75047  -3345504.55546  21288216.3134                   21288212.4534
   1373924.13748   1059743.78946  20320368.5944                   20320364.5784
  -2713250.14146  -2108953.10943  24366879.6954                   24366879.8404
 11  7 28 17 34  0.0000000  0  9G03G06G07G10G13G16G19G23G08
     87921.96148     63228.69546  20923112.6414                   20923110.9104
   1972438.37147   1524012.77745  22515442.7814                   22515442.1764
  -4167658.93747  -3242731.80145  22303574.0314                   22303571.9654
   -890251.31646   -696986.77343  23843242.5314                   23843242.8954
  -2469151.83248  -1920875.62946  20075155.5004                   20075152.8094
   5235373.22747   4051522.15244  23002577.2664                   23002574.6524
  -4332801.66847  -3366678.23846  21283045.5004                   21283042.1254
   1438424.05548   1110003.44146  20332642.7114                   20332638.7154
  -2762750.49646  -2147524.75043  24357459.1884                   24357459.3554
 11  7 28 17 34 30.0000000  0  9G03G06G07G10G13G16G19G23G08
    134462.46548     99494.02046  20931969.2584                   20931967.7424
   2044325.53147   1580028.72745  22529122.5084                   22529122.2234
  -4206610.33247  -3273083.49645  22296161.8754                   22296160.5594
   -863154.86346   -675872.70344  23848398.9614                   23848399.5394
  -2465545.15648  -1918065.24246  20075841.8914                   20075838.9884
   5344000.63347   4136166.84044  23023247.8594                   23023245.4574
  -4359482.36747  -3387468.37946  21277967.9774                   21277965.2074
   1503431.71548   1160658.73846  20345013.2894                   20345009.3554
  -2812344.52046  -2186169.43442  24348021.4614                   24348020.4964
 11  7 28 17 35  0.0000000  0  9G03G06G07G10G13G16G19G23G08
    181577.10248    136206.71946  20940934.8524                   20940932.7114
   2116653.71947   1636388.32845  22542886.1644                   22542885.6454
  -4245569.29747  -3303441.09845  22288748.1954                   22288746.6094
   -835624.30946   -654420.33643  23853637.4534                   23853638.2774
  -2461421.60548  -1914852.10246  20076626.1094                   20076624.0084
   5452638.87547   4220819.98044  23043921.3364                   23043918.5864
  -4385674.59847  -3407877.87946  21272983.7504                   21272980.8164
   1568940.24648   1211704.31346  20357478.9454                   20357475.1024
  -2862038.14146  -2224891.62942  24338565.4064                   24338563.9534
 11  7 28 17 35 30.0000000  0  9G03G06G07G10G13G16G19G23G08
    229265.62548    173366.60546  20950009.6414                   20950007.4694
   2189421.71547   1693090.65245  22556733.4774                   22556732.9574
  -4284534.40247  -3333803.49645  22281333.2344                   22281331.9494
   -807660.25047   -632630.17644  23858959.2114                   23858959.5394
  -2456779.30548  -1911234.72746  20077509.6094                   20077507.0664
   5561287.03146   4305480.81344  23064595.9774                   23064594.3164
  -4411375.43047  -3427904.47346  21268093.5004                   21268089.8324
   1634949.27048   1263139.89546  20370040.2194                   20370036.4924
  -2911830.88746  -2263691.10943  24329090.1094                   24329089.9924
 11  7 28 17 36  0.0000000  0  9G03G06G07G10G13G16G19G23G08
    277526.76648    210972.68046  20959193.2114                   20959191.9264
   2262627.31347   1750133.94945  22570664.3364                   22570663.2464
  -4323505.94147  -3364170.89845  22273917.9614                   22273915.5204
   -779264.54747   -610503.73044  23864362.8284                   23864363.1374
  -2451617.62548  -1907212.66046  20078492.1644                   20078489.5634
   5669942.21546   4390147.11744  23085272.0084                   23085270.7034
  -4436583.48847  -3447547.09846  21263296.2504                   21263292.8244
   1701457.62548   1314964.55946  20382696.3134                   20382692.3094
  -2961723.41046  -2302568.29743  24319596.3134                   24319595.1994
 11  7 28 17 36 30.0000000  0  9G03G06G07G10G13G16G19G23G08
    326356.88347    249022.11346  20968485.0944                   20968483.4924
   2336266.43447   1807515.06345  22584677.6804                   22584676.6414
  -4362485.52747  -3394544.58645  22266500.3364                   22266498.0314
   -750440.77747   -588043.66044  23869848.6564                   23869848.2114
  -2445937.62147  -1902786.69946  20079572.8984                   20079570.3134
   5778600.05146   4474815.48844  23105949.8674                   23105948.4494
  -4461298.81648  -3466805.77046  21258593.6174                   21258589.6884
   1768461.96148   1367175.69946  20395446.9304                   20395443.3364
  -3011717.89146  -2341524.97743  24310081.9384                   24310081.3714
 11  7 28 17 37  0.0000000  0  9G03G06G07G10G13G16G19G23G08
    375751.97748    287511.77346  20977885.0864                   20977883.2304
   2410334.47747   1865230.41045  22598772.2894                   22598771.4064
  -4401475.55147  -3424926.40245  22259080.1254                   22259078.2234
   -721193.37147   -565253.48844  23875413.3834                   23875414.3094
  -2439740.73848  -1897957.96546  20080752.0474                   20080749.7734
   5887255.88347   4559482.30944  23126626.3914                   23126624.3714
  -4485522.15247  -3485681.06646  21253984.0944                   21253980.6054
   1835958.14148   1419770.10546  20408290.9384                   20408287.3594
  -3061817.05546  -2380563.22343  24300548.8754                   24300548.8714
 11  7 28 17 37 30.0000000  0  9G03G06G07G10G13G16G19G23G08
    425712.47748    326442.01246  20987392.0634                   20987390.7704
   2484830.62547   1923279.34845  22612947.9384                   22612947.5744
  -4440474.47747  -3455315.16845  22251659.0944                   22251656.5084
   -691522.57847   -542133.41443  23881060.4304                   23881060.3524
  -2433024.78148  -1892724.76247  20082030.3444                   20082027.7384
   5995908.84847   4644146.91044  23147302.3204                   23147301.3634
  -4509250.26247  -3504170.47346  21249468.3984                   21249464.5084
   1903946.02748   1472747.64846  20421228.6094                   20421224.7814
  -3112020.18046  -2419682.48843  24290995.2974                   24290996.2814
 11  7 28 17 38  0.0000000  0  9G03G06G07G10G13G16G19G23G08
    476228.03148    365804.77746  20997005.0554                   20997004.0634
   2559743.98047   1981653.36345  22627203.9844                   22627203.1484
  -4479490.23047  -3485717.03545  22244234.5554                   22244232.7154
   -661438.56647   -518691.35944  23886784.9304                   23886785.0984
  -2425797.70747  -1887093.29346  20083405.1804                   20083402.7894
   6104548.08247   4728800.82044  23167976.3204                   23167974.1054
  -4532490.39147  -3522279.64846  21245046.0084                   21245042.1644
   1972415.75848   1526100.65646  20434258.1334                   20434254.0904
  -3162336.65246  -2458890.08243  24281419.7504                   24281421.1134
 11  7 28 17 38 30.0000000  0  9G03G06G07G10G13G16G19G23G08
    527303.52748    405603.85246  21006724.3134                   21006723.1844
   2635078.94147   2040355.90645  22641539.9694                   22641539.0314
  -4518516.69547  -3516127.25445  22236807.8054                   22236806.4964
   -630936.68047   -494923.67644  23892589.1644                   23892588.4024
  -2418052.03547  -1881057.71147  20084879.2734                   20084877.3094
   6213177.99647   4813447.47744  23188647.4694                   23188645.1374
  -4555234.65647  -3540002.43446  21240718.0164                   21240714.1254
   2041372.36348   1579833.04746  20447379.6024                   20447375.8364
  -3212759.98046  -2498180.91043  24271825.2734                   24271825.4534
 11  7 28 17 39  0.0000000  0  9G03G06G07G10G13G16G19G23G08
    578932.96148    445834.55546  21016548.8674                   21016547.9494
   2710828.87147   2099381.80145  22655954.4304                   22655953.8524
  -4557557.81247  -3546548.89545  22229378.4304                   22229376.5554
   -600023.12147   -470835.20744  23898471.6414                   23898471.3874
  -2409791.71147  -1874621.10246  20086450.9534                   20086449.2504
   6321791.70347   4898081.49244  23209315.8364                   23209313.7234
  -4577485.78547  -3557340.95746  21236483.4774                   21236479.5904
   2110809.62948   1633939.98446  20460593.3134                   20460589.6214
  -3263295.50446  -2537559.14543  24262208.9304                   24262208.9694
 11  7 28 17 39 30.0000000  0  9G03G06G07G10G13G16G19G23G08
    631114.62948    486495.59046  21026478.8284                   21026477.4304
   2786991.17647   2158729.03545  22670447.5234                   22670446.6524
  -4596613.67247  -3576982.02045  22221946.9144                   22221945.8364
   -568700.01647   -446427.62944  23904432.1484                   23904432.2774
  -2401015.93047  -1867782.84446  20088121.0704                   20088119.1524
   6430386.71147   4982700.95744  23229980.5864                   23229978.1844
  -4599242.34048  -3574294.09046  21232343.4064                   21232339.4414
   2180726.02348   1688420.25846  20473898.5634                   20473894.2774
  -3313943.70346  -2577025.22744  24252570.4844                   24252570.8484
 11  7 28 17 40  0.0000000  0  9G03G06G07G10G13G16G19G23G08
    683849.34048    527587.56346  21036514.1254                   21036512.5434
   2863566.25047   2218397.90245  22685018.9454                   22685018.0164
  -4635681.75847  -3607424.68445  22214512.9774                   22214510.5434
   -536966.60547   -421700.29344  23910470.7974                   23910470.9384
  -2391721.32847  -1860540.30946  20089889.8134                   20089887.5354
   6538963.33247   5067306.06644  23250642.5004                   23250639.2114
  -4620499.88347  -3590858.39546  21228297.8914                   21228294.3014
   2251122.39548   1743274.54746  20487294.3054                   20487290.3324
  -3364702.46146  -2616577.45744  24242910.6954                   24242911.4304
 11  7 28 17 40 30.0000000  0  9G03G06G07G10G13G16G19G23G08
    737129.20748    569104.34046  21046652.9224                   21046651.2424
   2940545.69147   2278381.84845  22699668.1414                   22699666.8754
  -4674767.84047  -3637881.35945  22207074.5084                   22207072.7894
   -504830.72747   -396659.39544  23916586.7814                   23916585.6564
  -2381913.68447  -1852898.00046  20091756.4614                   20091753.9694
   6647513.20347   5151890.33244  23271299.1094                   23271296.5514
  -4641263.49247  -3607037.81246  21224347.2894                   21224343.0474
   2321991.08248   1798496.86346  20500780.2734                   20500776.5004
  -3415578.45746  -2656221.03944  24233230.1804                   24233229.4734
 11  7 28 17 41  0.0000000  0  9G03G06G07G10G13G16G19G23G08
    790947.55548    611040.70746  21056894.4774                   21056892.1334
   3017922.29347   2338675.28545  22714392.3284                   22714391.6844
  -4713876.25047  -3668355.43045  22199632.9384                   22199630.5354
   -472299.09047   -371310.11744  23922776.9304                   23922776.9344
  -2371597.02747  -1844859.05947  20093719.7114                   20093716.8404
   6756029.04747   5236448.07044  23291948.9614                   23291946.5864
  -4661536.28147  -3622834.78146  21220489.5394                   21220485.5234
   2393325.58648   1854082.16046  20514354.9454                   20514350.7814
  -3466576.38746  -2695959.61744  24223524.4614                   24223524.7344
 11  7 28 17 41 30.0000000  0  9G03G06G07G10G13G16G19G23G08
    845304.13348    653396.47746  21067237.7114                   21067235.7774
   3095694.90247   2399277.30545  22729191.8834                   22729191.0004
  -4753005.92647  -3698846.07445  22192186.4614                   22192184.7304
   -439372.65247   -345653.18444  23929042.2814                   23929042.7974
  -2360769.57447  -1836422.09047  20095779.7344                   20095777.4964
   6864509.77347   5320978.44944  23312592.0314                   23312589.7504
  -4681315.79748  -3638247.37546  21216725.2344                   21216721.2194
   2465125.23848   1910029.90246  20528017.9844                   20528013.7504
  -3517696.03146  -2735793.04744  24213797.6094                   24213797.6994
 11  7 28 17 42  0.0000000  0  9G03G06G07G10G13G16G19G23G08
    900197.71548    696170.68446  21077683.7584                   21077682.4654
   3173861.67247   2460186.43845  22744066.7114                   22744065.7234
  -4792155.93747  -3729352.56245  22184735.8134                   22184734.3714
   -406052.98047   -319689.84844  23935383.3524                   23935383.4964
  -2349430.34848  -1827586.33247  20097937.4774                   20097935.2624
   6972953.91847   5405480.32844  23333228.1334                   23333226.3164
  -4700600.14847  -3653274.12146  21213055.3444                   21213051.5314
   2537389.16048   1966339.41446  20541769.4304                   20541765.5704
  -3568937.25446  -2775721.22343  24204046.3524                   24204046.3164
 11  7 28 17 42 30.0000000  0  9G03G06G07G10G13G16G19G23G08
    955619.09448    739356.16045  21088229.9694                   21088228.3524
   3252412.94547   2521395.19545  22759013.8364                   22759013.3284
  -4831333.23447  -3759880.30545  22177280.9454                   22177278.6454
   -372349.37147   -293427.34444  23941796.6884                   23941796.9104
  -2337585.75448  -1818356.79347  20100191.7194                   20100189.2154
   7081352.01646   5489946.32044  23353855.3674                   23353854.1684
  -4719395.18447  -3667919.58646  21209478.6254                   21209474.8134
   2610108.34048   2023003.67246  20555607.1254                   20555603.3484
  -3620307.88347  -2815750.19143  24194271.1804                   24194271.1994
 11  7 28 17 43  0.0000000  0  9G03G06G07G10G13G16G19G23G08
   1011570.59848    782954.72746  21098877.0864                   21098875.7384
   3331350.77347   2582905.15244  22774035.4614                   22774034.1764
  -4870533.47747  -3790425.93745  22169821.6954                   22169819.1334
   -338259.28947   -266863.67644  23948284.1094                   23948284.5004
  -2325231.27348  -1808729.93447  20102542.9534                   20102540.2774
   7189705.94546   5574377.89144  23374474.2424                   23374473.3674
  -4737695.42247  -3682179.48446  21205996.5084                   21205992.6524
   2683285.21948   2080024.57846  20569532.0784                   20569528.2384
  -3671803.69546  -2855876.73043  24184471.6954                   24184472.8284
 11  7 28 17 43 30.0000000  0  9G03G06G07G10G13G16G19G23G08
   1068053.26648    826967.18046  21109625.7974                   21109624.2114
   3410675.31347   2644716.46145  22789130.2274                   22789129.2894
  -4909753.79347  -3820987.19145  22162358.2274                   22162356.1604
   -303781.68047   -239998.02743  23954844.9454                   23954845.5704
  -2312363.44948  -1798703.06647  20104991.1094                   20104988.9104
   7298016.20346   5658775.43844  23395084.6644                   23395083.9694
  -4755496.79347  -3696050.66846  21202609.0314                   21202605.0744
   2756920.80148   2137402.90246  20583544.7034                   20583540.5314
  -3723422.30546  -2896098.97743  24174648.3914                   24174648.8714
 11  7 28 17 44  0.0000000  0  9G03G06G07G10G13G16G19G23G08
   1125058.28948    871386.65646  21120472.8834                   21120472.0514
   3490377.02047   2706821.65645  22804297.2424                   22804296.2544
  -4949000.78947  -3851569.25445  22154889.7504                   22154887.3714
   -268925.92647   -212837.74644  23961477.5944                   23961478.4734
  -2298989.20748  -1788281.59447  20107536.5314                   20107533.9574
   7406273.60546   5743131.80544  23415686.1644                   23415684.4024
  -4772804.70747  -3709537.32846  21199315.4614                   21199311.2894
   2831006.25848   2195131.80146  20597642.8364                   20597638.9454
  -3775171.84446  -2936423.23844  24164801.4614                   24164801.7544
 11  7 28 17 44 30.0000000  0  9G03G06G07G10G13G16G19G23G08
   1182591.19548    916217.46546  21131420.8364                   21131420.0204
   3570460.93447   2769224.67244  22819536.4694                   22819535.8914
  -4988267.12947  -3882166.37545  22147417.1564                   22147416.3284
   -233687.02347   -185378.89544  23968183.2194                   23968183.6884
  -2285100.11748  -1777458.94147  20110179.3444                   20110177.1724
   7514483.50446   5827451.14544  23436278.1724                   23436276.3244
  -4789610.59047  -3722632.80546  21196117.4064                   21196113.3404
   2905547.09848   2253215.53946  20611827.5554                   20611823.3284
  -3827045.02347  -2976843.80144  24154929.4454                   24154930.3954
 11  7 28 17 45  0.0000000  0  9G03G06G07G10G13G16G19G23G08
   1240653.72348    961460.96945  21142470.3134                   21142469.2234
   3650928.68847   2831926.78544  22834848.8284                   22834848.1054
  -5027548.18447  -3912774.97345  22139942.4534                   22139940.9184
   -198062.72747   -157619.74244  23974962.2034                   23974962.5984
  -2270691.91448  -1766231.77747  20112921.4384                   20112918.8984
   7622647.80146   5911734.97344  23456860.4144                   23456859.5664
  -4805909.12948  -3735332.95346  21193015.9774                   21193011.8554
   2980545.62948   2311655.90646  20626099.4924                   20626095.3524
  -3879037.89547  -3017357.66844  24145036.1024                   24145036.2664
 11  7 28 17 45 30.0000000  0  9G03G06G07G10G13G16G19G23G08
   1299231.49248   1007105.96145  21153616.8134                   21153615.3554
   3731765.17247   2894916.22344  22850232.0784                   22850230.9534
  -5066856.36347  -3943404.69945  22132462.0704                   22132460.7424
   -162067.86747   -129571.84044  23981811.7194                   23981813.1134
  -2255777.05948  -1754609.83247  20115759.3674                   20115756.6724
   7730751.17247   5995971.31644  23477432.1484                   23477431.1094
  -4821711.67247  -3747646.60946  21190008.4144                   21190004.6054
   3055987.18448   2370441.48846  20640455.3134                   20640451.3444
  -3931163.73447  -3057975.17244  24135116.3754                   24135116.5084
 11  7 28 17 46  0.0000000  0  9G03G06G07G10G13G16G19G23G08
   1358336.03148   1053161.43845  21164863.7114                   21164863.0084
   3812981.35247   2958201.52744  22865686.7664                   22865686.3094
  -5106177.94147  -3974044.87145  22124979.4144                   22124977.7384
   -125691.06247   -101226.30544  23988734.0944                   23988735.5084
  -2240341.87548  -1742582.43047  20118696.3204                   20118693.8444
   7838805.12147   6080169.13744  23497993.9064                   23497992.9654
  -4837004.01647  -3759562.71146  21187098.3204                   21187094.7114
   3131883.38748   2429581.34846  20654897.7734                   20654893.9574
  -3983409.78146  -3098686.32844  24125174.7034                   24125173.7704
 11  7 28 17 46 30.0000000  0  9G03G06G07G10G13G16G19G23G08
   1417961.27048   1099622.63345  21176210.0864                   21176209.2974
   3894570.38347   3021777.34445  22881212.8364                   22881212.3364
  -5145517.10547  -4004698.75845  22117493.7664                   22117491.6134
    -88938.61747    -72588.06244  23995728.3594                   23995728.8674
  -2224389.91848  -1730152.34847  20121731.9224                   20121729.5394
   7946803.41646   6164323.60444  23518546.2424                   23518544.4384
  -4851789.02347  -3771083.48446  21184285.1414                   21184281.4654
   3208228.25048   2489070.80546  20669426.0084                   20669421.6884
  -4035780.23047  -3139494.40643  24115209.0634                   24115207.6954
 11  7 28 17 47  0.0000000  0  9G03G06G07G10G13G16G19G23G08
   1478113.77748   1146494.69546  21187656.9224                   21187656.2584
   3976538.49247   3085648.57445  22896810.7274                   22896810.1454
  -5184864.59447  -4035359.12145  22110005.2274                   22110003.6644
    -51803.96147    -43652.02344  24002795.0234                   24002796.0124
  -2207912.08648  -1717312.48847  20124867.7274                   20124865.1254
   8054752.50046   6248439.70744  23539087.7424                   23539086.4264
  -4866056.87947  -3782201.27046  21181569.9534                   21181566.5124
   3285028.48848   2548915.10546  20684040.7814                   20684036.4774
  -4088266.93046  -3180393.09444  24105220.5234                   24105220.9774
 11  7 28 17 47 30.0000000  0  9G03G06G07G10G13G16G19G23G08
   1538784.10948   1193770.25445  21199201.9844                   21199201.5434
   4058876.09447   3149807.69944  22912479.6174                   22912478.8014
  -5224227.13747  -4066031.20745  22102515.2664                   22102512.9144
    -14296.25047    -14425.27344  24009932.5314                   24009933.2464
  -2190915.44148  -1704068.36347  20128102.1804                   20128099.7504
   8162643.27046   6332510.37544  23559618.7274                   23559616.9694
  -4879813.21947  -3792920.48046  21178952.3914                   21178948.5554
   3362275.08648   2609107.22346  20698740.0314                   20698735.7704
  -4140877.32846  -3221388.10944  24095209.1174                   24095210.0664
 11  7 28 17 48  0.0000000  0  9G03G06G07G10G13G16G19G23G08
   1599971.50848   1241448.73045  21210845.6954                   21210844.8404
   4141581.56347   3214253.48444  22928217.5004                   22928217.0824
  -5263603.68747  -4096714.21545  22095022.5554                   22095020.8484
     23583.27047     15091.18044  24017140.9384                   24017141.6414
  -2173398.63748  -1690418.92247  20131435.5234                   20131433.2114
   8270474.24246   6416534.44144  23580138.5864                   23580136.3834
  -4893056.18047  -3803239.65246  21176432.2974                   21176428.5554
   3439966.85548   2669646.22346  20713523.9384                   20713520.1024
  -4193610.73847  -3262478.99644  24085175.5634                   24085175.0904
 11  7 28 17 48 30.0000000  0  9G03G06G07G10G13G16G19G23G08
   1661676.11348   1289530.21146  21222587.9064                   21222586.7234
   4224654.55547   3278985.64544  22944026.0084                   22944025.1484
  -5302991.49247  -4127405.98845  22087527.1414                   22087524.7974
     61834.41047     44897.23044  24024418.5784                   24024420.0394
  -2155358.91448  -1676362.01247  20134868.6724                   20134865.4844
   8378245.89546   6500512.31344  23600646.7814                   23600644.6804
  -4905782.53147  -3813156.27746  21174009.7734                   21174006.8134
   3518104.21548   2730532.43446  20728393.0634                   20728389.3954
  -4246465.49647  -3303664.45744  24075116.7974                   24075117.4414
 11  7 28 17 49  0.0000000  0  9G03G06G07G10G13G16G19G23G08
   1723903.24648   1338018.86345  21234429.6484                   21234428.4104
   4308100.46547   3344008.39844  22959905.4454                   22959904.0594
  -5342382.56647  -4158100.32445  22080031.3134                   22080029.2504
    100462.73047     74997.17644  24031770.4144                   24031771.2774
  -2136788.66448  -1661891.70747  20138402.5474                   20138399.8204
   8485963.67646   6584448.16844  23621145.0394                   23621143.0984
  -4917983.58647  -3822663.57046  21171688.5394                   21171684.7734
   3596692.94148   2791770.35946  20743348.3914                   20743344.1764
  -4299433.93047  -3344938.51643  24065036.7814                   24065037.8914
 11  7 28 17 49 30.0000000  0  9G03G06G07G10G13G16G19G23G08
   1786655.49648   1386916.70745  21246370.5394                   21246370.0634
   4391921.09847   3409323.15244  22975856.2664                   22975855.0084
  -5381772.14847  -4188793.49645  22072535.5474                   22072533.9184
    139470.53947    105392.81344  24039192.7974                   24039194.2154
  -2117682.80148  -1647004.03547  20142037.8754                   20142035.7304
   8593629.93846   6668343.88344  23641633.7194                   23641630.9774
  -4929653.53147  -3831757.02346  21169467.6174                   21169464.2734
   3675735.48048   2853361.91046  20758389.7194                   20758386.0044
  -4352511.86347  -3386297.91043  24054937.0004                   24054936.8634
 11  7 28 17 50  0.0000000  0  9G03G06G07G10G13G16G19G23G08
   1849927.30548   1436219.39145  21258411.0004                   21258409.9774
   4476110.32047   3474925.10544  22991877.4844                   22991875.8634
  -5421163.17647  -4219487.79745  22065040.2114                   22065037.5554
    178852.55547    136080.05944  24046686.8674                   24046688.2584
  -2098044.87548  -1631701.77747  20145775.1954                   20145772.2154
   8701239.40646   6752195.38343  23662110.8444                   23662108.4924
  -4940795.07447  -3840438.73046  21167347.2974                   21167343.9304
   3755226.38348   2915302.82046  20773516.3134                   20773512.6724
  -4405703.19547  -3427745.66443  24044814.1804                   24044814.8714
 11  7 28 17 50 30.0000000  0  9G03G06G07G10G13G16G19G23G08
   1913720.62548   1485928.44945  21270550.8204                   21270549.6954
   4560670.10547   3540815.81345  23007967.7814                   23007966.7664
  -5460550.86747  -4250179.50445  22057544.7034                   22057542.3244
    218610.49647    167060.21144  24054253.2814                   24054253.8834
  -2077870.56248  -1615981.55947  20149613.7034                   20149611.2274
   8808794.41846   6836004.43444  23682577.6724                   23682576.4304
  -4951402.94547  -3848704.58646  21165328.6954                   21165325.4774
   3835167.93448   2977594.90246  20788728.6954                   20788725.1884
  -4459003.90647  -3469278.60943  24034671.3444                   24034670.9694
 11  7 28 17 51  0.0000000  0  9G03G06G07G10G13G16G19G23G08
   1978032.15248   1536041.30145  21282788.8134                   21282787.6454
   4645596.38747   3606992.10545  23024129.2664                   23024127.9104
  -5499936.34447  -4280869.48045  22050049.4144                   22050047.1294
    258740.19147    198330.03944  24061889.3054                   24061891.0744
  -2057160.75848  -1599844.05947  20153554.7424                   20153552.7304
   8916291.43847   6919768.28144  23703033.4384                   23703032.1214
  -4961477.29347  -3856554.72346  21163411.6804                   21163408.4024
   3915556.76248   3040235.49646  20804026.4614                   20804022.5084
  -4512415.68447  -3510898.13343  24024507.6174                   24024507.0634
 11  7 28 17 51 30.0000000  0  9G03G06G07G10G13G16G19G23G08
   2042861.60948   1586557.74645  21295125.6334                   21295124.3134
   4730888.68847   3673453.61344  23040359.1414                   23040359.1054
  -5539317.08647  -4311555.75845  22042556.3134                   22042554.2154
    299241.95347    229889.80944  24069596.6564                   24069597.6214
  -2035913.37148  -1583287.68446  20157598.3754                   20157595.6954
   9023730.25046   7003486.77744  23723478.3134                   23723476.4804
  -4971015.16047  -3863986.82846  21161596.3834                   21161593.5084
   3996392.42648   3103224.28146  20819408.9224                   20819405.1884
  -4565936.70347  -3552602.78943  24014322.4454                   24014321.3444
 11  7 28 17 52  0.0000000  0  9G03G06G07G10G13G16G19G23G08
   2108205.58648   1637475.10545  21307560.3134                   21307558.5004
   4816543.30947   3740197.44145  23056659.2504                   23056658.0124
  -5578693.60547  -4342238.75445  22035062.4774                   22035060.8324
    340112.58247    261736.99644  24077374.3204                   24077375.0704
  -2014129.34047  -1566313.13346  20161743.3674                   20161741.4104
   9131107.87546   7087157.62143  23743911.7504                   23743909.5234
  -4980016.57847  -3871000.91046  21159883.6884                   21159880.4454
   4077672.07448   3166559.03146  20834875.7974                   20834872.0944
  -4619568.37547  -3594393.64843  24004116.9454                   24004116.7664
 11  7 28 17 52 30.0000000  0  9G03G06G07G10G13G16G19G23G08
   2174067.43448   1688796.00445  21320093.5634                   21320091.5784
   4902562.85947   3807225.62944  23073027.9774                   23073026.9654
  -5618060.39147  -4372914.15645  22027571.5314                   22027569.6414
    381354.82447    293873.77744  24085222.4844                   24085223.8834
  -1991803.25048  -1548916.19546  20165992.1094                   20165989.7894
   9238428.00446   7170783.60243  23764333.8594                   23764331.8834
  -4988475.70747  -3877592.43746  21158274.0314                   21158270.9494
   4159398.92248   3230242.25046  20850427.8134                   20850423.9924
  -4673305.60247  -3636266.73043  23993891.0004                   23993891.4734
 11  7 28 17 53  0.0000000  0  9G03G06G07G10G13G16G19G23G08
   2240440.03948   1740514.90245  21332723.6484                   21332721.5274
   4988939.93447   3874532.42244  23089464.9924                   23089463.9654
  -5657421.64847  -4403585.25446  22020081.2664                   22020079.3714
    422961.76247    326294.72744  24093139.8754                   24093141.3404
  -1968939.82048  -1531100.55546  20170343.1484                   20170340.9654
   9345683.52046   7254359.24243  23784743.7344                   23784742.3134
  -4996396.35947  -3883764.37146  21156767.1954                   21156763.5164
   4241565.99648   3294268.49646  20866063.7894                   20866060.4304
  -4727153.31247  -3678225.92644  23983643.6414                   23983644.5234
 11  7 28 17 53 30.0000000  0  9G03G06G07G10G13G16G19G23G08
   2307321.09448   1792630.00845  21345450.5554                   21345449.1294
   5075672.03547   3942115.84844  23105969.7034                   23105968.9734
  -5696777.09047  -4434251.82046  22012592.6564                   22012590.1024
    464931.08247    358998.04744  24101126.3204                   24101126.9964
  -1945538.84048  -1512866.05547  20174796.3834                   20174793.6094
   9452872.61746   7337883.14144  23805141.8204                   23805139.4734
  -5003777.53947  -3889515.93746  21155362.0314                   21155359.2194
   4324171.10548   3358636.06646  20881783.3674                   20881779.8164
  -4781111.76247  -3720271.37944  23973376.2424                   23973376.6374
 11  7 28 17 54  0.0000000  0  9G03G06G07G10G13G16G19G23G08
   2374715.09848   1845144.80145  21358275.1484                   21358273.7424
   5162763.16047   4009979.03144  23122542.2114                   23122541.4694
  -5736119.43747  -4464908.18745  22005105.5634                   22005103.5514
    507266.81647    391986.91044  24109182.7114                   24109183.5634
  -1921593.96547  -1494207.71946  20179352.4534                   20179350.4104
   9559999.91846   7421358.91043  23825527.1644                   23825526.3634
  -5010611.90647  -3894841.42646  21154061.9924                   21154058.5204
   4407218.83648   3423348.54746  20897586.3674                   20897582.6094
  -4835174.44947  -3762398.09044  23963088.7344                   23963088.7854
 11  7 28 17 54 30.0000000  0  9G03G06G07G10G13G16G19G23G08
   2442625.10248   1898061.66845  21371198.1724                   21371196.5704
   5250216.13347   4078124.17644  23139183.8134                   23139182.9024
  -5775442.71147  -4495549.69946  21997622.7274                   21997620.4774
    549972.03947    425263.65244  24117309.4774                   24117309.5434
  -1897099.66848  -1475121.27346  20184013.4844                   20184010.8404
   9667069.08646   7504789.34444  23845901.9844                   23845900.5744
  -5016893.17648  -3899735.91446  21152866.5314                   21152863.1094
   4490712.55548   3488408.54346  20913475.1174                   20913471.5824
  -4889335.80947  -3804601.66843  23952780.6024                   23952781.4224
 11  7 28 17 55  0.0000000  0  9G03G06G07G10G13G16G19G23G08
   2511052.11748   1951381.39845  21384219.4224                   21384217.9884
   5338031.76247   4146551.91044  23155894.4694                   23155893.6884
  -5814742.67647  -4526173.02345  21990143.8284                   21990141.8244
    593048.32846    458829.53644  24125506.1954                   24125508.0004
  -1872052.41847  -1455603.94946  20188780.0554                   20188777.7664
   9774081.70346   7588175.74244  23866266.8134                   23866264.9264
  -5022616.79748  -3904195.85946  21151777.5554                   21151774.0554
   4574653.71148   3553817.18846  20929448.2504                   20929444.5864
  -4943592.98847  -3846879.89844  23942455.7194                   23942456.1844
 11  7 28 17 55 30.0000000  0  9G03G06G07G10G13G16G19G23G08
   2579982.91848   2005093.69145  21397336.9144                   21397335.0554
   5426196.44147   4215251.62144  23172671.6954                   23172671.0124
  -5854029.87148  -4556786.40645  21982667.5474                   21982665.6684
    636481.90247    492673.82444  24133771.8914                   24133772.3484
  -1846463.07847  -1435664.21946  20193649.5784                   20193647.4104
   9881024.71946   7671507.89844  23886616.2194                   23886615.9064
  -5027793.53948  -3908229.67246  21150792.3834                   21150788.4654
   4659028.89148   3619564.04346  20945504.5634                   20945500.8874
  -4997957.34447  -3889241.65644  23932111.2344                   23932111.0474
 11  7 28 17 56  0.0000000  0 10G03G06G07G10G13G16G19G28G23G08
   2649423.29348   2059203.05545  21410550.5084                   21410549.1644
   5514715.87947   4284227.77744  23189516.5394                   23189516.0904
  -5893295.96548  -4587383.34845  21975196.0084                   21975193.2424
    680279.09846    526801.47344  24142105.7114                   24142106.5044
  -1820323.39848  -1415295.65646  20198623.3134                   20198621.2344
   9987904.65246   7754790.90244  23906955.2274                   23906954.2774
  -5032414.00447  -3911830.02346  21149913.2274                   21149909.2464
  -1656645.14556  -1284885.55153  24548920.2814                   24548921.7704
   4743844.22348   3685653.86746  20961644.4924                   20961640.7814
  -5052420.38347  -3931680.33644  23921747.1564                   23921746.5274
 11  7 28 17 56 30.0000000  0 10G03G06G07G10G13G16G19G28G23G08
   1143953.06348    886109.35945  21124069.0864                   21124067.1844
   4028169.89547   3125880.23444  22906636.6254                   22906635.0124
  -7507961.61348  -5845564.36746  21667935.3204                   21667933.2974
   -850981.85246   -666388.95744  23850717.3444                   23850717.9804
  -3369053.08247  -2622098.02346  19903910.6414                   19903908.0984
   8519302.77746   6610425.73443  23627489.9144                   23627487.4574
  -6611897.84048  -5142596.62546  20849347.5864                   20849344.1334
  -3286964.32846  -2555264.04743  24238681.1644                   24238681.7384
   3253679.89548   2524486.81646  20678075.5634                   20678072.0904
  -6682404.35247  -5201797.64544  23611571.6564                   23611571.2034
 11  7 28 17 57  0.0000000  0 10G03G06G07G10G13G16G19G28G23G08
   1214398.12948    941001.60545  21137474.6954                   21137472.7974
   4117382.61747   3195396.61744  22923612.8914                   22923611.9494
  -7547191.38348  -5876133.00846  21660470.0784                   21660467.8484
   -806473.63347   -631707.27044  23859186.9454                   23859187.2344
  -3341821.35947  -2600878.51646  19909092.1644                   19909089.6334
   8626042.78547   6693599.69143  23647802.0554                   23647799.6914
  -6615411.66448  -5145334.65246  20848678.9844                   20848674.9694
  -3341701.39146  -2597916.25043  24228265.0394                   24228265.3794
   3339360.66048   2591251.00046  20694380.2274                   20694376.3674
  -6737073.28947  -5244396.77044  23601168.4224                   23601168.6254
 11  7 28 17 57 30.0000000  0 10G03G06G07G10G13G16G19G28G23G08
   1285342.61748    996283.00845  21150974.8204                   21150972.9654
   4206938.73447   3265180.59044  22940655.3054                   22940654.2664
  -7586401.23448  -5906686.11746  21653008.5394                   21653006.2704
   -761612.42646   -596750.53144  23867723.3524                   23867724.2814
  -3314043.21548  -2579233.21946  19914378.0004                   19914375.9964
   8732710.72747   6776717.51644  23668099.8984                   23668098.5084
  -6618370.50448  -5147640.23046  20848115.5944                   20848111.8524
  -3396273.46146  -2640439.88343  24217880.2584                   24217881.0664
   3425471.50448   2658350.31646  20710766.4064                   20710762.5314
  -6791844.83647  -5287075.83244  23590745.7424                   23590746.0824
 11  7 28 17 58  0.0000000  0 10G03G06G07G10G13G16G19G28G23G08
   1356782.44548   1051950.37945  21164569.1804                   21164567.9384
   4296834.05947   3335228.85544  22957761.6644                   22957761.4494
  -7625592.18748  -5937224.51645  21645551.1414                   21645548.6054
   -716402.56246   -561522.10944  23876326.2274                   23876327.3404
  -3285720.30948  -2557163.43746  19919768.1804                   19919765.4344
   8839303.35947   6859776.68044  23688384.2584                   23688382.3874
  -6620775.36748  -5149514.13346  20847658.2894                   20847654.1764
  -3450682.09446  -2682836.14143  24207526.8204                   24207526.7814
   3512008.48848   2725781.69146  20727233.9924                   20727230.1884
  -6846720.36347  -5329835.92244  23580303.9924                   23580303.2544
 11  7 28 17 58 30.0000000  0 10G03G06G07G10G13G16G19G28G23G08
   1428719.61348   1108005.29345  21178258.4144                   21178257.0274
   4387070.57047   3405542.98044  22974933.3364                   22974932.6374
  -7664759.00047  -5967744.07845  21638097.4304                   21638095.7234
   -670841.64546   -526020.16044  23884996.6484                   23884997.7344
  -3256848.02347  -2534665.56646  19925262.0474                   19925260.0394
   8945823.70346   6942779.46944  23708654.6094                   23708653.0164
  -6622620.94148  -5150952.23046  20847306.9694                   20847303.1954
  -3504923.00847  -2725101.73443  24197205.4614                   24197205.5744
   3598974.18048   2793547.11746  20743783.0394                   20743779.6024
  -6901695.17647  -5372673.36744  23569841.7504                   23569842.5514
 11  7 28 17 59  0.0000000  0 10G03G06G07G10G13G16G19G28G23G08
   1501154.93448   1164448.39145  21192042.6334                   21192041.4494
   4477648.58646   3476123.23844  22992170.0164                   22992168.7624
  -7703898.05948  -5998242.03145  21630649.9064                   21630647.3714
   -624929.26246   -490244.32044  23893733.1484                   23893734.7774
  -3227423.45748  -2511737.35546  19930861.6414                   19930859.1764
   9052272.88346   7025726.82444  23728910.8914                   23728910.3634
  -6623903.69548  -5151951.76246  20847063.0394                   20847058.9964
  -3558993.16047  -2767234.21943  24186915.4844                   24186916.4454
   3686369.28548   2861647.14846  20760413.8754                   20760410.4184
  -6956766.64547  -5415586.12944  23559362.2274                   23559362.9344
 11  7 28 17 59 30.0000000  0 10G03G06G07G10G13G16G19G28G23G08
   1574082.57448   1221275.10245  21205920.2504                   21205918.6954
   4568561.81347   3546964.68844  23009469.2894                   23009468.4184
  -7743012.43447  -6028720.75045  21623206.3134                   21623204.1294
   -578671.38346   -454199.27044  23902535.8204                   23902536.9454
  -3197450.48048  -2488381.80546  19936565.2194                   19936562.8484
   9158645.46546   7108614.52343  23749152.5784                   23749152.2734
  -6624626.45347  -5152514.94546  20846925.1564                   20846921.4924
  -3612896.36347  -2809236.60943  24176658.6174                   24176659.0554
   3774187.95348   2930077.23446  20777125.2974                   20777121.7704
  -7011938.09447  -5458576.82844  23548862.8054                   23548863.4224
 11  7 28 18  0  0.0000000  0 10G03G06G07G10G13G16G19G28G23G08
   1647499.39547   1278483.01245  21219890.7424                   21219889.0394
   4659807.15246   3618064.91844  23026832.9774                   23026831.9104
  -7782101.81648  -6059180.00045  21615767.9144                   21615765.6054
   -532070.69146   -417887.10244  23911404.0084                   23911404.8364
  -3166929.81648  -2464599.49247  19942373.1564                   19942370.3874
   9264939.21946   7191440.72743  23769379.5084                   23769378.8714
  -6624789.25848  -5152641.79346  20846894.1804                   20846890.4734
  -3666633.08647  -2851109.27043  24166433.0634                   24166433.1914
   3862427.19148   2998835.02746  20793916.3914                   20793912.9414
  -7067210.54747  -5501646.23044  23538345.5554                   23538345.1644
 11  7 28 18  0 30.0000000  0 10G03G06G07G10G13G16G19G28G23G08
   1721415.14847   1336079.68845  21233956.5474                   21233954.5784
   4751394.48046   3689431.64144  23044261.6174                   23044261.0514
  -7821152.98848  -6089609.47346  21608336.6254                   21608334.8204
   -485117.22746   -381300.03144  23920339.2584                   23920340.5824
  -3135849.41848  -2440381.00846  19948287.6174                   19948285.1374
   9371165.05146   7274214.02743  23789594.3284                   23789592.4694
  -6624378.93748  -5152322.05146  20846972.6724                   20846968.8444
  -3720191.01246  -2892842.60943  24156239.9064                   24156240.8364
   3951097.37148   3067928.62946  20810790.1414                   20810786.3364
  -7122571.18047  -5544784.31244  23527811.4224                   23527810.1024
 11  7 28 18  1  0.0000000  0 10G03G06G07G10G13G16G19G28G23G08
   1795825.88747   1394062.06345  21248116.3914                   21248114.8054
   4843318.97746   3761061.06344  23061754.8284                   23061754.5944
  -7860167.35548  -6120010.25846  21600912.6724                   21600910.7234
   -437815.87546   -344441.89843  23929340.1414                   23929340.9844
  -3104211.17647  -2415727.85246  19954308.2424                   19954305.4184
   9477318.94146   7356931.26643  23809794.5004                   23809792.9224
  -6623397.14848  -5151557.01246  20847159.0864                   20847155.5594
  -3773571.97746  -2934438.03943  24146081.7194                   24146083.0204
   4040194.07448   3137354.58646  20827744.9304                   20827741.3284
  -7178021.86747  -5587992.60944  23517258.5474                   23517258.4454
 11  7 28 18  1 30.0000000  0 10G03G06G07G10G13G16G19G28G23G08
   1870731.20347   1452429.82845  21262370.8984                   21262369.0164
   4935580.42247   3832953.05944  23079311.1254                   23079310.2034
  -7899141.80148  -6150379.95346  21593495.7034                   21593493.9964
   -390166.61347   -307312.64544  23938408.1564                   23938408.1214
  -3072012.94948  -2390638.33646  19960435.2734                   19960432.8054
   9583401.89546   7439593.22344  23829981.4144                   23829980.3834
  -6621840.71148  -5150344.19146  20847455.4384                   20847451.5784
  -3826773.57446  -2975893.71143  24135957.3984                   24135958.9024
   4129717.43448   3207112.99646  20844780.3594                   20844776.9774
  -7233560.71947  -5631269.56244  23506689.4224                   23506689.7234
 11  7 28 18  2  0.0000000  0 10G03G06G07G10G13G16G19G28G23G08
   1946134.55947   1511185.67645  21276719.6954                   21276718.1484
   5028182.03546   3905110.11744  23096932.7114                   23096932.1604
  -7938069.54348  -6180713.23446  21586087.8914                   21586085.9774
   -342165.97746   -269909.58243  23947541.1484                   23947542.5474
  -3039249.49648  -2365108.39546  19966669.9614                   19966667.6564
   9689418.07446   7522203.16443  23850155.8674                   23850153.7624
  -6619703.89848  -5148679.11346  20847861.6414                   20847857.8244
  -3879790.49646  -3017205.38743  24125868.8054                   24125869.7584
   4219670.87548   3277206.53146  20861897.9534                   20861894.5664
  -7289181.34046  -5674610.24644  23496105.2274                   23496105.9104
 11  7 28 18  2 30.0000000  0 10G03G06G07G10G13G16G19G28G23G08
   2022040.16847   1570332.89145  21291163.4304                   21291162.7624
   5121127.80946   3977535.35244  23114620.5704                   23114619.2854
  -7976943.31248  -6211004.46946  21578690.6174                   21578688.5274
   -293809.45746   -232229.21543  23956743.6564                   23956744.6644
  -3005914.29748  -2339132.92246  19973013.4614                   19973011.0434
   9795372.27046   7604764.83643  23870318.2034                   23870316.7734
  -6616979.11348  -5146555.89846  20848380.3444                   20848376.5824
  -3932616.00447  -3058367.93043  24115816.4774                   24115817.0124
   4310058.92648   3347638.72746  20879098.1884                   20879094.7074
  -7344877.10546  -5718009.46144  23485506.4224                   23485506.6564
 11  7 28 18  3  0.0000000  0 11G03G06G07G10G13G16G19G28G23G08G11
   2098439.18047   1629864.56345  21305701.5864                   21305700.8054
   5214408.96147   4050221.94944  23132371.1484                   23132370.6054
  -8015768.43448  -6241257.79746  21571302.6884                   21571299.9414
   -245105.86746   -194278.43043  23966012.0474                   23966011.8134
  -2972013.81248  -2312716.97346  19979464.2974                   19979462.1914
   9901257.00046   7687272.37144  23890466.9224                   23890466.5004
  -6613672.02048  -5143978.93046  20849009.6724                   20849006.0594
  -3985256.42647  -3099386.28144  24105800.0004                   24105800.6214
   4400872.99248   3418402.88346  20896379.3834                   20896376.1844
  -7400654.29346  -5761472.11744  23474892.0554                   23474892.2114
  -3243752.08656  -2526658.43753  24283515.1884                   24283517.1884
 11  7 28 18  3 30.0000000  0 11G03G06G07G10G13G16G19G28G23G08G11
   2175338.46947   1689786.06645  21320335.3204                   21320334.0474
   5308032.18047   4123175.07044  23150187.1724                   23150186.1054
  -8054534.86348  -6271465.38746  21563925.1174                   21563923.1604
   -196048.48846   -156051.95343  23975346.2424                   23975347.2854
  -2937538.85247  -2285853.37946  19986025.0004                   19986022.4614
  10007080.06646   7769731.80543  23910604.8444                   23910604.0084
  -6609772.86748  -5140940.61346  20849751.8984                   20849748.2934
  -4037702.17647  -3140252.94144  24095819.6094                   24095819.6174
   4492120.04748   3489504.41846  20913743.2034                   20913739.6294
  -7456503.05946  -5804990.60244  23464264.6484                   23464264.7194
  -3307261.51246  -2576146.19943  24271430.8134                   24271431.7424
 11  7 28 18  4  0.0000000  0 11G03G06G07G10G13G16G19G28G23G08G11
   2252727.78947   1750089.40645  21335062.1334                   21335061.0434
   5401987.07846   4196386.66844  23168065.0944                   23168064.3754
  -8093249.33648  -6301632.49646  21556558.7034                   21556556.6054
   -146647.38746   -117557.66043  23984747.6804                   23984748.0824
  -2902497.69548  -2258548.59846  19992693.1564                   19992690.5514
  10112832.06646   7852135.87543  23930728.7034                   23930726.9414
  -6605288.98848  -5137446.67246  20850604.5784                   20850601.4924
  -4089961.03146  -3180973.94943  24085874.8284                   24085874.9144
   4583789.94148   3560935.46146  20931187.5164                   20931184.2344
  -7512431.38346  -5848571.05144  23453622.1564                   23453621.8834
  -3370880.70346  -2625719.52343  24259323.3524                   24259324.5634
 11  7 28 18  4 30.0000000  0 11G03G06G07G10G13G16G19G28G23G08G11
   2330602.94947   1810771.32445  21349881.4144                   21349880.1914
   5496268.97747   4269853.04744  23186006.7424                   23186005.6454
  -8131913.11748  -6331760.09846  21549200.6254                   21549198.9144
    -96906.80946    -78798.82843  23994213.1804                   23994213.6604
  -2866892.78148  -2230804.52346  19999468.4224                   19999465.9694
  10218509.70346   7934482.04343  23950839.4224                   23950836.6764
  -6600222.02348  -5133498.37146  20851569.1484                   20851565.4804
  -4142035.54747  -3221551.40643  24075964.7584                   24075964.8444
   4675878.41448   3632692.64846  20948711.4844                   20948708.0274
  -7568440.84446  -5892214.72744  23442964.3284                   23442963.3714
  -3434609.70746  -2675378.36743  24247196.4304                   24247197.8164
 11  7 28 18  5  0.0000000  0 11G03G06G07G10G13G16G19G28G23G08G11
   2408961.95347   1871830.25845  21364792.1884                   21364791.6484
   5590875.92647   4343572.71544  23204010.0164                   23204009.2974
  -8170524.76248  -6361847.08246  21541853.6024                   21541851.2154
    -46828.94946    -39777.19143  24003742.0634                   24003742.4414
  -2830723.85248  -2202620.95746  20006350.9454                   20006348.5824
  10324111.62946   8016769.19543  23970934.0634                   23970931.6174
  -6594570.98848  -5129094.94546  20852644.6094                   20852641.3634
  -4193925.05947  -3261984.71143  24066091.2894                   24066090.3054
   4768383.73448   3704774.66446  20966314.4844                   20966311.3014
  -7624530.48946  -5935920.89743  23432290.3914                   23432289.5514
  -3498445.11746  -2725120.16043  24235047.6884                   24235050.6134
 11  7 28 18  5 30.0000000  0 11G03G06G07G10G13G16G19G28G23G08G11
   2487812.80947   1933272.44945  21379797.0704                   21379796.5744
   5685815.64546   4417551.68444  23222076.3594                   23222076.2504
  -8209073.14848  -6391884.76646  21534517.5004                   21534515.9964
      3593.95746      -486.65643  24013337.4384                   24013339.1094
  -2793980.84048  -2173990.05546  20013343.2974                   20013340.6524
  10429647.09046   8099004.53943  23991017.2344                   23991015.0744
  -6588325.00047  -5124227.93746  20853832.7194                   20853829.5004
  -4245619.04746  -3302265.65643  24056253.8914                   24056253.8984
   4861313.82848   3777187.67646  20983998.7664                   20983995.2114
  -7680690.10246  -5979681.60943  23421603.1884                   23421602.2154
  -3562374.33646  -2774935.02043  24222883.2974                   24222884.5314
 11  7 28 18  6  0.0000000  0 11G03G06G07G10G13G16G19G28G23G08G11
   2567148.77047   1995092.64845  21394894.2504                   21394893.4144
   5781081.94147   4491785.12144  23240205.5084                   23240205.9344
  -8247560.77748  -6421875.10946  21527193.7814                   21527191.9774
     54355.95346     39068.07443  24022997.1254                   24022998.2934
  -2756668.00448  -2144915.13746  20020443.4774                   20020441.1094
  10535110.72746   8181183.94143  24011086.1484                   24011084.1954
  -6581487.35948  -5118899.88746  20855133.7974                   20855130.6294
  -4297121.19946  -3342397.10943  24046453.5394                   24046453.6724
   4954662.82848   3849927.10246  21001762.8754                   21001759.4344
  -7736922.88346  -6023499.31244  23410902.4694                   23410901.2034
  -3626398.35946  -2824823.77743  24210699.8134                   24210700.4774
 11  7 28 18  6 30.0000000  0 11G03G06G07G10G13G16G19G28G23G08G11
   2646977.20347   2057296.60945  21410085.0234                   21410084.3244
   5876681.43047   4566278.18844  23258397.2584                   23258397.4144
  -8285977.32848  -6451810.07046  21519883.6174                   21519881.2154
    105463.90646     78892.39843  24032723.1334                   24032723.9924
  -2718775.81648  -2115388.77347  20027654.1174                   20027651.6884
  10640510.54746   8263313.63743  24031142.2974                   24031141.1884
  -6574048.65247  -5113103.47346  20856549.4224                   20856545.9534
  -4348422.42246  -3382372.02743  24036691.1414                   24036691.7894
   5048437.34048   3922998.09046  21019607.4384                   21019604.2584
  -7793219.55546  -6067366.79344  23400189.9844                   23400188.8204
  -3690505.73846  -2874777.52543  24198500.9614                   24198501.0164
 11  7 28 18  7  0.0000000  0 11G03G06G07G10G13G16G19G28G23G08G11
   2727291.14147   2119878.87945  21425368.7814                   21425367.2384
   5972607.19147   4641025.50044  23276651.3204                   23276650.9964
  -8324326.09448  -6481692.21146  21512586.0634                   21512584.1724
    156911.03146    118981.00443  24042513.3524                   24042512.8014
  -2680309.50448  -2085415.03946  20034973.7974                   20034971.7894
  10745840.78946   8345389.12143  24051186.7584                   24051185.3594
  -6566012.75448  -5106841.71546  20858078.6334                   20858075.2974
  -4399527.06646  -3422193.76243  24026965.1954                   24026966.6644
   5142631.07048   3996395.75446  21037531.9454                   21037528.5904
  -7849583.53147  -6111286.72344  23389463.4844                   23389463.3054
  -3754698.52746  -2924797.78543  24186285.4844                   24186286.1214
 11  7 28 18  7 30.0000000  0 11G03G06G07G10G13G16G19G28G23G08G11
   2808087.37147   2182836.97345  21440743.3834                   21440742.1054
   6068856.20347   4716024.69144  23294966.9534                   23294966.4734
  -8362606.62948  -6511521.18046  21505301.3914                   21505299.3444
    208694.32846    159331.56643  24052367.2734                   24052368.5594
  -2641269.94148  -2054994.61746  20042402.9224                   20042400.5124
  10851099.58647   8427408.87943  24071217.0314                   24071215.3134
  -6557379.79347  -5100114.72746  20859721.2114                   20859717.7584
  -4450435.53547  -3461862.65643  24017278.4534                   24017278.3554
   5237241.14148   4070117.82846  21055535.7814                   21055532.3594
  -7906015.58247  -6155259.68744  23378725.1254                   23378724.6804
  -3818974.75847  -2974883.10943  24174054.0164                   24174054.3444
 11  7 28 18  8  0.0000000  0 11G03G06G07G10G13G16G19G28G23G08G11
   2889357.32447   2246164.18845  21456208.5864                   21456208.3164
   6165419.80947   4791269.03944  23313342.0784                   23313342.0704
  -8400823.97348  -6541300.91846  21498028.8594                   21498026.4304
    260805.21946    199937.41843  24062283.7034                   24062284.4454
  -2601663.94148  -2024132.82046  20049939.5394                   20049937.5784
  10956279.52347   8509367.20744  24091232.5864                   24091230.1134
  -6548155.41448  -5092926.88746  20861476.3834                   20861473.1414
  -4501154.01246  -3501383.50443  24007626.6644                   24007627.1374
   5332258.94948   4144157.61746  21073617.1174                   21073613.2344
  -7962521.39847  -6199290.14844  23367973.1954                   23367972.5164
  -3883337.77046  -3025036.00843  24161805.9304                   24161807.6294
 11  7 28 18  8 30.0000000  0 11G03G06G07G10G13G16G19G28G23G08G11
   2971098.06347   2309858.25445  21471762.7274                   21471762.4614
   6262294.49247   4866755.78944  23331777.1644                   23331776.4574
  -8438978.14548  -6571031.42246  21490768.2424                   21490766.4304
    313240.64546    240796.12543  24072261.2584                   24072262.0704
  -2561492.02748  -1992830.05546  20057584.2734                   20057581.7974
  11061378.51246   8591262.43443  24111232.7194                   24111230.7734
  -6538340.14547  -5085278.60546  20863344.0634                   20863340.8594
  -4551683.24246  -3540756.89143  23998011.1804                   23998011.5784
   5427681.55548   4218512.83246  21091775.3364                   21091771.5084
  -8019101.35947  -6243378.37944  23357206.0864                   23357205.2624
  -3947785.67646  -3075255.09043  24149542.2504                   24149542.1604
 11  7 28 18  9  0.0000000  0 11G03G06G07G10G13G16G19G28G23G08G11
   3053310.01247   2373919.48045  21487407.8984                   21487407.0634
   6359481.11347   4942485.56644  23350271.1024                   23350270.6024
  -8477064.91048  -6600709.39546  21483520.3204                   21483518.6334
    366001.35546    281908.28943  24082301.6414                   24082302.4654
  -2520751.82048  -1961084.45346  20065336.5864                   20065334.0594
  11166398.30146   8673095.96544  24131216.7584                   24131214.8834
  -6527930.76647  -5077167.39146  20865324.9064                   20865321.6764
  -4602020.15246  -3579980.40243  23988432.3984                   23988431.7304
   5523509.44148   4293183.85546  21110010.7974                   21110007.4224
  -8075752.09047  -6287521.75444  23346425.6644                   23346424.8284
  -4012312.89847  -3125536.03543  24137262.7974                   24137262.6644
 11  7 28 18  9 30.0000000  0 11G03G06G07G10G13G16G19G28G23G08G11
   3135993.53147   2438348.17645  21503141.4844                   21503140.7194
   6456980.24247   5018458.88344  23368824.7894                   23368824.0234
  -8515079.46548  -6630331.10946  21476286.6954                   21476284.6994
    419087.77046    323274.27743  24092404.2274                   24092404.3094
  -2479440.78548  -1928894.06246  20073197.9844                   20073195.8834
  11271341.12546   8754869.54743  24151186.7424                   24151185.3674
  -6516923.60548  -5068590.37546  20867419.5944                   20867416.2424
  -4652161.74646  -3619051.74643  23978891.0864                   23978891.3134
   5619743.89548   4368171.68446  21128323.5634                   21128320.2154
  -8132469.69547  -6331717.24644  23335632.7584                   23335631.9844
  -4076913.84047  -3175874.37543  24124970.1484                   24124969.9774
 11  7 28 18 10  0.0000000  0 11G03G06G07G10G13G16G19G28G23G08G11
   3219137.07447   2503135.31345  21518963.6254                   21518962.7424
   6554779.81647   5094666.32044  23387435.4144                   23387435.0784
  -8553030.32047  -6659903.18746  21469064.5944                   21469062.3874
    472488.09046    364884.84843  24102564.8364                   24102567.1024
  -2437568.66448  -1896266.44946  20081166.1954                   20081163.7074
  11376196.25846   8836574.76243  24171139.9614                   24171138.6724
  -6505327.89147  -5059554.74646  20869626.2034                   20869623.0084
  -4702117.14546  -3657977.98843  23969384.6884                   23969385.2194
   5716372.82048   4443466.88346  21146711.7274                   21146708.1134
  -8189263.00047  -6375971.70344  23324825.1024                   23324824.2704
  -4141595.37947  -3226275.50443  24112662.3754                   24112661.8594
 11  7 28 18 10 30.0000000  0 11G03G06G07G10G13G16G19G28G23G08G11
   3302746.41047   2568285.41445  21534873.6954                   21534873.4654
   6652885.73847   5171112.44144  23406104.5314                   23406104.3364
  -8590908.21548  -6689418.42246  21461857.3284                   21461854.6134
    526208.31646    406744.67243  24112788.5164                   24112788.3404
  -2395127.37948  -1863195.34446  20089242.3674                   20089240.0704
  11480970.55946   8918217.00843  24191077.8674                   24191076.3164
  -6493134.91848  -5050053.73046  20871946.7194                   20871943.3054
  -4751878.24646  -3696752.84843  23959914.9694                   23959915.5664
   5813402.29348   4519074.20746  21165175.8054                   21165172.1024
  -8246123.50847  -6420278.55544  23314004.9844                   23314004.2974
  -4206346.46546  -3276730.82443  24100339.6484                   24100340.4774
 11  7 28 18 11  0.0000000  0 11G03G06G07G10G13G16G19G28G23G08G11
   3386809.17247   2633788.84445  21550870.3444                   21550870.1294
   6751285.65247   5247787.63344  23424828.6564                   23424829.5354
  -8628721.81248  -6718883.53546  21454661.3984                   21454659.7504
    580236.07846    448844.14543  24123069.6954                   24123069.8164
  -2352127.51248  -1829688.97347  20097425.3364                   20097422.3674
  11585653.18446   8999787.82443  24210997.8524                   24210997.2114
  -6480354.54347  -5040094.98846  20874378.6094                   20874375.3834
  -4801454.78146  -3735383.89143  23950480.4844                   23950480.8634
   5910820.33248   4594984.30946  21183713.8594                   21183710.4304
  -8303060.25847  -6464644.82844  23303170.3914                   23303168.9884
  -4271174.33646  -3327245.97343  24088002.6334                   24088003.2624
 11  7 28 18 11 30.0000000  0 11G03G06G07G10G13G16G19G28G23G08G11
   3471311.54347   2699634.80545  21566951.1024                   21566950.4534
   6849965.72347   5324681.12544  23443607.2194                   23443607.1214
  -8666480.95348  -6748306.22746  21447475.5704                   21447473.5904
    634557.89146    491172.79743  24133406.8054                   24133407.1604
  -2308580.86748  -1795756.54346  20105711.5084                   20105709.3014
  11690231.74646   9081277.52343  24230898.2664                   24230898.1684
  -6466997.71948  -5029687.07046  20876920.7274                   20876916.8054
  -4850857.78146  -3773879.70343  23941079.4924                   23941080.3594
   6008613.11348   4671186.41046  21202322.9224                   21202320.0664
  -8360084.21947  -6509079.05544  23292318.5864                   23292318.5084
  -4336087.49646  -3377827.56643  24075649.4304                   24075650.8364
 11  7 28 18 12  0.0000000  0 11G03G06G07G10G13G16G19G28G23G08G11
   3556254.91047   2765824.41845  21583115.6024                   21583114.4454
   6948927.09847   5401793.84044  23462439.2194                   23462438.5664
  -8704181.04748  -6777682.90646  21440302.0944                   21440299.5234
    689174.75446    533731.32843  24143800.2814                   24143799.7624
  -2264484.50048  -1761395.75846  20114103.0314                   20114100.6804
  11794708.43445   9162687.91043  24250778.8204                   24250779.1524
  -6453060.70747  -5018827.06246  20879573.0234                   20879568.7894
  -4900083.83246  -3812237.62143  23931712.9384                   23931712.0824
   6106781.92648   4747681.52746  21221004.3364                   21221001.2544
  -8417191.48447  -6553578.17644  23281451.2424                   23281450.8954
  -4401079.96146  -3428470.94943  24063282.7894                   24063283.5554
 11  7 28 18 12 30.0000000  0 11G03G06G07G10G13G16G19G28G23G08G11
   3641632.98447   2832352.78145  21599362.1954                   21599360.6374
   7048163.96947   5479121.22744  23481323.4534                   23481322.7304
  -8741824.10248  -6807015.13346  21433138.4454                   21433136.1644
    744080.94547    576515.31643  24154248.8674                   24154248.6954
  -2219842.00448  -1726609.41846  20122598.1334                   20122595.4574
  11899078.84046   9244015.42243  24270640.1644                   24270639.7074
  -6438546.50847  -5007517.29346  20882334.6334                   20882330.8244
  -4949136.47346  -3850460.38343  23922378.8134                   23922377.7274
   6205321.05948   4824465.19546  21239755.7344                   21239752.3984
  -8474384.67247  -6598144.23444  23270568.0234                   23270567.2074
  -4466152.15246  -3479176.44943  24050900.0944                   24050900.2854
 11  7 28 18 13  0.0000000  0 11G03G06G07G10G13G16G19G28G23G08G11
   3727448.41447   2899221.93045  21615692.2734                   21615690.9024
   7147678.82846   5556665.22744  23500260.0004                   23500260.5784
  -8779403.82448  -6836298.01246  21425987.4064                   21425984.9924
    799278.87146    619526.62543  24164752.5084                   24164753.1844
  -2174649.22348  -1691394.28946  20131198.2584                   20131195.7774
  12003347.19146   9325263.39143  24290482.4924                   24290481.5084
  -6423450.04347  -4995753.80546  20885207.4844                   20885203.8094
  -4998010.45346  -3888543.93043  23913078.1644                   23913077.9384
   6304233.12548   4901539.47746  21258577.6484                   21258574.5904
  -8531658.37547  -6642773.04344  23259669.4144                   23259668.1914
  -4531296.23846  -3529938.01643  24038503.3054                   24038504.6644
 11  7 28 18 13 30.0000000  0 11G03G06G07G10G13G16G19G28G23G08G11
   3813700.49647   2966431.33245  21632105.7274                   21632103.9264
   7247471.32846   5634425.53944  23519249.7194                   23519250.7704
  -8816916.99248  -6865529.04346  21418849.0164                   21418846.3524
    854768.07447    662764.91043  24175311.7664                   24175311.2934
  -2128904.50848  -1655749.08246  20139902.8754                   20139900.6994
  12107514.15246   9406432.37143  24310304.9144                   24310304.3674
  -6407769.02348  -4983534.81646  20888191.4534                   20888187.5664
  -5046703.72746  -3926486.64144  23903812.2584                   23903811.6094
   6403517.73848   4978904.03546  21277471.2034                   21277467.9614
  -8589009.74647  -6687462.36344  23248755.0234                   23248754.6484
  -4596507.78546  -3580752.17243  24026094.1804                   24026094.4264
 11  7 28 18 14  0.0000000  0 11G03G06G07G10G13G16G19G28G23G08G11
   3900384.69947   3033977.44145  21648601.2664                   21648599.5784
   7347536.55546   5712398.37144  23538291.6174                   23538292.7154
  -8854364.65248  -6894709.02046  21411722.6334                   21411720.6844
    910544.00847    706226.59843  24185925.9614                   24185924.5514
  -2082610.84848  -1619676.11746  20148712.2344                   20148710.5634
  12211576.39546   9487519.70343  24330108.1884                   24330106.7664
  -6391505.87148  -4970862.22746  20891286.6414                   20891282.2664
  -5095218.63746  -3964290.36343  23894579.2424                   23894579.8284
   6503170.40248   5056555.40646  21296434.7034                   21296431.2854
  -8646440.43747  -6732213.50844  23237826.6954                   23237825.8054
  -4661786.18447  -3631618.42243  24013671.7274                   24013672.0784
 11  7 28 18 14 30.0000000  0 11G03G06G07G10G13G16G19G28G23G08G11
   3987501.19547   3101860.41045  21665178.7114                   21665177.4024
   7447874.81646   5790583.98444  23557385.0164                   23557385.1294
  -8891742.70348  -6923834.75446  21404609.9774                   21404607.7234
    966606.84847    749911.93843  24196593.8444                   24196593.6174
  -2035765.78948  -1583173.50446  20157626.6414                   20157624.5234
  12315535.59046   9568526.82443  24349890.5004                   24349889.3324
  -6374657.53147  -4957733.62146  20894491.4224                   20894488.4184
  -5143552.39846  -4001952.93443  23885382.3984                   23885381.9344
   6603191.47348   5134493.83646  21315468.3444                   21315465.0704
  -8703947.09047  -6777023.83644  23226883.0084                   23226882.8284
  -4727125.93446  -3682532.46543  24001237.3364                   24001238.5744
 11  7 28 18 15  0.0000000  0 11G03G06G07G10G13G16G19G28G23G08G11
   4075050.88747   3170080.92245  21681838.4454                   21681838.3244
   7548486.75047   5868982.84444  23576531.4924                   23576531.0314
  -8929046.55948  -6952902.67646  21397511.3524                   21397509.0784
   1022957.37547    793821.35243  24207317.2034                   24207317.9304
  -1988367.01248  -1546239.41846  20166646.8204                   20166644.1254
  12419394.07446   9649455.43443  24369654.5634                   24369654.0704
  -6357220.84047  -4944146.59446  20897809.9454                   20897806.2814
  -5191702.07046  -4039472.04743  23876218.9384                   23876219.7234
   6703581.76248   5212719.96546  21334571.8284                   21334568.6844
  -8761526.21947  -6821890.63744  23215926.7424                   23215926.5864
  -4792521.00046  -3733489.52343  23988793.0944                   23988794.6884
 11  7 28 18 15 30.0000000  0 11G03G06G07G10G13G16G19G28G23G08G11
   4163030.79347   3238636.64145  21698580.7274                   21698580.4454
   7649369.66447   5947592.89144  23595728.3444                   23595728.3634
  -8966275.45748  -6981912.18746  21390426.4454                   21390424.5864
   1079592.87146    837952.80543  24218093.9224                   24218093.2464
  -1940415.88748  -1508874.92646  20175771.2504                   20175769.2814
  12523150.43046   9730304.50443  24389398.7734                   24389398.9964
  -6339196.12948  -4930101.35246  20901240.4144                   20901236.0204
  -5239667.98446  -4076847.94543  23867091.2814                   23867091.0474
   6804338.40648   5291231.57046  21353744.9694                   21353741.9384
  -8819176.80947  -6866813.12544  23204956.3284                   23204955.4414
  -4857969.12947  -3784488.03143  23976339.1884                   23976339.4454
 11  7 28 18 16  0.0000000  0 11G03G06G07G10G13G16G19G28G23G08G11
   4251438.94547   3307526.08245  21715404.3524                   21715403.5164
   7750521.69546   6026412.61743  23614978.5004                   23614977.0394
  -9003427.00848  -7010861.43746  21383356.9224                   21383354.9654
   1136511.44547    882304.91443  24228925.2274                   24228926.0204
  -1891912.14548  -1471079.82846  20185001.2734                   20184998.8594
  12626804.09446   9811073.53143  24409123.9144                   24409122.1994
  -6320582.89547  -4915597.52746  20904782.5864                   20904778.3164
  -5287449.24646  -4114079.99644  23857999.4924                   23857998.3444
   6905459.48448   5370027.14546  21372987.5394                   21372984.3324
  -8876898.03947  -6911790.68044  23193971.5704                   23193971.3054
  -4923466.94147  -3835525.26243  23963875.8524                   23963874.9144
 11  7 28 18 16 30.0000000  0 11G03G06G07G10G13G16G19G28G23G08G11
   4340274.75847   3376748.74645  21732309.6174                   21732308.1054
   7851942.63346   6105441.88744  23634276.8134                   23634276.8094
  -9040498.11348  -7039747.99246  21376302.5784                   21376300.5704
   1193712.93846    926877.41443  24239811.3834                   24239811.2664
  -1842854.19148  -1432852.87946  20194336.6484                   20194334.1604
  12730356.54746   9891763.68843  24428829.4454                   24428827.6844
  -6301378.57048  -4900633.10546  20908436.8204                   20908432.3524
  -5335043.79346  -4151166.52743  23848941.7274                   23848941.6804
   7006945.07848   5449106.75845  21392299.8524                   21392296.7624
  -8934686.82847  -6956820.87544  23182974.6644                   23182974.1524
  -4989009.24647  -3886597.12543  23951402.8054                   23951401.7344
 11  7 28 18 17  0.0000000  0 11G03G06G07G10G13G16G19G28G23G08G11
   4429549.12147   3446313.14845  21749298.2194                   21749296.6954
   7953642.95346   6184688.84044  23653630.2274                   23653630.8594
  -9077473.98848  -7068560.34846  21369266.1254                   21369263.9144
   1251207.91846    971678.65243  24250752.0084                   24250753.1024
  -1793229.83248  -1394184.57046  20203779.7274                   20203777.7774
  12833819.77346   9972384.32843  24448518.2194                   24448515.7304
  -6281570.43048  -4885198.17646  20912206.2584                   20912201.8364
  -5382438.37546  -4188097.24643  23839923.1564                   23839923.2894
   7108805.95348   5528478.80145  21411683.7344                   21411680.7384
  -8992529.53547  -7001893.08644  23171968.2344                   23171967.4224
  -5054580.29746  -3937691.41843  23938925.0084                   23938924.9304
 11  7 28 18 17 30.0000000  0 11G03G06G07G10G13G16G19G28G23G08G11
   4519250.68447   3516210.43445  21766367.6724                   21766366.1884
   8055611.72346   6264144.98044  23673034.5234                   23673034.4024
  -9114362.06648  -7097304.28946  21362246.5864                   21362244.3794
   1308985.45746   1016700.02343  24261747.3594                   24261746.6604
  -1743048.42248  -1355082.19546  20213329.3594                   20213326.6844
  12937184.53146  10052928.21143  24468187.6024                   24468185.6954
  -6261166.88348  -4869299.28946  20916089.2504                   20916084.7234
  -5429642.14846  -4224879.28944  23830940.8674                   23830940.2664
   7211031.32047   5608134.85546  21431136.4774                   21431133.5944
  -9050434.05147  -7047013.44544  23160948.7424                   23160947.7894
  -5120185.31646  -3988812.17243  23926440.1024                   23926440.5634
 11  7 28 18 18  0.0000000  0 11G03G06G07G10G13G16G19G28G23G08G11
   4609385.29747   3586445.16445  21783519.5944                   21783518.3204
   8157855.08246   6343815.09444  23692490.2894                   23692491.0084
  -9151152.25847  -7125971.94546  21355245.6024                   21355243.6174
   1367051.54346   1061946.27743  24272796.4454                   24272796.2704
  -1692301.97748  -1315539.54346  20222985.8834                   20222983.7154
  13040457.98046  10133400.96543  24487838.7974                   24487837.9024
  -6240159.53148  -4852929.91446  20920087.0704                   20920082.1804
  -5476646.02747  -4261505.60944  23821996.0084                   23821994.9654
   7313626.66447   5688079.21145  21450659.3914                   21450656.4924
  -9108391.02347  -7092174.68444  23149919.8364                   23149919.1914
  -5185813.50846  -4039950.96943  23913951.3754                   23913952.1564
 11  7 28 18 18 30.0000000  0 11G03G06G07G10G13G16G19G28G23G08G11
   4699942.56647   3657009.23045  21800752.1094                   21800750.9804
   8260361.93046   6423690.50044  23711997.3284                   23711997.8054
  -9187851.56247  -7154568.79346  21348262.3204                   21348259.7664
   1425395.21946   1107408.78543  24283899.2584                   24283900.3094
  -1640999.76248  -1275563.82046  20232748.3674                   20232746.1954
  13143631.02746  10213795.45343  24507472.6644                   24507471.7774
  -6218557.00048  -4836096.76246  20924197.9454                   20924193.1054
  -5523458.46146  -4297982.77043  23813087.0634                   23813087.6684
   7416581.68848   5768303.83646  21470250.9224                   21470248.4344
  -9166408.08647  -7137382.75844  23138880.0864                   23138878.4654
  -5251470.41846  -4091112.11343  23901457.1884                   23901458.2854
 11  7 28 18 19  0.0000000  0 11G03G06G07G10G13G16G19G28G23G08G11
   4790928.55547   3727907.36345  21818065.9304                   21818064.7584
   8363139.27046   6503776.68044  23731555.6094                   23731555.1374
  -9224449.28547  -7183086.50046  21341298.1094                   21341295.5514
   1484023.04346   1153092.73843  24295055.6954                   24295055.8054
  -1589133.50448  -1235148.58246  20242618.2114                   20242616.1414
  13246711.94946  10294118.19943  24527087.0704                   24527088.5004
  -6196349.95348  -4818792.55546  20928423.2504                   20928418.8014
  -5570070.72646  -4334303.91543  23804217.3134                   23804217.0314
   7519902.84848   5848813.75046  21489912.8054                   21489910.0234
  -9224475.20347  -7182629.83244  23127829.7664                   23127829.0704
  -5317143.73046  -4142286.03943  23888959.9844                   23888960.6214
 11  7 28 18 19 30.0000000  0 11G03G06G07G10G13G16G19G28G23G08G11
   4882333.45347   3799131.91845  21835459.9454                   21835458.8444
   8466177.30147   6584066.01644  23751163.2504                   23751162.8134
  -9260951.24647  -7211529.56646  21334351.7974                   21334349.9574
   1542925.50046   1198990.69943  24306264.4924                   24306265.5274
  -1536710.77748  -1194299.74246  20252594.1254                   20252591.5984
  13349692.68446  10374362.89843  24546684.2194                   24546684.8444
  -6173545.85948  -4801023.12546  20932762.8754                   20932758.6994
  -5616489.73046  -4370474.51643  23795383.6174                   23795383.5314
   7623580.57448   5929601.52345  21509641.9774                   21509639.0944
  -9282598.87147  -7227920.98044  23116769.2894                   23116768.3674
  -5382837.68446  -4193476.02743  23876458.8674                   23876459.7664
 11  7 28 18 20  0.0000000  0 10G03G06G07G10G13G19G28G23G08G11
   4974159.99247   3870685.02745  21852934.1094                   21852932.7194
   8569478.38747   6664560.30144  23770821.0234                   23770819.6884
  -9297351.34447  -7239893.26246  21327425.0704                   21327422.8484
   1602104.91846   1245104.46543  24317525.5784                   24317526.6374
  -1483728.15248  -1153014.60946  20262676.3524                   20262673.9964
  -6150139.85548  -4782784.68446  20937216.7114                   20937212.5354
  -5662710.84446  -4406490.87144  23786588.4694                   23786588.6884
   7727617.19147   6010668.93446  21529439.5084                   21529437.2664
  -9340773.41847  -7273251.76644  23105698.7344                   23105698.6254
  -5448544.86346  -4244676.31243  23863955.5394                   23863956.4454
 11  7 28 18 20 30.0000000  0 10G03G06G07G10G13G19G28G23G08G11
   5066407.59447   3942566.25045  21870488.2814                   21870486.5864
   8673042.58647   6745259.65644  23790528.3674                   23790527.7584
  -9333645.44547  -7268174.35246  21320518.2584                   21320516.6764
   1661561.16446   1291433.98443  24328839.8754                   24328841.8834
  -1430183.96548  -1111291.88746  20272865.3834                   20272863.0704
  -6126130.02048  -4764075.70346  20941785.7114                   20941781.8284
  -5708731.68746  -4442351.20743  23777831.0554                   23777830.4534
   7832012.86347   6092016.14845  21549305.0314                   21549302.5704
  -9398995.45747  -7318619.54344  23094620.2424                   23094619.4494
  -5514259.72446  -4295882.56843  23851449.2424                   23851452.0664
 11  7 28 18 21  0.0000000  0 10G03G06G07G10G13G19G28G23G08G11
   5159072.91447   4014772.97345  21888122.1884                   21888120.8094
   8776866.58247   6826161.43844  23810285.8364                   23810284.2894
  -9369833.04747  -7296372.45346  21313631.8754                   21313630.1844
   1721291.02046   1337976.65243  24340206.1334                   24340207.2774
  -1376079.77348  -1069132.80946  20283161.1094                   20283159.0514
  -6101517.53148  -4744897.14146  20946469.1954                   20946465.1134
  -5754553.13347  -4478056.17643  23769111.3754                   23769111.2934
   7936763.87147   6173640.23445  21569239.2274                   21569236.0514
  -9457265.65247  -7364024.86744  23083531.4384                   23083530.6954
  -5579980.35546  -4347093.34843  23838944.5234                   23838944.9224
 11  7 28 18 21 30.0000000  0 10G03G06G07G10G13G19G28G23G08G11
   5252164.07447   4087311.52045  21905836.7584                   21905835.0084
   8880958.90247   6907272.28944  23830093.6094                   23830092.7934
  -9405901.73447  -7324477.89546  21306768.5004                   21306766.1454
   1781302.85546   1384739.10543  24351625.2424                   24351626.7584
  -1321405.67648  -1026529.64146  20293565.0084                   20293563.1884
  -6076291.61347  -4725240.57446  20951269.4774                   20951265.4344
  -5800164.53546  -4513597.42243  23760431.3594                   23760430.8954
   8041879.29347   6255548.28545  21589241.9224                   21589239.4534
  -9515571.57447  -7409458.00444  23072436.4844                   23072435.6484
  -5645692.73846  -4398297.69544  23826440.3754                   23826440.7074
 11  7 28 18 22  0.0000000  0 10G03G06G07G10G13G19G28G23G08G11
   5345672.31647   4160175.05145  21923631.1724                   21923629.5944
   8985310.54346   6988585.19944  23849951.4924                   23849950.5084
  -9441856.49247  -7352494.56646  21299926.5164                   21299924.0634
   1841587.55146   1431714.10243  24363097.5864                   24363098.7274
  -1266169.00448   -983488.10246  20304076.3364                   20304074.8364
  -6050458.89148  -4705111.17646  20956185.1884                   20956181.3164
  -5845571.90646  -4548979.71944  23751790.9454                   23751791.3954
   8147349.96547   6337733.15245  21609312.1024                   21609309.9384
  -9573918.71947  -7454923.27344  23061333.3204                   23061331.6844
  -5711400.62146  -4449498.54344  23813936.0784                   23813937.1604
 11  7 28 18 22 30.0000000  0 10G03G06G07G10G13G19G28G23G08G11
   5439598.13747   4233363.96545  21941504.3134                   21941502.8094
   9089922.21146   7070100.73844  23869857.8444                   23869857.4144
  -9477692.60947  -7380418.79746  21293106.9534                   21293104.5904
   1902145.97746   1478902.42243  24374621.4144                   24374623.1024
  -1210367.51648   -940006.44946  20314695.0864                   20314692.8524
  -6024016.52348  -4684506.73046  20961217.2114                   20961213.0394
  -5890772.38746  -4584200.80144  23743189.3834                   23743189.4414
   8253176.37148   6420195.21945  21629450.7504                   21629447.3874
  -9632303.46147  -7500417.84444  23050222.9224                   23050221.9494
  -5777097.75447  -4500690.98044  23801434.5234                   23801434.9264
 11  7 28 18 23  0.0000000  0 10G03G06G07G10G13G19G28G23G08G11
   5533929.29747   4306868.73445  21959455.1954                   21959453.5744
   9194782.14546   7151809.69943  23889811.5084                   23889810.5904
  -9513417.90247  -7408256.66046  21286309.0084                   21286306.5274
   1962966.41046   1526294.92643  24386195.7114                   24386197.0354
  -1154011.43448   -896092.64846  20325419.1414                   20325417.4614
  -5996974.16448  -4663434.75446  20966363.0554                   20966359.5594
  -5935775.80146  -4619268.28144  23734625.0634                   23734625.4574
   8359346.66847   6502925.24645  21649654.1484                   21649651.4534
  -9690734.27347  -7545948.31244  23039103.6254                   23039102.6334
  -5842790.65247  -4551880.16044  23788933.2114                   23788933.3954
 11  7 28 18 23 30.0000000  0 10G03G06G07G10G13G19G28G23G08G11
   5628669.40247   4380692.16845  21977483.0634                   21977482.3674
   9299893.97346   7233714.97743  23909813.8364                   23909813.4454
  -9549024.67648  -7436002.18746  21279533.0234                   21279530.8984
   2024051.72346   1573893.80543  24397820.2274                   24397821.6174
  -1097096.14148   -851743.09046  20336249.9774                   20336247.7894
  -5969326.03948  -4641890.75846  20971624.1564                   20971620.2704
  -5980575.53946  -4654177.07444  23726100.3204                   23726101.0234
   8465864.60548   6585926.17645  21669923.7814                   21669921.4494
  -9749203.97347  -7591509.08245  23027976.8984                   23027976.4344
  -5908470.25847  -4603058.94544  23776434.9924                   23776434.7424
 11  7 28 18 24  0.0000000  0 10G03G06G07G10G13G19G28G23G08G11
   5723801.09447   4454820.73045  21995586.0084                   21995585.1254
   9405240.56346   7315803.16044  23929860.5474                   23929860.4304
  -9584526.45348  -7463665.88746  21272777.3834                   21272775.1604
   2085384.96146   1621685.89143  24409490.3364                   24409492.1374
  -1039637.10948   -806969.85246  20347183.8914                   20347182.3484
  -5941087.32448  -4619886.56246  20976997.7504                   20976994.0044
  -6025186.88746  -4688939.06644  23717610.7734                   23717611.1374
   8572712.85248   6669184.46145  21690256.6094                   21690253.6524
  -9807726.90247  -7637111.34045  23016840.4614                   23016839.4964
  -5974148.23047  -4654236.51244  23763936.9614                   23763936.2704
 11  7 28 18 24 30.0000000  0 10G03G06G07G10G13G19G28G23G08G11
   5819323.69947   4529253.89845  22013762.9144                   22013762.5554
   9510821.51646   7398073.96144  23949952.6174                   23949952.0474
  -9619919.18748  -7491244.61346  21266042.1644                   21266040.4454
   2146965.66846   1669670.76243  24421208.8984                   24421210.6564
   -981633.27747   -761772.08246  20358221.5944                   20358219.6134
  -5912256.27347  -4597420.80546  20982484.1954                   20982480.4024
  -6069607.68046  -4723552.54344  23709158.3754                   23709157.4574
   8679891.01248   6752699.84445  21710651.8364                   21710649.3484
  -9866299.48847  -7682752.27045  23005694.9144                   23005694.3244
  -6039819.38747  -4705408.74244  23751439.8984                   23751439.3054
 11  7 28 18 25  0.0000000  0 10G03G06G07G10G13G19G28G23G08G11
   5915229.77047   4603985.87944  22032013.5864                   22032012.2114
   9616629.43846   7480521.64544  23970086.8134                   23970086.4734
  -9655206.56648  -7518741.26646  21259327.0474                   21259325.0704
   2208786.38346   1717842.71143  24432973.5314                   24432974.8674
   -923090.79348   -716154.59046  20369362.0394                   20369360.1644
  -5882838.58648  -4574497.92646  20988082.2034                   20988078.3754
  -6113843.09447  -4758021.62144  23700740.4384                   23700740.0664
   8787391.44147   6836466.33645  21731108.5004                   21731105.6294
  -9924925.94947  -7728435.19945  22994538.6094                   22994538.3984
  -6105486.16046  -4756577.57043  23738943.3204                   23738943.3524
 11  7 28 18 25 30.0000000  0 10G03G06G07G10G13G19G28G23G08G11
   6011514.90247   4679013.24244  22050335.8914                   22050334.2814
   9722660.20746   7563142.96944  23990264.0234                   23990263.3134
  -9690388.62548  -7546155.84046  21252632.5704                   21252630.2034
   2270843.07846   1766198.51643  24444782.7424                   24444784.5944
   -864012.46948   -670119.55546  20380604.3594                   20380602.8204
  -5852835.96548  -4551119.26246  20993791.4534                   20993788.0944
  -6157894.98446  -4792347.64544  23692357.5704                   23692356.4264
   8895209.92648   6920480.67245  21751625.9144                   21751622.7344
  -9983607.09847  -7774160.73445  22983371.4774                   22983371.1414
  -6171147.23846  -4807741.94943  23726447.8754                   23726448.4844
 11  7 28 18 26  0.0000000  0 10G03G06G07G10G13G19G28G23G08G11
   6108179.86347   4754336.56644  22068730.8204                   22068729.5704
   9828914.63346   7645938.57844  24010483.8524                   24010483.3834
  -9725460.47748  -7573484.54746  21245958.4614                   21245956.0274
   2333136.37546   1814738.70743  24456636.4844                   24456637.9574
   -804395.89548   -623665.10546  20391949.0234                   20391946.8914
  -5822245.79748  -4527282.76246  20999612.5474                   20999609.0664
  -6201759.98447  -4826528.07444  23684010.5704                   23684009.3914
   9003347.54747   7004743.67645  21772203.3984                   21772201.0274
 -10042338.47747  -7819925.42645  22972195.6884                   22972194.5904
  -6236795.92246  -4858896.72343  23713956.2974                   23713956.4454
 11  7 28 18 26 30.0000000  0 10G03G06G07G10G13G19G28G23G08G11
   6205217.16847   4829950.02745  22087196.5634                   22087196.0084
   9935385.74246   7728903.02044  24030743.8914                   24030744.8674
  -9760425.03148  -7600729.64146  21239304.8914                   21239302.6484
   2395658.80946   1863457.40643  24468534.8754                   24468535.0864
   -744247.07447   -576795.92646  20403394.8284                   20403392.9614
  -5791073.29747  -4502992.50846  21005544.5164                   21005541.1484
  -6245442.75447  -4860566.48844  23675697.7734                   23675696.8914
   9111797.02748   7089249.68045  21792841.1024                   21792838.2304
 -10101123.80547  -7865732.13745  22961009.0784                   22961008.2704
  -6302434.05046  -4910043.23142  23701464.7344                   23701465.2854
 11  7 28 18 27  0.0000000  0 10G03G06G07G10G13G19G28G23G08G11
   6302629.51647   4905855.72345  22105733.2814                   22105732.5314
  10042076.02046   7812038.24243  24051045.9224                   24051047.9024
  -9795275.84048  -7627886.10546  21232672.7034                   21232670.3134
   2458412.99246   1912356.69943  24480475.6564                   24480478.4144
   -683562.03548   -529508.90246  20414943.0554                   20414941.1294
  -5759313.91047  -4478244.93046  21011587.8524                   21011584.8164
  -6288938.77047  -4894459.35544  23667420.4614                   23667420.0514
   9220560.94948   7174000.71545  21813538.0784                   21813535.3794
 -10159957.30547  -7911576.39845  22949813.6174                   22949812.1644
  -6368053.51246  -4961175.21942  23688977.7344                   23688975.9804
 11  7 28 18 27 30.0000000  0 10G03G06G07G10G13G19G28G23G08G11
   6400418.49647   4982054.90644  22124342.1724                   22124340.7704
  10148987.69546   7895346.00443  24071391.4694                   24071390.7584
  -9830006.99648  -7654949.33646  21226064.0784                   21226061.6954
   2521401.34846   1961438.48043  24492462.5784                   24492463.6994
   -622337.37148   -481801.39846  20426593.6414                   20426591.8134
  -5726963.64548  -4453036.93446  21017743.7034                   21017740.7854
  -6332243.38347  -4928203.10944  23659179.1334                   23659178.5864
   9329641.13348   7258998.18045  21834295.7424                   21834292.8404
 -10218833.27347  -7957453.75045  22938609.4304                   22938608.4304
  -6433646.71146  -5012286.71943  23676496.0634                   23676494.6094
 11  7 28 18 28  0.0000000  0 10G03G06G07G10G13G19G28G23G08G11
   6498579.96547   5058544.33244  22143021.8524                   22143020.3954
  10256116.83646   7978823.22743  24091777.3054                   24091777.6174
  -9864617.85248  -7681918.82046  21219477.3754                   21219475.4064
   2584619.52046   2010699.31643  24504492.0164                   24504494.5084
   -560575.73448   -433675.47346  20438346.5314                   20438344.5704
  -5694024.46547  -4427370.05146  21024012.2194                   21024008.4614
  -6375358.28546  -4961799.01244  23650974.7974                   23650973.4494
   9439033.62548   7344238.99645  21855111.9064                   21855109.9414
 -10277752.04747  -8003364.45745  22927397.8524                   22927396.7584
  -6499212.10547  -5063376.57443  23664019.5164                   23664018.8094
 11  7 28 18 28 30.0000000  0 10G03G06G07G10G13G19G28G23G08G11
   6597114.88347   5135324.76244  22161772.5084                   22161771.1564
  10363464.55946   8062470.72743  24112204.7424                   24112205.1844
  -9899103.39548  -7708790.65646  21212915.2504                   21212913.2074
   2648068.45346   2060140.00443  24516566.2344                   24516569.6484
   -498275.15248   -385129.58646  20450201.9694                   20450200.0234
  -5660493.47348  -4401241.99246  21030393.1804                   21030389.7274
  -6418280.18047  -4995244.55544  23642807.1414                   23642807.1524
   9548739.22347   7429723.79745  21875988.4614                   21875985.8484
 -10336708.85947  -8049304.80945  22916178.9304                   22916178.1254
  -6564743.30146  -5114439.76643  23651548.9614                   23651549.3794
 11  7 28 18 29  0.0000000  0 10G03G06G07G10G13G19G28G23G08G11
   6696015.55147   5212390.19944  22180592.7894                   22180591.0434
  10471023.64846   8146282.95343  24132673.4614                   24132673.0164
  -9933466.82048  -7735567.34846  21206376.0234                   21206373.4024
   2711740.81346   2109754.72343  24528683.3834                   24528684.9414
   -435441.34448   -336168.20346  20462158.9064                   20462156.6294
  -5626375.94147  -4374656.88746  21036885.2344                   21036881.4804
  -6461013.96947  -5028543.52044  23634675.5164                   23634674.7854
   9658750.67248   7515446.93445  21896923.1564                   21896920.4414
 -10395707.71547  -8095277.90645  22904951.3834                   22904951.0634
  -6630241.82047  -5165477.46543  23639085.1724                   23639085.6764
 11  7 28 18 29 30.0000000  0 10G03G06G07G10G13G19G28G23G08G11
   6795288.75047   5289745.90244  22199483.8134                   22199482.1684
  10578800.84846   8230265.19543  24153182.1884                   24153182.0164
  -9967697.27348  -7762240.41846  21199862.2584                   21199859.6024
   2775643.20746   2159548.71543  24540843.9774                   24540845.8324
   -372066.30148   -286785.08246  20474218.5234                   20474216.7234
  -5591663.64847  -4347608.34846  21043490.6334                   21043487.2034
  -6503550.44547  -5061688.75044  23626580.5394                   23626579.8594
   9769074.50448   7601413.46545  21917917.2734                   21917914.0164
 -10454738.42647  -8141275.82045  22893717.5474                   22893717.4614
  -6695695.30547  -5216480.09444  23626629.6334                   23626629.4574
 11  7 28 18 30  0.0000000  0 10G03G06G07G10G13G19G28G23G08G11
   6894931.03547   5367389.22344  22218444.5234                   22218443.6214
  10686793.44147   8314415.23843  24173732.4694                   24173732.4844
 -10001793.53148  -7788808.91846  21193373.7274                   21193371.6094
   2839772.42246   2209519.45743  24553047.0944                   24553049.1844
   -308151.83248   -236981.62946  20486381.1644                   20486378.8204
  -5556357.60247  -4320097.12546  21050209.2894                   21050205.6024
  -6545890.35547  -5094680.83244  23618523.1024                   23618522.7624
   9879707.91448   7687621.25445  21938970.0394                   21938967.6484
 -10513800.66847  -8187298.30545  22882478.7814                   22882478.2774
  -6761101.34047  -5267445.76644  23614183.9774                   23614182.7074
 11  7 28 18 30 30.0000000  0 10G03G06G07G10G13G19G28G23G08G11
   6994932.29747   5445312.23044  22237474.8984                   22237473.2274
  10794991.21946   8398725.16043  24194321.1954                   24194321.4184
 -10035761.48848  -7815277.44546  21186909.9694                   21186907.7424
   2904118.39546   2259659.10543  24565291.1644                   24565293.7814
   -243706.95348   -186764.87146  20498644.6174                   20498642.4344
  -5520466.04347  -4292129.68446  21057039.3444                   21057036.1684
  -6588041.35947  -5127525.67644  23610502.2664                   23610502.0354
   9990640.64848   7774062.25445  21960080.4144                   21960077.1414
 -10572900.62147  -8233350.18745  22871232.3594                   22871231.4804
  -6826464.33647  -5318377.87144  23601745.1094                   23601745.3914
 11  7 28 18 31  0.0000000  0 10G03G06G07G10G13G19G28G23G08G11
   7095293.59047   5523515.80944  22256572.5944                   22256572.0004
  10903395.48446   8483195.95343  24214950.6804                   24214950.9924
 -10069595.72348  -7841641.77346  21180471.5314                   21180469.6684
   2968682.17246   2309968.46943  24577577.8284                   24577580.1484
   -178729.31248   -136132.97746  20511009.3284                   20511007.7704
  -5483986.10248  -4263703.75846  21063981.2894                   21063977.8984
  -6630000.46546  -5160221.00443  23602517.1644                   23602516.6954
  10101873.66848   7860737.24645  21981246.8834                   21981243.9064
 -10632033.56647  -8279427.78544  22859980.5784                   22859978.5984
  -6891777.69947  -5369271.32444  23589316.1174                   23589316.3484
 11  7 28 18 31 30.0000000  0 10G03G06G07G10G13G19G28G23G08G11
   7196011.31347   5601997.12544  22275738.2114                   22275736.8284
  11012003.00046   8567825.14143  24235618.1884                   24235618.1484
 -10103295.38748  -7867901.23846  21174058.6724                   21174056.5354
   3033460.50846   2360445.01243  24589904.5474                   24589906.4494
   -113220.74648    -85087.36346  20523475.7814                   20523473.6334
  -5446919.16447  -4234820.42246  21071034.7664                   21071031.7664
  -6671768.16847  -5192767.22343  23594569.0784                   23594568.5274
  10213403.62548   7947643.63345  22002470.3754                   22002467.7974
 -10691198.97347  -8325530.67245  22848721.5474                   22848720.3244
  -6957039.11747  -5420124.24244  23576897.4384                   23576897.3794
 11  7 28 18 32  0.0000000  0 10G03G06G07G10G13G19G28G23G08G11
   7297082.64847   5680753.97344  22294971.8524                   22294970.4884
  11120811.31646   8652610.78543  24256323.4144                   24256323.7774
 -10136859.18748  -7894054.84446  21167671.5704                   21167669.7154
   3098450.39146   2411086.39843  24602271.9774                   24602273.4494
    -47183.12148    -33629.51246  20536041.9064                   20536040.1094
  -5409266.65248  -4205480.80946  21078200.0704                   21078196.6024
  -6713344.81247  -5225164.55144  23586658.2814                   23586656.2274
  10325227.45748   8034779.00445  22023749.7114                   22023746.8594
 -10750396.17647  -8371658.35245  22837456.2734                   22837454.8284
  -7022245.71947  -5470934.49644  23564489.3364                   23564488.7274
 11  7 28 18 32 30.0000000  0 10G03G06G07G10G13G19G28G23G08G11
   7398504.30547   5759783.79744  22314271.3834                   22314270.3754
  11229817.48046   8737550.64143  24277066.1884                   24277066.3834
 -10170285.90648  -7920101.63346  21161310.2734                   21161308.4384
   3163648.92646   2461890.37143  24614679.3444                   24614680.9384
     19381.63348     18239.09846  20548709.1564                   20548706.9884
  -5371029.53147  -4175685.65246  21085476.0394                   21085472.8404
  -6754731.56247  -5257413.89144  23578781.7664                   23578780.5514
  10437342.55548   8122141.34845  22045084.8754                   22045082.2424
 -10809624.37947  -8417810.16845  22826185.5314                   22826184.2734
  -7087394.92247  -5521699.99644  23552091.0474                   23552092.1174
 11  7 28 18 33  0.0000000  0 10G03G06G07G10G13G19G28G23G08G11
   7500278.69547   5839088.47344  22333638.9144                   22333637.6884
  11339024.27746   8822646.75443  24297847.9614                   24297848.2734
 -10203568.14548  -7946035.83646  21154977.3674                   21154975.1374
   3229058.57046   2512858.82443  24627125.3984                   24627127.4804
     86477.38748     70521.47346  20561476.7504                   20561475.0984
  -5332203.37947  -4145431.50846  21092864.5864                   21092861.2974
  -6795923.12147  -5289511.16444  23570943.5084                   23570942.3284
  10549751.19948   8209732.41845  22066475.6644                   22066472.9184
 -10868877.23447  -8463981.18745  22814909.4614                   22814909.5594
  -7152478.24646  -5572414.14544  23539705.7504                   23539706.9414
 11  7 28 18 33 30.0000000  0 10G03G06G07G10G13G19G28G23G08G11
   7602403.46147   5918666.15644  22353072.6724                   22353071.2424
  11448428.96546   8907897.08643  24318666.0634                   24318667.5864
 -10236704.91448  -7971856.68046  21148671.5634                   21148669.5744
   3294676.45346   2563989.52343  24639612.0784                   24639614.1804
    154102.34048    123216.21146  20574345.5164                   20574343.5124
  -5292789.44948  -4114719.35946  21100364.8134                   21100361.4344
  -6836919.99647  -5321456.69144  23563141.7114                   23563141.4384
  10662450.66047   8297550.09445  22087921.1254                   22087919.5594
 -10928153.73847  -8510170.62945  22803629.7894                   22803629.2544
  -7217493.05946  -5623074.94143  23527333.7344                   23527334.5824
 11  7 28 18 34  0.0000000  0  9G03G06G07G13G19G28G23G08G11
   7704883.22747   5998520.49244  22372573.9844                   22372572.4534
  11558037.20346   8993306.00843  24339525.8754                   24339525.9144
 -10269686.43448  -7997556.55546  21142395.2814                   21142393.2194
    222262.87148    176328.28146  20587316.0634                   20587313.8634
  -5252780.69548  -4083543.70746  21107978.3134                   21107974.5904
  -6877714.39547  -5353244.49244  23555379.4384                   23555378.6484
  10775446.04348   8385598.35945  22109424.1414                   22109421.5984
 -10987445.17247  -8556371.74245  22792347.8054                   22792346.5274
  -7282428.14146  -5673673.61743  23514976.4224                   23514976.2274
 11  7 28 18 34 30.0000000  0  9G03G06G07G13G19G28G23G08G11
   7807718.89847   6078652.13344  22392143.0474                   22392141.9064
  11667849.87946   9078874.26243  24360421.6644                   24360421.7934
 -10302507.50848  -8023131.40246  21136149.9614                   21136147.6174
    290961.12148    229859.35246  20600388.7584                   20600387.4024
  -5212174.43447  -4051902.46946  21115705.7664                   21115701.8874
  -6918302.94147  -5384871.87144  23547655.3834                   23547654.4574
  10888738.30548   8473877.95345  22130982.5234                   22130979.6954
 -11046746.82848  -8602580.79345  22781062.6174                   22781061.6294
  -7347277.15246  -5724205.23843  23502636.6094                   23502635.6174
 11  7 28 18 35  0.0000000  0  9G03G06G07G13G19G28G23G08G11
   7910908.84047   6159059.84844  22411779.3204                   22411778.7034
  11777866.14546   9164601.18043  24381357.5084                   24381356.8134
 -10335165.11748  -8048578.89546  21129935.0864                   21129933.0984
    360197.26648    283809.57046  20613563.9694                   20613562.1294
  -5170970.22748  -4019795.29346  21123546.4064                   21123542.8364
  -6958685.07447  -5416338.40244  23539971.6254                   23539969.7194
  11002326.22347   8562387.94145  22152597.7894                   22152595.5704
 -11106056.28147  -8648795.93745  22769776.5634                   22769775.6804
  -7412035.26247  -5774666.03143  23490314.1254                   23490313.4884
 11  7 28 18 35 30.0000000  0  9G03G06G07G13G19G28G23G08G11
   8014462.29747   6239750.79744  22431485.5394                   22431484.6254
  11888095.21547   9250493.96543  24402333.5634                   24402332.0784
 -10367645.63748  -8073888.37546  21123754.3054                   21123752.0314
    429981.45748    338186.82046  20626843.5784                   20626841.8484
  -5129157.59448  -3987214.02046  21131502.8134                   21131498.9924
  -6998849.09847  -5447634.97344  23532327.3134                   23532327.0984
  11116218.78947   8651135.31645  22174270.8134                   22174268.7464
 -11165360.07848  -8695006.64545  22758491.3444                   22758490.7624
  -7476687.78147  -5825044.56643  23478011.2114                   23478010.6954
 11  7 28 18 36  0.0000000  0  9G03G06G07G13G19G28G23G08G11
   8118376.68447   6320723.00844  22451259.3204                   22451257.5704
  11998534.67247   9336550.63743  24423349.1724                   24423349.3554
 -10399947.23048  -8099058.43446  21117607.8524                   21117605.5514
    500311.54748    392989.45746  20640226.9144                   20640224.8914
  -5086737.22348  -3954159.18446  21139575.1884                   21139571.4694
  -7038795.14147  -5478761.69544  23524726.1254                   23524725.2774
  11230413.25847   8740117.93045  22196001.6724                   22195998.9964
 -11224657.13347  -8741212.11745  22747206.8364                   22747205.6484
  -7541231.73447  -5875338.49243  23465728.6254                   23465728.2774
 11  7 28 18 36 30.0000000  0  9G03G06G07G13G19G28G23G08G11
   8222640.23847   6401967.30144  22471099.9064                   22471097.7114
  12109173.30947   9422762.49644  24444403.5554                   24444404.4774
 -10432077.29348  -8124094.84046  21111493.6954                   21111491.1484
    571177.22748    448209.43846  20653712.1484                   20653710.3054
  -5043719.27048  -3920638.70346  21147761.6174                   21147757.2194
  -7078532.36347  -5509725.68744  23517164.8754                   23517163.2504
  11344898.10547   8829326.80945  22217787.2194                   22217784.8164
 -11283955.43047  -8787418.53545  22735922.7734                   22735922.8014
  -7605672.78547  -5925552.22743  23453465.9064                   23453465.0004
 11  7 28 18 37  0.0000000  0  9G03G06G07G13G19G28G23G08G11
   8327247.99647   6483479.82444  22491005.9694                   22491004.0704
  12220006.77347   9509126.18844  24465494.5234                   24465494.9224
 -10464035.98048  -8148997.70346  21105411.9534                   21105410.0234
    642575.18448    503844.17646  20667298.9694                   20667297.0474
  -5000106.64547  -3886654.84046  21156060.9384                   21156056.7464
  -7118063.00847  -5540528.70744  23509642.0704                   23509640.9924
  11459668.78547   8918758.41845  22239627.5474                   22239625.1684
 -11343255.75047  -8833626.56645  22724638.4774                   22724637.6214
  -7670010.05147  -5975685.10544  23441222.7734                   23441221.5904
 11  7 28 18 37 30.0000000  0  9G03G06G07G13G19G28G23G08G11
   8432196.40247   6565257.77044  22510977.5704                   22510975.6764
  12331031.81647   9595639.14843  24486622.0864                   24486622.2074
 -10495822.16448  -8173766.15246  21099363.2424                   21099361.0434
    714502.91848    559891.72746  20680986.3914                   20680984.5354
  -4955901.37548  -3852209.17646  21164472.9844                   21164468.6294
  -7157388.45747  -5571171.83244  23502158.7894                   23502158.0474
  11574722.01647   9008410.19545  22261521.5944                   22261518.8244
 -11402557.55147  -8879835.74244  22713353.6644                   22713352.7894
  -7734240.73847  -6025734.94144  23429001.2734                   23428999.7774
 11  7 28 18 38  0.0000000  0  9G03G06G07G13G19G28G23G08G11
   8537484.06347   6647300.06344  22531013.0394                   22531011.4144
  12442246.98846   9682300.30143  24507785.7274                   24507784.9024
 -10527433.29748  -8198398.19546  21093347.8204                   21093345.5984
    786959.77048    616351.57446  20694774.3284                   20694772.5864
  -4911103.32048  -3817301.59846  21172997.3444                   21172993.1174
  -7196507.73847  -5601654.29744  23494714.2734                   23494713.2974
  11690055.64147   9098280.45345  22283469.1334                   22283466.7544
 -11461858.53147  -8926044.25845  22702069.2814                   22702068.4774
  -7798360.93047  -6075698.66844  23416799.0314                   23416797.7344
 11  7 28 18 38 30.0000000  0  9G03G06G07G13G19G28G23G08G11
   8643102.20347   6729599.86344  22551111.5554                   22551110.4614
  12553643.96946   9769103.07043  24528982.7894                   24528983.5314
 -10558873.60948  -8222897.12546  21087364.9694                   21087362.4064
    859938.02348    673217.71946  20708661.7894                   20708659.8794
  -4865719.65248  -3781937.71146  21181633.6254                   21181629.4694
  -7235427.34047  -5631981.17644  23487307.8594                   23487307.0474
  11805661.01247   9188362.47345  22305468.0634                   22305465.0354
 -11521163.50847  -8972255.89844  22690783.4454                   22690782.8524
  -7862373.51647  -6125578.51244  23404617.6334                   23404616.8364
 11  7 28 18 39  0.0000000  0  9G03G06G07G13G19G28G23G08G11
   8749040.08247   6812148.81644  22571270.5634                   22571269.2774
  12665212.71546   9856039.65643  24550214.1804                   24550214.7304
 -10590148.62148  -8247267.25046  21081413.1954                   21081411.4494
    933428.41048    730482.91846  20722646.7274                   20722644.7194
  -4819759.12548  -3746124.31646  21190379.4774                   21190375.5234
  -7274155.10947  -5662158.55144  23479938.2664                   23479938.0904
  11921527.99247   9278648.34045  22327516.3834                   22327514.5124
 -11580478.62547  -9018475.44145  22679496.3984                   22679495.9264
  -7926282.93747  -6175377.98444  23392455.3054                   23392454.9494
 11  7 28 18 39 30.0000000  0  9G03G06G07G13G19G28G23G08G11
   8855293.09047   6894943.30944  22591490.1334                   22591488.5984
  12776948.74247   9943106.63743  24571478.0314                   24571477.5664
 -10621258.93748  -8271509.04746  21075493.6564                   21075491.0434
   1007426.97748    788144.10546  20736728.1094                   20736725.8794
  -4773225.24648  -3709864.16846  21199234.5234                   21199230.9184
  -7312693.58247  -5692188.44944  23472604.0864                   23472604.3914
  12037651.89847   9369134.41045  22349614.5704                   22349612.2934
 -11639804.96947  -9064703.73845  22668207.1804                   22668206.1454
  -7990088.34446  -6225096.39144  23380313.4844                   23380313.9454
 11  7 28 18 40  0.0000000  0  9G03G06G07G13G19G28G23G08G11
   8961856.69147   6977979.84844  22611768.6024                   22611767.5704
  12888847.68846  10030300.59843  24592770.3204                   24592769.5354
 -10652204.70348  -8295622.62546  21069604.5394                   21069602.1374
   1081930.09448    846198.45346  20750905.6174                   20750903.6454
  -4726121.10248  -3673159.63746  21208198.5004                   21208194.0044
  -7351044.97347  -5722072.57444  23465306.0634                   23465305.8984
  12154027.96948   9459816.96545  22371760.4454                   22371757.7424
 -11699142.91447  -9110941.05144  22656915.5784                   22656914.1844
  -8053788.37547  -6274732.69544  23368191.9774                   23368191.3364
 11  7 28 18 40 30.0000000  0  9G03G06G07G13G19G28G23G08G11
   9068732.29346   7061259.48044  22632106.1024                   22632104.9064
  13000911.57046  10117623.04343  24614095.3054                   24614094.7974
 -10682979.83248  -8319603.24246  21063748.1884                   21063746.0704
   1156940.49248    904648.08246  20765179.7894                   20765177.6644
  -4678443.39148  -3636008.17246  21217271.1484                   21217267.3134
  -7389204.97347  -5751807.55944  23458045.2814                   23458044.0474
  12270657.77747   9550697.23445  22393954.2814                   22393951.7774
 -11758486.92647  -9157183.10944  22645622.6954                   22645621.9264
  -8117375.57447  -6324281.09044  23356091.5234                   23356090.8954
 11  7 28 18 41  0.0000000  0  9G03G06G07G13G19G28G23G08G11
   9175910.67647   7144775.07444  22652501.3284                   22652500.5554
  13113131.70746  10205067.23043  24635450.0554                   24635449.9414
 -10713588.69148  -8343454.28546  21057923.6414                   21057920.9304
   1232449.84048    963486.50046  20779548.6094                   20779546.9734
  -4630199.87148  -3598415.83246  21226451.4304                   21226447.1764
  -7427180.61347  -5781398.89544  23450818.4844                   23450817.5124
  12387532.35547   9641768.23845  22416194.4844                   22416192.9104
 -11817842.34447  -9203434.03944  22634327.6724                   22634327.1684
  -8180852.91447  -6373743.89144  23344012.0864                   23344011.5314
 11  7 28 18 41 30.0000000  0  9G03G06G07G13G19G28G23G08G11
   9283382.05147   7228518.96144  22672952.9534                   22672951.1724
  13225498.62146  10292625.78943  24656833.5634                   24656833.1374
 -10744036.54748  -8367179.87946  21052129.2584                   21052127.0984
   1308449.54348   1022707.01246  20794010.7034                   20794009.3524
  -4581398.77748  -3560389.00446  21235738.1024                   21235733.8484
  -7464979.28147  -5810852.34044  23443625.4534                   23443624.0904
  12504641.55147   9733022.04745  22438480.1564                   22438478.0784
 -11877214.72747  -9249698.20745  22623028.9454                   22623027.5744
  -8244224.49246  -6423124.24644  23331951.8594                   23331952.6844
 11  7 28 18 42  0.0000000  0  8G03G07G13G19G28G23G08G11
   9391136.71547   7312483.60244  22693458.5944                   22693456.9414
 -10774328.31248  -8390783.84046  21046364.8594                   21046362.9654
   1384930.89148   1082302.82846  20808564.6094                   20808563.0004
  -4532048.35548  -3521934.13346  21245129.2734                   21245125.0594
  -7502608.12547  -5840173.45744  23436464.9454                   23436463.8954
  12621976.34447   9824451.65645  22460808.0234                   22460805.3444
 -11936609.48447  -9295979.80545  22611726.9224                   22611726.0474
  -8307494.02047  -6472425.06644  23319912.8524                   23319912.9734
 11  7 28 18 42 30.0000000  0  8G03G07G13G19G28G23G08G11
   9499177.27047   7396670.99644  22714017.5704                   22714016.1994
 -10804456.87548  -8414260.63346  21040631.9924                   21040630.0554
   1461897.34048   1142276.65246  20823211.1884                   20823209.4064
  -4482144.48448  -3483048.01646  21254625.8674                   21254621.5434
  -7540062.22747  -5869358.40644  23429337.3054                   23429336.6334
  12739539.05147   9916058.85945  22483179.6174                   22483177.2974
 -11996020.09447  -9342273.75445  22600421.7974                   22600419.8284
  -8370653.08647  -6521639.85944  23307894.8444                   23307893.7384
 11  7 28 18 43  0.0000000  0  8G03G07G13G19G28G23G08G11
   9607507.16447   7481083.88344  22734631.9694                   22734630.8324
 -10834414.12548  -8437603.93046  21034931.0314                   21034928.8094
   1539353.29748   1202631.91446  20837950.5004                   20837948.7464
  -4431682.26248  -3443726.78946  21264228.1484                   21264224.2154
  -7577335.63747  -5898402.57444  23422244.8984                   23422243.5124
  12857333.43447  10007846.59445  22505595.2894                   22505593.1764
 -12055438.52747  -9388573.81645  22589114.6254                   22589113.1804
  -8433692.08247  -6570761.09844  23295898.6644                   23295897.0234
 11  7 28 18 43 30.0000000  0  8G03G07G13G19G28G23G08G11
   9716117.79347   7565715.48044  22755299.9454                   22755299.1684
 -10864204.32448  -8460817.06246  21029262.2504                   21029260.1994
   1617290.85948   1263362.44546  20852781.7424                   20852779.6764
  -4380669.01648  -3403976.21946  21273935.5784                   21273931.7974
  -7614434.77747  -5927310.92244  23415184.7274                   23415183.5314
  12975350.32847  10099807.71945  22528053.2194                   22528051.1134
 -12114869.36747  -9434883.53145  22577805.0084                   22577803.8404
  -8496613.92647  -6619791.03944  23283924.9694                   23283923.5164
 11  7 28 18 44  0.0000000  0  8G03G07G13G19G28G23G08G11
   9825012.63347   7650568.55544  22776021.7584                   22776021.2234
 -10893819.43048  -8483893.75846  21023626.8674                   21023624.6374
   1695714.50048   1324471.73446  20867704.8364                   20867703.5124
  -4329099.88348  -3363792.49646  21283748.8674                   21283744.8984
  -7651353.72347  -5956078.87544  23408159.0944                   23408158.1724
  13093593.41847  10191945.07045  22550553.9614                   22550551.5274
 -12174305.16047  -9481197.09845  22566494.8204                   22566493.7424
  -8559408.94147  -6668722.11344  23271974.9614                   23271974.5124
 11  7 28 18 44 30.0000000  0  8G03G07G13G19G28G23G08G11
   9934186.73047   7735639.23444  22796796.8984                   22796796.0004
 -10923259.93748  -8506834.41446  21018023.9144                   21018022.0514
   1774619.94548   1385956.46946  20882720.3204                   20882718.5944
  -4276978.71948  -3323178.60546  21293666.9924                   21293662.9804
  -7688095.37947  -5984708.69144  23401167.4454                   23401166.6334
  13212057.95747  10284255.00045  22573097.4774                   22573095.1954
 -12233746.84047  -9527515.26245  22555183.2114                   22555182.6884
  -8622076.48447  -6717553.87144  23260049.6804                   23260048.9344
 11  7 28 18 45  0.0000000  0  8G03G07G13G19G28G23G08G11
  10043636.01647   7820924.32844  22817624.6954                   22817623.7304
 -10952525.20748  -8529638.50846  21012455.4774                   21012453.0824
   1854004.00448   1447814.14546  20897826.6094                   20897824.8244
  -4224308.01248  -3282136.50846  21303690.0944                   21303685.7384
  -7724661.21147  -6013201.49644  23394209.3754                   23394208.4384
  13330739.75047  10376734.22345  22595682.0004                   22595679.5084
 -12293194.36747  -9573837.99245  22543870.5704                   22543869.7424
  -8684614.71547  -6766284.87144  23248149.2114                   23248147.9804
 11  7 28 18 45 30.0000000  0  8G03G07G13G19G28G23G08G11
  10153350.78947   7906416.30944  22838502.7344                   22838501.9964
 -10981620.35948  -8552310.03946  21006918.9144                   21006916.3134
   1933857.57848   1510037.67646  20913021.8754                   20913020.7934
  -4171096.46548  -3240672.97746  21313815.7894                   21313811.9614
  -7761058.58247  -6041563.03144  23387283.1174                   23387282.0004
  13449629.02347  10469375.10245  22618306.1414                   22618303.4454
 -12352653.35947  -9620169.62945  22532555.8134                   22532555.1564
  -8747027.57047  -6814918.19544  23236272.1884                   23236271.6454
 11  7 28 18 46  0.0000000  0  8G03G07G13G19G28G23G08G11
  10263328.07847   7992112.84444  22859430.4224                   22859429.9454
 -11010543.51248  -8574847.55946  21001414.4844                   21001412.2974
   2014178.78948   1572625.59046  20928307.1644                   20928305.2974
  -4117345.58248  -3198789.17246  21324043.9454                   21324040.3054
  -7797288.07447  -6069793.75444  23380389.0474                   23380388.0044
  13568722.97747  10562175.48445  22640968.4224                   22640966.3524
 -12412122.28547  -9666509.03545  22521239.3914                   22521238.2934
  -8809311.84447  -6863451.29344  23224419.0704                   23224419.5984
 11  7 28 18 46 30.0000000  0  8G03G07G13G19G28G23G08G11
  10373557.34847   8078005.73844  22880406.4614                   22880406.4344
 -11039300.64548  -8597255.69946  20995942.6484                   20995940.0904
   2094957.84448   1635570.26646  20943678.6414                   20943677.0864
  -4063064.44548  -3156492.19546  21334373.8204                   21334369.7734
  -7833358.01247  -6097900.13344  23373524.4844                   23373524.2194
  13688010.87547  10655126.98445  22663668.0394                   22663665.8524
 -12471607.71547  -9712861.30545  22509920.2584                   22509918.4804
  -8871472.04746  -6911887.71144  23212589.9454                   23212590.4144
 11  7 28 18 47  0.0000000  0  8G03G07G13G19G28G23G08G11
  10484031.28547   8164089.27044  22901428.9304                   22901428.4654
 -11067894.28948  -8619536.44946  20990501.2814                   20990499.0514
   2176188.16448   1698866.58246  20959136.3524                   20959134.2734
  -4008259.10248  -3113786.73846  21344802.5944                   21344799.1884
  -7869273.33247  -6125886.03944  23366690.5164                   23366689.1454
  13807485.59447  10748224.05545  22686403.5864                   22686401.3794
 -12531112.78147  -9759228.87545  22498596.6564                   22498594.8444
  -8933509.45747  -6960228.46544  23200784.8914                   23200785.2464
 11  7 28 18 47 30.0000000  0  8G03G07G13G19G28G23G08G11
  10594756.23447   8250368.41844  22922499.0474                   22922499.3204
 -11096313.50848  -8641681.27746  20985093.2974                   20985091.2074
   2257876.75048   1762519.98846  20974681.0944                   20974679.2114
  -3952922.19147  -3070667.07846  21355332.8444                   21355329.4304
  -7905025.38347  -6153744.71944  23359886.6024                   23359886.3484
  13927153.65647  10841471.79345  22709175.9534                   22709173.9574
 -12590626.82447  -9805603.42245  22487271.9924                   22487270.0044
  -8995411.71947  -7008463.90244  23189005.6884                   23189005.8164
 11  7 28 18 48  0.0000000  0  8G03G07G13G19G28G23G08G11
  10705733.21946   8336843.92644  22943617.3364                   22943617.2154
 -11124552.69148  -8663685.82846  20979719.6884                   20979717.4804
   2340025.48848   1826531.95346  20990313.5004                   20990312.2704
  -3897051.48048  -3027131.47746  21365964.6724                   21365961.4064
  -7940610.55547  -6181473.39144  23353114.3984                   23353113.5354
  14047015.76247  10934870.71545  22731984.8984                   22731982.5944
 -12650144.64147  -9851980.91844  22475945.3444                   22475943.8204
  -9057172.37147  -7056588.99644  23177253.6414                   23177252.8014
 11  7 28 18 48 30.0000000  0  8G03G07G13G19G28G23G08G11
  10816953.25446   8423508.85544  22964782.1174                   22964781.5704
 -11152616.18448  -8685553.47346  20974379.2344                   20974377.1844
   2422626.08648   1890896.01646  21006031.8914                   21006030.2544
  -3840654.72747  -2983185.95746  21376696.9454                   21376693.4534
  -7976035.66047  -6209077.32444  23346374.1884                   23346372.4964
  14167063.12547  11028413.99644  22754829.7894                   22754827.6374
 -12709670.74647  -9898364.86745  22464617.8054                   22464617.0234
  -9118794.20747  -7104605.93044  23165526.4534                   23165526.3164
 11  7 28 18 49  0.0000000  0  8G03G07G13G19G28G23G08G11
  10928417.74646   8510364.25044  22985992.8444                   22985992.1294
 -11180498.16048  -8707279.68446  20969073.4924                   20969071.5474
   2505680.69948   1955613.85546  21021837.0864                   21021834.9964
  -3783729.43747  -2938828.60246  21387529.4144                   21387525.6994
  -8011297.09447  -6236553.70744  23339663.9384                   23339662.4304
  14287297.15247  11122102.74244  22777709.3984                   22777707.4964
 -12769199.36747  -9944750.75845  22453289.8594                   22453288.9804
  -9180269.82447  -7152508.93444  23153828.4304                   23153828.0594
 11  7 28 18 49 30.0000000  0  8G03G07G13G19G28G23G08G11
  11040123.94947   8597408.00444  23007250.8284                   23007249.1804
 -11208196.35248  -8728862.68046  20963802.7894                   20963800.4224
   2589187.38748   2020683.95746  21037727.7664                   21037726.2814
  -3726276.81247  -2894060.33646  21398462.1564                   21398458.9104
  -8046394.67247  -6263902.40644  23332985.2894                   23332984.3444
  14407715.14547  11215934.83644  22800624.0944                   22800621.8404
 -12828729.11747  -9991137.56245  22441962.6024                   22441961.0634
  -9241595.74247  -7200295.29744  23142158.4304                   23142157.5204
 11  7 28 18 50  0.0000000  0  8G03G07G13G19G28G23G08G11
  11152071.84046   8684640.07844  23028552.8984                   23028553.0784
 -11235706.12948  -8750298.85946  20958567.7114                   20958564.9534
   2673146.28948   2086106.44146  21053704.6484                   21053703.1094
  -3668296.26248  -2848880.70346  21409495.5314                   21409491.9844
  -8081326.85247  -6291122.21544  23326337.2664                   23326336.6604
  14528316.83647  11309910.05544  22823573.5554                   22823571.3914
 -12888255.85947 -10037522.02045  22430634.5314                   22430632.9734
  -9302766.39147  -7247960.67244  23130518.0084                   23130517.2074
 11  7 28 18 50 30.0000000  0  8G03G07G13G19G28G23G08G11
  11264262.21147   8772061.09444  23049902.2274                   23049902.4454
 -11263022.42648  -8771584.28546  20953369.3364                   20953366.8634
   2757558.78548   2151882.36346  21069767.8204                   21069766.3754
  -3609786.18048  -2803288.44546  21420629.9534                   21420626.3444
  -8116091.03147  -6318211.10544  23319722.1174                   23319721.2854
  14649102.97347  11404029.02044  22846559.0704                   22846556.7074
 -12947774.48047 -10083900.12945  22419308.3204                   22419306.6454
  -9363775.33647  -7295500.02744  23118908.4064                   23118907.6024
 11  7 28 18 51  0.0000000  0  8G03G07G13G19G28G23G08G11
  11376693.54347   8859669.87144  23071297.7974                   23071297.1414
 -11290141.90248  -8792716.34446  20948208.7424                   20948206.7934
   2842424.32448   2218011.32446  21085917.1094                   21085915.4344
  -3550746.63348  -2757283.60946  21431864.5554                   21431861.0904
  -8150685.66047  -6345167.89544  23313138.2664                   23313137.7074
  14770072.05947  11498290.52744  22869578.7664                   22869576.4064
 -13007282.44547 -10130269.94945  22407984.2424                   22407983.3834
  -9424617.88747  -7342909.72744  23107329.8134                   23107329.1254
 11  7 28 18 51 30.0000000  0  8G03G07G13G19G28G23G08G11
   9913945.53147   7719866.19544  22792945.6024                   22792945.3164
 -12892484.66448 -10041295.11346  20643293.1804                   20643290.7424
   1352322.68748   1056893.11746  20802360.0704                   20802358.7544
  -5066598.39548  -3938466.81346  21143408.0784                   21143404.2814
  -9760533.44947  -7599594.68744  23006794.4844                   23006793.8834
  13315804.48447  10365094.91044  22592840.8364                   22592838.9264
 -14642200.84447 -11404232.30945  22096869.7424                   22096868.3594
 -11060713.70347  -8617789.50044  22795991.7974                   22795990.7034
 11  7 28 18 52  0.0000000  0  8G03G07G13G19G28G23G08G11
  10026844.43047   7807839.32844  22814429.8054                   22814429.2114
 -12919210.68748 -10062120.58246  20638207.7814                   20638205.3954
   1438081.90248   1123718.43446  20818679.5944                   20818677.8984
  -5006510.94548  -3891645.43446  21154842.0234                   21154838.1484
  -9794796.45347  -7626293.05544  23000274.9924                   23000273.7894
  13437125.55147  10459630.68844  22615927.4924                   22615925.3284
 -14701688.14147 -11450586.01645  22085549.7584                   22085548.2734
 -11121219.36747  -8664936.68744  22784477.6644                   22784476.7664
 11  7 28 18 52 30.0000000  0  8G03G07G13G19G28G23G08G11
  10139977.86747   7895995.19544  22835958.0164                   22835957.2894
 -12945732.30548 -10082786.77746  20633160.8594                   20633158.3914
   1524289.37948   1190893.05146  20835084.5004                   20835082.9654
  -4945897.38348  -3844414.09446  21166376.7664                   21166372.6564
  -9828889.85547  -7652859.26244  22993786.8284                   22993785.6804
  13558623.00447  10554303.89544  22639047.6804                   22639045.2074
 -14761157.94547 -11496926.09445  22074232.7034                   22074231.4534
 -11181547.28147  -8711945.39144  22772997.5314                   22772996.3324
 11  7 28 18 53  0.0000000  0  8G03G07G13G19G28G23G08G11
  10253340.94146   7984329.99644  22857530.5864                   22857530.1054
 -12972049.44548 -10103293.63746  20628152.7274                   20628150.5354
   1610940.89848   1258413.66846  20851573.6884                   20851572.2464
  -4884761.47747  -3796775.73846  21178010.3054                   21178006.5824
  -9862815.90647  -7679295.10544  22987330.8984                   22987329.0234
  13680292.12147  10649110.85944  22662200.3834                   22662199.1414
 -14820610.84047 -11543253.00045  22062919.4774                   22062918.0824
 -11241696.25047  -8758814.62544  22761551.3984                   22761550.2344
 11  7 28 18 53 30.0000000  0  8G03G07G13G19G28G23G08G11
  10366937.26647   8072846.57844  22879147.5004                   22879146.3054
 -12998154.35948 -10123635.12946  20623185.1724                   20623182.8634
   1698040.61348   1326283.53546  20868147.8444                   20868146.8634
  -4823099.14547  -3748727.17246  21189744.2504                   21189740.9184
  -9896569.06247  -7705596.21144  22980908.3444                   22980906.4884
  13802136.45747  10744054.37944  22685387.2584                   22685385.8954
 -14880039.10947 -11589560.71945  22051610.7114                   22051609.6254
 -11301656.89847  -8805537.14144  22750140.5704                   22750140.0704
 11  7 28 18 54  0.0000000  0  8G03G07G13G19G28G23G08G11
  10480760.17247   8161539.69944  22900807.2034                   22900806.4414
 -13024048.66448 -10143812.50846  20618257.7584                   20618255.1804
   1785581.93448   1394497.51246  20884806.7504                   20884805.5204
  -4760915.69948  -3700272.55546  21201577.4144                   21201573.7504
  -9930153.88347  -7731766.16044  22974517.3284                   22974515.8054
  13924149.22347  10839129.13344  22708604.8284                   22708603.3164
 -14939444.92647 -11635850.92645  22040305.7734                   22040304.9264
 -11361429.81647  -8852113.35944  22738766.8284                   22738766.4304
 11  7 28 18 54 30.0000000  0  8G03G07G13G19G28G23G08G11
  10594818.66047   8250416.37944  22922511.9534                   22922511.5944
 -13049718.68048 -10163815.10946  20613372.3984                   20613370.4454
   1873574.41848   1463063.04346  20901551.2504                   20901549.9224
  -4698201.39148  -3651404.27046  21213511.5394                   21213508.2424
  -9963559.10547  -7757796.16844  22968160.7274                   22968159.2854
  14046339.11747  10934341.89544  22731857.3364                   22731855.6524
 -14998814.77047 -11682113.12545  22029007.8134                   22029007.0474
 -11421000.41047  -8898531.92244  22727430.9304                   22727430.8204
 11  7 28 18 55  0.0000000  0  8G03G07G13G19G28G23G08G11
  10709099.09847   8339466.01644  22944258.4844                   22944259.0824
 -13075173.69948 -10183650.19146  20608528.7034                   20608526.0514
   1962005.00048   1531969.94546  20918379.1254                   20918377.6954
  -4634969.34448  -3602132.55546  21225544.4694                   21225540.7464
  -9996796.07447  -7783695.07044  22961835.6174                   22961833.9104
  14168692.65647  11029682.18444  22755141.0234                   22755138.8914
 -15058157.99647 -11728354.57045  22017715.4064                   22017714.6994
 -11480376.17647  -8944798.68045  22716132.5394                   22716131.4024
 11  7 28 18 55 30.0000000  0  8G03G07G13G19G28G23G08G11
  10823599.23847   8428686.83644  22966046.7504                   22966047.5084
 -13100411.11748 -10203315.71546  20603725.8524                   20603723.7974
   2050871.93448   1601216.85546  20935289.8364                   20935288.2114
  -4571220.52048  -3552458.16046  21237675.3134                   21237671.3014
 -10029864.93747  -7809462.98044  22955542.4614                   22955541.0944
  14291207.43847  11125148.12144  22778454.2894                   22778452.7154
 -15117472.83247 -11774573.90245  22006428.1414                   22006426.7814
 -11539553.36347  -8990910.71945  22704871.5944                   22704869.7854
 11  7 28 18 56  0.0000000  0  8G03G07G13G19G28G23G08G11
  10938312.00447   8518073.37944  22987875.6024                   22987876.2384
 -13125433.25848 -10222813.48046  20598964.6884                   20598962.5314
   2140168.53548   1670798.59446  20952282.5004                   20952280.7424
  -4506961.14848  -3502385.93846  21249903.8444                   21249899.7274
 -10062770.18047  -7835103.39144  22949280.6024                   22949279.9304
  14413876.79747  11220734.48844  22801798.2194                   22801796.6524
 -15176761.37947 -11820772.73445  21995145.7894                   21995144.4454
 -11598533.17247  -9036868.96945  22693647.8524                   22693646.3674
 11  7 28 18 56 30.0000000  0  8G03G07G13G19G28G23G08G11
  11053228.90647   8607618.97343  23009744.5864                   23009743.2734
 -13150243.87148 -10242146.42246  20594243.1094                   20594241.0554
   2229886.88748   1740708.93746  20969355.1564                   20969353.9304
  -4442198.80148  -3451921.77746  21262227.4064                   21262223.3164
 -10095518.19147  -7860621.29344  22943049.3134                   22943047.6764
  14536691.98447  11316434.50444  22825168.9144                   22825167.3524
 -15236027.68747 -11866954.25845  21983867.9224                   21983866.7934
 -11657318.17247  -9082675.39844  22682460.5164                   22682459.8094
 11  7 28 18 57  0.0000000  0  8G03G07G13G19G28G23G08G11
  11168355.27047   8697327.75444  23031651.7584                   23031651.9384
 -13174833.10248 -10261306.86346  20589564.3204                   20589561.8594
   2320032.52748   1810952.25046  20986509.4614                   20986508.0824
  -4376927.42648  -3401060.98046  21274647.7814                   21274644.3404
 -10128101.85947  -7886011.12544  22936848.7504                   22936847.2074
  14659657.95347  11412252.02044  22848569.1174                   22848566.8444
 -15295262.34847 -11913111.12145  21972595.8444                   21972594.5004
 -11715897.27747  -9128321.41845  22671313.8284                   22671312.9534
 11  7 28 18 57 30.0000000  0  8G03G07G13G19G28G23G08G11
  11283687.33247   8787196.85244  23053599.0554                   23053599.7934
 -13199199.70348 -10280293.82446  20584927.2194                   20584925.1484
   2410602.16448   1881525.93746  21003744.5554                   21003742.6764
  -4311150.07848  -3349805.92646  21287165.2194                   21287161.3914
 -10160522.50047  -7911273.91844  22930679.1564                   22930677.7344
  14782771.31347  11508184.36344  22871996.7584                   22871994.3914
 -15354464.31647 -11959242.49245  21961330.1334                   21961329.7464
 -11774268.11747  -9173805.13745  22660206.6334                   22660206.0904
 11  7 28 18 58  0.0000000  0  8G03G07G13G19G28G23G08G11
  11399232.59446   8877232.03544  23075587.4774                   23075587.6724
 -13223331.90248 -10299098.13346  20580335.2974                   20580332.9654
   2501603.69148   1952436.18046  21021061.5164                   21021059.9064
  -4244858.46948  -3298150.13746  21299779.6414                   21299776.6454
 -10192770.55547  -7936402.22744  22924542.6564                   22924541.5474
  14906039.43447  11604237.33644  22895453.7034                   22895452.0004
 -15413622.14147 -12005339.48445  21950072.6094                   21950071.6644
 -11832417.31247  -9219116.16045  22649141.4614                   22649140.2734
 11  7 28 18 58 30.0000000  0  8G03G07G13G19G28G23G08G11
  11514979.64547   8967424.48044  23097613.0164                   23097612.8284
 -13247236.32848 -10317724.94946  20575786.2274                   20575783.9614
   2593025.99648   2023674.28146  21038458.6724                   21038457.0594
  -4178063.37947  -3246102.02746  21312490.5084                   21312487.1134
 -10224855.14847  -7961403.17644  22918437.0164                   22918435.4024
  15029450.63747  11700401.74244  22918938.0474                   22918936.2774
 -15472742.43747 -12051407.22745  21938822.2894                   21938821.1684
 -11890350.55147  -9264258.88744  22638116.5084                   22638115.7704
 11  7 28 18 59  0.0000000  0  8G03G07G13G19G28G23G08G11
  11630930.30547   9057775.59444  23119678.2664                   23119677.4224
 -13270905.86747 -10336168.73846  20571281.9384                   20571279.6764
   2684871.57048   2095242.21546  21055936.1094                   21055934.5824
  -4110762.04748  -3193659.44946  21325297.5554                   21325294.2074
 -10256772.07047  -7986273.47744  22912363.8524                   22912362.5124
  15153007.05947  11796679.34844  22942450.1414                   22942448.6454
 -15531818.92647 -12097440.81645  21927580.1094                   21927579.3444
 -11948059.66847  -9309226.96944  22627134.7114                   22627133.0634
 11  7 28 18 59 30.0000000  0  8G03G07G13G19G28G23G08G11
  11747089.16447   9148288.95744  23141782.2814                   23141781.6914
 -13294332.34048 -10354423.13746  20566824.0554                   20566821.7464
   2777144.43048   2167143.09846  21073495.1884                   21073493.8444
  -4042949.43448  -3140818.45746  21338202.0864                   21338198.2114
 -10288515.26647  -8011008.39145  22906323.4844                   22906321.1134
  15276712.56347  11893073.07444  22965990.7584                   22965989.5004
 -15590843.27747 -12143433.79345  21916348.6484                   21916346.9494
 -12005534.72747  -9354012.68044  22616197.5394                   22616195.8634
 11  7 28 19  0  0.0000000  0  8G03G07G13G19G28G23G08G11
  11863452.20347   9238961.38344  23163925.6094                   23163925.6374
 -13317514.99248 -10372487.52746  20562412.7194                   20562409.8754
   2869841.13748   2239374.24646  21091134.7424                   21091133.4574
  -3974628.96948  -3087581.72746  21351203.3054                   21351198.9184
 -10320086.44547  -8035609.26245  22900314.9774                   22900314.0944
  15400563.20347  11989579.90244  22989558.4924                   22989557.5164
 -15649815.01247 -12189385.77745  21905126.8914                   21905124.4184
 -12062773.91047  -9398614.57444  22605305.0474                   22605303.5164
 11  7 28 19  0 30.0000000  0  8G03G07G13G19G28G23G08G11
  11980018.21947   9329791.97744  23186107.6254                   23186107.3984
 -13340449.88748 -10390358.88346  20558048.5474                   20558046.2274
   2962960.96548   2311935.10246  21108854.7734                   21108853.7544
  -3905800.84047  -3033949.43446  21364300.0634                   21364296.4534
 -10351484.18747  -8060074.99645  22894340.5784                   22894338.8054
  15524558.00847  12086199.04744  23013154.0474                   23013153.3524
 -15708730.23447 -12235293.72745  21893915.4144                   21893913.3954
 -12119772.40647  -9443028.93744  22594458.6484                   22594457.4184
 11  7 28 19  1  0.0000000  0  8G03G07G13G19G28G23G08G11
  12096778.82447   9420774.22344  23208326.4224                   23208325.4884
 -13363140.89148 -10408040.18046  20553730.3594                   20553728.0864
   3056495.70748   2384819.25046  21126653.8444                   21126652.6644
  -3836473.17648  -2979927.88346  21377493.0474                   21377489.6484
 -10382715.27747  -8084410.85245  22888397.6414                   22888395.7424
  15648688.14147  12182923.66044  23036775.4224                   23036774.8674
 -15767593.32847 -12281161.06245  21882714.4694                   21882713.1374
 -12176533.05947  -9487257.96545  22583657.7114                   22583656.6484
 11  7 28 19  1 30.0000000  0  8G03G07G13G19G28G23G08G11
  12213740.36347   9511913.04343  23230582.9224                   23230582.2154
 -13385577.09048 -10425522.93046  20549460.7114                   20549458.4384
   3150451.79748   2458031.73846  21144533.8754                   21144532.1094
  -3766638.79748  -2925511.50446  21390781.8984                   21390778.3874
 -10413771.12947  -8108610.18045  22882487.3594                   22882485.9924
  15772959.73447  12279758.50444  23060424.2664                   23060422.8054
 -15826393.44948 -12326979.30145  21871524.3834                   21871523.3754
 -12233043.55547  -9531292.06244  22572903.7894                   22572902.0904
 11  7 28 19  2  0.0000000  0  8G03G07G13G19G28G23G08G11
  12330895.67646   9603202.82443  23252876.3674                   23252876.7274
 -13407760.89848 -10442809.01246  20545239.4384                   20545237.2544
   3244822.51248   2531567.31246  21162491.8984                   21162490.9304
  -3696304.58248  -2870705.63746  21404166.4694                   21404162.4304
 -10444656.78947  -8132676.89145  22876610.1644                   22876608.6054
  15897365.97347  12376698.25844  23084097.6804                   23084095.8714
 -15885132.94147 -12372750.30145  21860346.5554                   21860345.6684
 -12289304.94947  -9575132.06244  22562198.1484                   22562196.5634
 11  7 28 19  2 30.0000000  0  8G03G07G13G19G28G23G08G11
  12448244.59846   9694643.47743  23275206.9304                   23275207.4844
 -13429687.68748 -10459894.82046  20541066.7504                   20541064.2424
   3339607.89548   2605425.99646  21180528.8284                   21180527.6254
  -3625469.84847  -2815509.76246  21417645.6644                   21417641.7544
 -10475370.47747  -8156609.56244  22870765.5704                   22870763.8794
  16021906.60947  12473742.75444  23107797.0314                   23107795.2034
 -15943807.62947 -12418470.81245  21849181.9144                   21849179.9654
 -12345311.55547  -9618773.50845  22551540.0864                   22551538.7384
 11  7 28 19  3  0.0000000  0  8G03G07G13G19G28G23G08G11
  12565775.89546   9786226.26643  23297573.4064                   23297572.4844
 -13451364.10548 -10476785.53546  20536941.9224                   20536939.4734
   3434796.65248   2679598.99646  21198642.3754                   21198641.2034
  -3554145.12947  -2759932.07046  21431218.1564                   21431214.0044
 -10505921.33247  -8180415.37145  22864951.5864                   22864949.8524
  16146570.03547  12570882.91044  23131519.9694                   23131518.3484
 -16002424.53148 -12464146.29745  21838027.3754                   21838025.6844
 -12401068.68047  -9662220.53945  22540929.5004                   22540928.3554
 11  7 28 19  3 30.0000000  0  8G03G07G13G19G28G23G08G11
  12683490.24247   9877951.69143  23319973.7034                   23319972.5864
 -13472784.68748 -10493476.89846  20532865.8054                   20532863.3204
   3530390.05948   2754087.31646  21216833.3754                   21216832.2274
  -3482329.34447  -2703971.73446  21444884.2344                   21444880.3594
 -10536306.11347  -8204091.78145  22859170.1334                   22859168.2154
  16271357.00046  12668119.32043  23155265.6954                   23155265.1294
 -16060977.94547 -12509772.30945  21826885.1254                   21826883.3054
 -12456569.82847  -9705468.11345  22530368.0084                   22530367.0044
 11  7 28 19  4  0.0000000  0  8G03G07G13G19G28G23G08G11
  12801381.82847   9969815.21943  23342407.8444                   23342407.0004
 -13493951.23848 -10509970.31646  20528837.6334                   20528835.4774
   3626382.00048   2828886.17246  21235100.0554                   21235098.6994
  -3410028.32047  -2647633.28546  21458642.1804                   21458639.0354
 -10566529.64547  -8227642.53945  22853418.1644                   22853416.8014
  16396261.36346  12765447.19544  23179035.0314                   23179033.0234
 -16119469.69948 -12555350.28145  21815754.5234                   21815752.5314
 -12511815.67247  -9748516.73045  22519855.2194                   22519853.8524
 11  7 28 19  4 30.0000000  0  8G03G07G13G19G28G23G08G11
  12919443.50847  10061811.26644  23364874.8754                   23364873.8014
 -13514865.98448 -10526267.52046  20524858.0634                   20524855.7774
   3722765.10248   2903989.83246  21253441.0234                   21253440.0084
  -3337248.64547  -2590921.86746  21472492.1804                   21472488.7664
 -10596596.51647  -8251071.23045  22847696.6094                   22847694.9024
  16521275.52047  12862860.64844  23202824.7814                   23202823.3794
 -16177902.64547 -12600882.43745  21804634.3054                   21804633.1414
 -12566807.36747  -9791367.32044  22509390.2274                   22509389.1524
 11  7 28 19  5  0.0000000  0  8G03G07G13G19G28G23G08G11
  13037673.63747  10153938.58644  23387373.0554                   23387372.4184
 -13535525.72748 -10542366.02346  20520926.4924                   20520923.8324
   3819538.32448   2979397.48046  21271856.8444                   21271855.4224
  -3263990.67247  -2533837.75046  21486432.8284                   21486429.2074
 -10626505.94547  -8274377.23845  22842005.0004                   22842003.9064
  16646398.27347  12960358.70343  23226633.8134                   23226633.8244
 -16236273.73448 -12646366.37545  21793527.1024                   21793526.1484
 -12621540.80947  -9834016.68045  22498975.0634                   22498974.0634
 11  7 28 19  5 30.0000000  0  8G03G07G13G19G28G23G08G11
  13156066.47347  10246192.66444  23409902.8914                   23409901.9804
 -13555931.82048 -10558266.87946  20517043.4304                   20517041.3094
   3916696.23848   3055104.88746  21290345.3284                   21290344.2584
  -3190260.30147  -2476385.53146  21500463.2424                   21500459.4774
 -10656261.94147  -8297563.69945  22836342.5554                   22836341.1334
  16771623.62547  13057936.70744  23250464.1024                   23250463.1414
 -16294583.78948 -12691802.75845  21782431.1094                   21782430.1054
 -12676015.46947  -9876464.37945  22488608.2034                   22488607.8954
 11  7 28 19  6  0.0000000  0  8G03G07G13G19G28G23G08G11
  13274623.94546  10338575.03143  23432462.5394                   23432462.3914
 -13576077.43448 -10573964.75846  20513209.4844                   20513207.5164
   4014240.61347   3131113.44146  21308907.3594                   21308906.2664
  -3116055.01647  -2418563.24646  21514583.7424                   21514580.5394
 -10685860.80147  -8320627.71944  22830710.5004                   22830708.8634
  16896953.62147  13155596.26243  23274313.8364                   23274313.0274
 -16352826.38348 -12737186.58245  21771347.8984                   21771346.5354
 -12730223.67647  -9918704.44944  22478291.8834                   22478291.8794
 11  7 28 19  6 30.0000000  0  8G03G07G13G19G28G23G08G11
  13393340.49646  10431081.35543  23455054.0864                   23455052.5944
 -13595963.66448 -10589460.51646  20509425.7974                   20509423.1764
   4112165.62948   3207418.58645  21327541.8594                   21327540.8484
  -3041380.06348  -2360375.00446  21528793.9924                   21528790.3554
 -10715305.68047  -8343571.75044  22825106.8754                   22825105.2034
  17022382.08647  13253332.56343  23298181.6414                   23298181.2974
 -16411002.78147 -12782518.82845  21760277.2894                   21760275.7544
 -12784165.70347  -9960737.12145  22468027.7734                   22468027.6804
 11  7 28 19  7  0.0000000  0  9G03G24G07G13G19G28G23G08G11
  13512217.72746  10523712.85943  23477675.6174                   23477674.8134
  -4819325.45756  -3748510.55153  23985530.4694                   23985535.5594
 -13615584.17648 -10604749.22746  20505691.5784                   20505689.3594
   4210473.09048   3284021.75446  21346249.4694                   21346247.9064
  -2966233.44947  -2301819.22746  21543093.7194                   21543090.6484
 -10744593.23447  -8366393.18444  22819533.6254                   22819531.7154
  17147910.56647  13351146.77743  23322069.5004                   23322068.3834
 -16469106.99248 -12827794.81645  21749220.4144                   21749218.8834
 -12837833.98847 -10002556.48844  22457815.0554                   22457813.6764
 11  7 28 19  7 30.0000000  0  9G03G24G07G13G19G28G23G08G11
  13631253.34446  10616467.80143  23500327.8754                   23500328.0084
  -4882450.65246  -3797698.89843  23973518.2894                   23973523.0084
 -13634936.88348 -10619829.25846  20502009.4144                   20502006.9064
   4309161.00847   3360921.37146  21365029.1414                   21365027.6724
  -2890617.10247  -2242897.41046  21557483.2504                   21557479.5784
 -10773723.96147  -8389092.40644  22813989.8834                   22813988.4064
  17273536.66847  13449037.03543  23345975.6024                   23345974.6524
 -16527136.60248 -12873012.66845  21738177.6954                   21738176.7074
 -12891225.09847 -10044159.88745  22447655.4384                   22447653.4304
 11  7 28 19  8  0.0000000  0  9G03G24G07G13G19G28G23G08G11
  13750431.83246  10709334.04743  23523006.1024                   23523006.3874
  -4945600.68447  -3846906.56644  23961501.7584                   23961505.6134
 -13654032.72748 -10634709.12946  20498375.7584                   20498373.0984
   4408213.35548   3438104.96145  21383877.7974                   21383876.6764
  -2814546.34447  -2183621.51646  21571958.5944                   21571955.3134
 -10802711.06647  -8411679.73444  22808473.6644                   22808472.7034
  17399244.86746  13546991.26244  23369897.7274                   23369896.6644
 -16585102.66448 -12918181.01645  21727147.1334                   21727145.8324
 -12944348.95347 -10085555.05944  22437546.0394                   22437543.9844
 11  7 28 19  8 30.0000000  0  9G03G24G07G13G19G28G23G08G11
  13869751.29746  10802310.20343  23545712.0784                   23545711.7664
  -5008771.67246  -3896130.61743  23949480.1414                   23949484.5784
 -13672868.80148 -10649386.59046  20494790.7894                   20494788.7774
   4507628.90247   3515571.57046  21402796.4224                   21402794.5664
  -2738022.65247  -2123992.68446  21586520.4384                   21586517.3404
 -10831554.42647  -8434155.03145  22802984.9304                   22802983.6724
  17525033.18047  13645007.93044  23393834.7424                   23393833.8134
 -16643002.37147 -12963297.65245  21716128.9844                   21716127.3594
 -12997201.62547 -10126738.91044  22427488.1484                   22427486.3754
 11  7 28 19  9  0.0000000  0  9G03G24G07G13G19G28G23G08G11
  13989213.62546  10895397.69543  23568444.8594                   23568443.3324
  -5071956.35946  -3945365.27043  23937456.6724                   23937461.0394
 -13691438.76648 -10663856.68746  20491257.6024                   20491254.8634
   4607408.71147   3593322.02045  21421784.1174                   21421782.5594
  -2661043.98847  -2064009.33245  21601168.9534                   21601166.5514
 -10860250.46547  -8456515.53145  22797524.0944                   22797523.4614
  17650902.98447  13743088.09444  23417786.7814                   23417786.5044
 -16700829.73047 -13008357.91445  21705124.8524                   21705123.5824
 -13049775.72747 -10167705.70344  22417483.4384                   22417482.3244
 11  7 28 19  9 30.0000000  0  9G03G24G07G13G19G28G23G08G11
  14108820.48447  10988597.84043  23591204.8134                   23591203.8674
  -5135146.91046  -3994604.51243  23925432.0634                   23925435.2664
 -13709736.32448 -10678114.51646  20487775.5554                   20487773.1374
   4707554.80947   3671357.87945  21440840.8284                   21440839.3714
  -2583608.00047  -2003669.61745  21615904.5004                   21615902.0984
 -10888795.62547  -8478758.48845  22792092.7974                   22792091.2544
  17776855.91847  13841233.03144  23441755.4064                   23441755.0234
 -16758578.26648 -13053356.74645  21694135.4694                   21694134.5204
 -13102063.37547 -10208449.27345  22407533.7664                   22407533.0514
 11  7 28 19 10  0.0000000  0  9G03G24G07G13G19G28G23G08G11
  14228563.32446  11081903.91843  23613991.1094                   23613990.8324
  -5198346.64146  -4043850.91843  23913404.9454                   23913408.7814
 -13727765.80948 -10692163.45347  20484344.4144                   20484341.8484
   4808058.37147   3749672.28945  21459966.2274                   21459965.0234
  -2505723.29747  -1942980.26246  21630725.9694                   21630723.0434
 -10917196.51647  -8500889.01245  22786688.3594                   22786686.7814
  17902883.30947  13939435.98044  23465737.1414                   23465737.1024
 -16816252.25048 -13098297.49245  21683160.3204                   21683158.5944
 -13154068.32847 -10248972.58645  22397637.5164                   22397636.9574
 11  7 28 19 10 30.0000000  0  9G03G24G07G13G19G28G23G08G11
  14348453.27046  11175324.62943  23636807.2814                   23636806.5704
  -5261539.03547  -4093091.56643  23901380.3444                   23901382.9734
 -13745511.11748 -10705990.95746  20480967.5314                   20480965.5554
   4908930.53947   3828273.92645  21479161.8054                   21479160.4734
  -2427378.59848  -1881932.46545  21645634.6414                   21645630.7464
 -10945439.93747  -8522896.82845  22781313.5554                   22781312.2664
  18028995.98046  14037705.37544  23489735.7114                   23489736.1914
 -16873835.71148 -13143167.69945  21672203.0394                   21672202.4264
 -13205773.27047 -10289262.12145  22387798.5394                   22387797.4614
 11  7 28 19 11  0.0000000  0  9G03G24G07G13G19G28G23G08G11
  14468484.30546  11268855.20343  23659646.4924                   23659648.3094
  -5324724.21947  -4142326.64143  23889356.8054                   23889359.8444
 -13762973.82848 -10719598.25446  20477644.3674                   20477642.3364
   5010164.86747   3907157.75845  21498425.6334                   21498424.7424
  -2348579.63747  -1820530.69545  21660629.3594                   21660625.7664
 -10973530.27047  -8544785.38345  22775968.2194                   22775966.5944
  18155187.78947  14136036.40643  23513749.3674                   23513748.8284
 -16931330.23448 -13187968.61345  21661262.0554                   21661260.1374
 -13257178.66047 -10329318.23845  22378016.1564                   22378015.3954
 11  7 28 19 11 30.0000000  0  9G03G24G07G13G19G28G23G08G11
  14588653.47346  11362493.41843  23682514.6564                   23682515.1884
  -5387899.07447  -4191553.66444  23877334.7194                   23877337.7114
 -13780151.85948 -10732983.73846  20474375.8984                   20474373.6454
   5111758.96947   3986321.93445  21517758.5314                   21517757.8054
  -2269328.60547  -1758776.66445  21675710.1094                   21675706.6684
 -11001468.34447  -8566555.28145  22770652.1644                   22770650.4224
  18281455.98446  14234426.99244  23537776.7424                   23537777.7154
 -16988734.02048 -13232698.80945  21650338.1564                   21650336.8674
 -13308281.30147 -10369138.44945  22368291.4614                   22368290.1644
 11  7 28 19 12  0.0000000  0  9G03G24G07G13G19G28G23G08G11
  14708961.40247  11456239.79743  23705409.8674                   23705408.2664
  -5451057.90646  -4240768.16843  23865315.3754                   23865318.4924
 -13797041.27748 -10746144.31646  20471162.0864                   20471159.3714
   5213712.82047   4065766.44145  21537159.9614                   21537158.3984
  -2189625.47747  -1696670.34045  21690877.3284                   21690874.3554
 -11029251.73447  -8588204.64545  22765364.2894                   22765362.3094
  18407800.29747  14332876.89143  23561820.1954                   23561820.7854
 -17046042.19548 -13277354.51245  21639433.1884                   21639431.4574
 -13359075.87947 -10408718.59445  22358625.7344                   22358625.0514
 11  7 28 19 12 30.0000000  0  9G03G24G07G13G19G28G23G08G11
  14829398.75846  11550087.02743  23728328.0474                   23728326.1954
  -5514204.00047  -4289972.72343  23853298.5004                   23853301.8954
 -13813645.80148 -10759082.90246  20468002.3594                   20467999.7194
   5316017.12547   4145484.02345  21556627.8444                   21556626.7274
  -2109479.10947  -1634218.66045  21706128.6024                   21706125.6294
 -11056887.26247  -8609738.80145  22760105.6484                   22760104.1884
  18534211.76247  14431379.11743  23585876.2034                   23585875.6484
 -17103259.14848 -13321939.12946  21628544.9224                   21628544.1524
 -13409565.53947 -10448061.14545  22349017.7344                   22349017.1134
 11  7 28 19 13  0.0000000  0  9G03G24G07G13G19G28G23G08G11
  14949963.53146  11644033.54743  23751269.9774                   23751269.5944
  -5577333.91847  -4339164.68043  23841286.5164                   23841288.8244
 -13829963.10248 -10771797.69146  20464896.8284                   20464894.2074
   5418669.89847   4225473.13745  21576161.6254                   21576160.8954
  -2028890.99247  -1571422.73845  21721464.3364                   21721460.7854
 -11084375.60947  -8631158.24245  22754875.1334                   22754873.0704
  18660688.24247  14529932.00844  23609943.9844                   23609943.5084
 -17160382.29748 -13366450.64145  21617674.6024                   21617673.1214
 -13459746.72347 -10487163.30545  22339468.7034                   22339468.1884
 11  7 28 19 13 30.0000000  0  9G03G24G07G13G19G28G23G08G11
  15070661.85946  11738084.10243  23774237.8364                   23774238.2114
  -5640435.49647  -4388334.61743  23829278.3524                   23829280.5514
 -13845982.46948 -10784280.31246  20461848.6484                   20461846.3754
   5521677.14147   4305738.45345  21595763.6954                   21595762.5594
  -1947854.82847  -1508277.68845  21736884.9144                   21736881.2234
 -11111708.69547  -8652456.71945  22749673.6254                   22749671.9024
  18787235.75847  14628540.25044  23634025.3364                   23634024.7464
 -17217400.61748 -13410880.49245  21606824.7424                   21606823.2624
 -13509607.38347 -10526015.74245  22329980.3914                   22329979.4844
 11  7 28 19 14  0.0000000  0  9G03G24G07G13G19G28G23G08G11
  15191481.34846  11832229.08243  23797228.6174                   23797230.0864
  -5703515.75047  -4437487.90643  23817274.5084                   23817276.1914
 -13861711.82447 -10796536.95346  20458855.4844                   20458852.7504
   5625026.16447   4386270.10545  21615430.3834                   21615429.2704
  -1866383.46148  -1444793.51245  21752388.4774                   21752384.9534
 -11138897.11347  -8673642.46945  22744499.5474                   22744497.4104
  18913841.44947  14727193.84844  23658117.4224                   23658117.1994
 -17274322.63348 -13455235.29345  21595992.6804                   21595991.3284
 -13559154.73047 -10564624.00445  22320552.0784                   22320550.8914
 11  7 28 19 14 30.0000000  0  8G24G07G13G19G28G23G08G11
  -5766568.03947  -4486619.41443  23805276.1414                   23805276.2734
 -13877145.88348 -10808563.49646  20455918.4844                   20455915.9494
   5728717.67247   4467068.61745  21635162.1484                   21635161.4924
  -1784475.36748  -1380969.03945  21767975.4454                   21767971.6134
 -11165938.10547  -8694713.34045  22739353.9614                   22739352.3954
  19040506.30147  14825893.50444  23682221.3444                   23682221.8914
 -17331142.26248 -13499510.31645  21585179.7664                   21585178.7894
 -13608382.21147 -10602983.03545  22311184.3524                   22311183.1724
 11  7 28 19 15  0.0000000  0  8G24G07G13G19G28G23G08G11
  -5829588.22347  -4535725.92243  23793283.1954                   23793283.5984
 -13892281.23848 -10820357.28946  20453038.3594                   20453036.1454
   5832749.81247   4548132.56645  21654958.4454                   21654958.1094
  -1702132.35548  -1316805.66845  21783644.5554                   21783640.9104
 -11192830.95348  -8715668.75445  22734236.8284                   22734234.6844
  19167228.34047  14924637.71544  23706336.1094                   23706335.9454
 -17387856.81648 -13543703.44146  21574388.0554                   21574386.7034
 -13657285.95747 -10641089.79345  22301877.9614                   22301877.4224
 11  7 28 19 15 30.0000000  0  8G24G07G13G19G28G23G08G11
  -5892564.28547  -4584798.03543  23781299.3204                   23781300.3714
 -13907107.28548 -10831910.04346  20450216.7424                   20450214.4104
   5937128.97347   4629466.91045  21674821.7114                   21674820.7934
  -1619347.59848  -1252298.08645  21799398.4144                   21799394.4654
 -11219567.71947  -8736502.56245  22729148.6414                   22729146.5784
  19294013.70747  15023431.25844  23730462.2274                   23730462.9924
 -17444455.03948 -13587805.92246  21563617.1724                   21563616.3284
 -13705853.73847 -10678934.76645  22292635.6564                   22292634.7154
 11  7 28 19 16  0.0000000  0  8G24G07G13G19G28G23G08G11
  -5955492.32447  -4633832.70343  23769323.8524                   23769326.3754
 -13921621.54748 -10843219.85246  20447454.7114                   20447452.4694
   6041853.01247   4711070.00045  21694749.9614                   21694748.8674
  -1536122.89548  -1187447.68845  21815234.9844                   21815231.3594
 -11246148.30547  -8757214.68045  22724090.4924                   22724088.4884
  19420860.68446  15122272.77043  23754600.4774                   23754601.2774
 -17500934.60948 -13631815.95746  21552869.8984                   21552868.5274
 -13754081.83647 -10716515.05545  22283457.6804                   22283457.1994
 11  7 28 19 16 30.0000000  0  8G24G07G13G19G28G23G08G11
  -6018370.66047  -4682828.63743  23757358.7114                   23757360.8484
 -13935823.13348 -10854286.03147  20444752.3914                   20444749.9844
   6146917.90247   4792938.68445  21714743.6724                   21714742.3134
  -1452461.97748  -1122257.39545  21831155.5084                   21831150.9304
 -11272574.74647  -8777806.68745  22719061.8364                   22719060.7504
  19547765.22346  15221159.16443  23778749.9454                   23778750.9184
 -17557294.22748 -13675732.52046  21542145.2034                   21542143.4454
 -13801968.66847 -10753829.42245  22274346.1954                   22274344.5984
 11  7 28 19 17  0.0000000  0  8G24G07G13G19G28G23G08G11
  -6081204.87946  -4731790.16443  23745401.7584                   23745404.0514
 -13949718.85548 -10865113.86347  20442108.4844                   20442106.1844
   6252311.91447   4875063.82845  21734798.9534                   21734798.3714
  -1368376.16447  -1056736.00045  21847156.4924                   21847151.9574
 -11298856.37547  -8798285.84845  22714060.1254                   22714058.7504
  19674715.72347  15320081.36343  23802908.5474                   23802909.1724
 -17613540.53948 -13719560.79746  21531441.5314                   21531439.9924
 -13849519.91447 -10790882.30145  22265296.9224                   22265295.5044
 11  7 28 19 17 30.0000000  0  8G24G07G13G19G28G23G08G11
  -6143996.43046  -4780718.47343  23733451.7584                   23733454.0984
 -13963311.64548 -10875705.64547  20439521.6024                   20439519.0944
   6358027.94547   4957439.89545  21754916.0554                   21754915.5084
  -1283872.82448   -990889.26645  21863237.1884                   21863233.5394
 -11324998.93048  -8818656.64145  22709085.2424                   22709083.1564
  19801704.58247  15419033.51244  23827073.7894                   23827074.5164
 -17669676.45348 -13763303.03146  21520759.3444                   21520757.8834
 -13896737.04747 -10827674.82845  22256312.0784                   22256310.1094
 11  7 28 19 18  0.0000000  0  8G24G07G13G19G28G23G08G11
  -6206741.75846  -4829610.78543  23721511.7734                   23721514.1094
 -13976598.73448 -10886059.21947  20436993.1484                   20436990.8444
   6464062.93047   5040064.49645  21775093.9614                   21775092.6914
  -1198954.07448   -924718.84846  21879396.4384                   21879392.6684
 -11351002.69948  -8838919.27745  22704137.0634                   22704135.6684
  19928730.03547  15518014.11743  23851246.5164                   23851246.2274
 -17725699.49648 -13806957.33246  21510098.6334                   21510097.1604
 -13943617.52347 -10864205.02345  22247390.8984                   22247389.3634
 11  7 28 19 18 30.0000000  0  8G24G07G13G19G28G23G08G11
  -6269443.05546  -4878468.71543  23709580.3284                   23709583.2274
 -13989583.50048 -10896177.21547  20434522.0944                   20434519.9964
   6570409.19147   5122931.65245  21795331.2194                   21795330.1214
  -1113627.34048   -858230.51246  21895634.0004                   21895630.3444
 -11376873.33247  -8859078.18045  22699214.4384                   22699212.2734
  20055783.75047  15617016.80144  23875424.4304                   23875423.8834
 -17781612.63748 -13850525.98846  21499458.6484                   21499457.6564
 -13990163.34847 -10900474.44545  22238533.6484                   22238532.6094
 11  7 28 19 19  0.0000000  0  8G24G07G13G19G28G23G08G11
  -6332096.79346  -4927289.60243  23697657.3834                   23697659.5904
 -14002264.25448 -10906058.32447  20432109.2584                   20432106.7624
   6677064.20747   5206039.38345  21815626.9534                   21815626.5124
  -1027895.17648   -791426.25846  21911947.8674                   21911944.3364
 -11402611.44147  -8879133.80545  22694316.1804                   22694314.6524
  20182863.58247  15716039.83643  23899606.9774                   23899606.8674
 -17837413.39848 -13894007.09446  21488839.8754                   21488838.4304
 -14036371.18747 -10936480.50445  22229740.1414                   22229738.9224
 11  7 28 19 19 30.0000000  0  8G24G07G13G19G28G23G08G11
  -6394704.62546  -4976074.75044  23685743.6254                   23685746.3984
 -14014643.22748 -10915704.27046  20429753.7584                   20429751.3594
   6784020.16447   5289381.62145  21835979.9454                   21835978.9884
   -941764.72348   -724311.64845  21928338.2344                   21928334.3134
 -11428222.43047  -8899090.39845  22689442.5394                   22689440.5274
  20309961.63347  15815077.07443  23923792.6724                   23923792.1994
 -17893104.69548 -13937402.88746  21478242.4534                   21478241.2234
 -14082242.68047 -10972224.44945  22221011.1884                   22221009.5864
 11  7 28 19 20  0.0000000  0  8G24G07G13G19G28G23G08G11
  -6457272.20347  -5024828.54744  23673837.4224                   23673839.9264
 -14026727.39548 -10925120.51646  20427453.7274                   20427451.7234
   6891265.97347   5372949.71945  21856388.7344                   21856387.3754
   -855247.19148   -656895.42646  21944802.0554                   21944798.2304
 -11453715.60247  -8918955.17645  22684591.3984                   22684589.6254
  20437066.98446  15914119.96943  23947980.1564                   23947980.7814
 -17948692.67648 -13980718.18046  21467664.4064                   21467663.2194
 -14127783.58247 -11007710.80945  22212345.0164                   22212343.6804
 11  7 28 19 20 30.0000000  0  8G24G07G13G19G28G23G08G11
  -6519797.53146  -5073549.43044  23661939.1954                   23661941.2974
 -14038516.00448 -10934306.44146  20425210.2734                   20425208.2814
   6998797.37147   5456740.35245  21876850.7734                   21876850.1564
   -768346.34447   -589180.50045  21961338.1724                   21961335.0314
 -11479092.85547  -8938729.62145  22679762.2344                   22679761.2384
  20564175.30946  16013165.17243  23972168.3594                   23972169.2114
 -18004176.68448 -14023952.45346  21457105.9064                   21457103.9534
 -14172992.23847 -11042938.27045  22203741.8364                   22203740.4534
 11  7 28 19 21  0.0000000  0  8G24G07G13G19G28G23G08G11
  -6582281.56647  -5122238.11743  23650047.8204                   23650051.3754
 -14050010.96148 -10943263.56246  20423023.2734                   20423020.7854
   7106607.54347   5540748.20345  21897366.5234                   21897365.6134
   -681068.47347   -521171.79745  21977947.0864                   21977943.7464
 -11504359.08247  -8958417.55545  22674954.1174                   22674952.8204
  20691280.27346  16112207.75443  23996354.4774                   23996356.0354
 -18059558.39548 -14067107.01246  21446567.4614                   21446565.3754
 -14217869.84047 -11077907.77345  22195201.6804                   22195200.6764
 11  7 28 19 21 30.0000000  0  8G24G07G13G19G28G23G08G11
  -6644724.56646  -5170894.88743  23638165.0394                   23638168.1134
 -14061214.21548 -10951993.36346  20420891.1644                   20420888.7304
   7214689.96547   5624968.19545  21917933.8524                   21917933.2584
   -593420.19147   -452874.46546  21994626.1954                   21994622.5354
 -11529518.77347  -8978022.47745  22670166.6884                   22670165.0554
  20818375.57846  16211242.80943  24020540.0394                   24020541.9534
 -18114839.41848 -14110183.10946  21436047.3444                   21436045.9454
 -14262417.23447 -11112619.96945  22186724.9384                   22186723.3874
 11  7 28 19 22  0.0000000  0  8G24G07G13G19G28G23G08G11
  -6707122.41847  -5219516.47743  23626291.8364                   23626294.5434
 -14072122.79748 -10960493.55946  20418815.4144                   20418813.3524
   7323042.77047   5709398.88745  21938553.0554                   21938551.6994
   -505403.23448   -384289.84845  22011374.9384                   22011371.4804
 -11554571.46147  -8997544.01245  22665399.0704                   22665397.6054
  20945459.21946  16310268.70743  24044724.1724                   24044726.2934
 -18170016.23048 -14153178.01646  21425547.6414                   21425545.6994
 -14306630.28147 -11147071.63745  22178310.9844                   22178309.7664
 11  7 28 19 22 30.0000000  0  8G24G07G13G19G28G23G08G11
  -6769472.49647  -5268100.83643  23614426.7584                   23614429.1604
 -14082735.16448 -10968762.94546  20416796.0864                   20416793.7234
   7431662.78147   5794037.77745  21959222.7424                   21959221.9414
   -417020.31348   -315420.07446  22028194.3364                   22028190.1454
 -11579518.29348  -9016983.07845  22660651.8674                   22660650.1884
  21072528.18046  16409283.25843  24068905.1884                   24068906.4734
 -18225087.32048 -14196090.51646  21415067.8754                   21415066.1414
 -14350506.82847 -11181261.10245  22169961.9694                   22169960.7624
 11  7 28 19 23  0.0000000  0  8G24G07G13G19G28G23G08G11
  -6831749.80547  -5316628.48043  23602575.6334                   23602576.9304
 -14093027.52348 -10976782.96547  20414837.2114                   20414835.4574
   7540568.64847   5878899.43045  21979947.0004                   21979945.6334
   -328252.22348   -246250.14546  22045086.2504                   22045082.4734
 -11604338.44548  -9036323.43745  22655928.9924                   22655926.4534
  21199601.63346  16508301.27343  24093086.7584                   24093088.4844
 -18280028.82048 -14238902.05946  21404612.6724                   21404611.7034
 -14394022.27347 -11215169.18445  22161680.8834                   22161680.1134
 11  7 28 19 23 30.0000000  0  8G24G07G13G19G28G23G08G11
  -6893967.45346  -5365109.68043  23590735.3834                   23590737.1884
 -14103014.53948 -10984565.05947  20412936.7734                   20412934.4304
   7649741.51247   5963969.11345  22000721.4304                   22000721.0434
   -239118.01648   -176794.93446  22062047.6804                   22062044.1334
 -11629048.90247  -9055578.32045  22651226.8134                   22651224.7344
  21326660.50846  16607307.93444  24117265.1334                   24117266.6374
 -18334854.77748 -14281623.55946  21394180.0784                   21394178.7304
 -14437189.83247 -11248806.18745  22153466.6094                   22153465.2154
 11  7 28 19 24  0.0000000  0  8G24G07G13G19G28G23G08G11
  -6956117.05546  -5413537.85243  23578908.5234                   23578910.0124
 -14112689.24648 -10992103.79747  20411095.9304                   20411093.7114
   7759182.80947   6049247.96145  22021547.8134                   22021547.1134
   -149614.99248   -107052.34046  22079079.8364                   22079076.3874
 -11653645.11347  -9074744.18445  22646546.3594                   22646543.8754
  21453707.34846  16706305.19943  24141442.0554                   24141443.0744
 -18389557.52048 -14324249.04745  21383770.3204                   21383768.7344
 -14480001.62147 -11282165.96945  22145320.0554                   22145318.7274
 11  7 28 19 24 30.0000000  0  7G24G07G13G19G28G08G11
  -7018188.22746  -5461904.86343  23567097.2274                   23567098.9304
 -14122042.13748 -10999391.76647  20409316.1334                   20409314.0124
   7868897.89847   6134740.16445  22042425.8834                   22042424.6604
    -59738.63748    -37018.84446  22096182.3284                   22096179.0944
 -11678120.40247  -9093815.82845  22641888.7034                   22641886.0164
 -18444127.74248 -14366771.28546  21373385.4384                   21373383.6684
 -14522447.39548 -11315240.55545  22137242.7894                   22137241.6484
 11  7 28 19 25  0.0000000  0  7G24G07G13G19G28G08G11
  -7080179.24247  -5510209.43743  23555300.2894                   23555303.3164
 -14131072.81248 -11006428.65246  20407597.5084                   20407595.5274
   7978882.05147   6220442.02345  22063355.3834                   22063354.3674
     30507.15248     33302.52045  22113355.6564                   22113352.3094
 -11702477.11747  -9112795.05945  22637253.5164                   22637251.4534
 -18498564.55948 -14409189.55546  21363026.8054                   21363025.0784
 -14564525.93048 -11348028.97345  22129235.7194                   22129234.0394
 11  7 28 19 25 30.0000000  0  7G24G07G13G19G28G08G11
  -7142081.75846  -5558445.02343  23543520.1804                   23543522.7974
 -14139774.69548 -11013209.33647  20405942.0164                   20405939.7894
   8089137.25847   6306355.11345  22084335.6484                   22084335.6724
    121124.41447    103913.35545  22130598.9774                   22130596.1454
 -11726711.24647  -9131678.77345  22632641.8284                   22632640.4224
 -18552861.27348 -14451498.67246  21352694.9924                   21352692.4064
 -14606229.75047 -11380525.41845  22121299.3134                   22121297.1684
 11  7 28 19 26  0.0000000  0  7G24G07G13G19G28G08G11
  -7203878.98046  -5606598.57843  23531760.4144                   23531762.0824
 -14148132.08248 -11019721.58247  20404351.2814                   20404349.1994
   8199674.12147   6392487.64145  22105370.4844                   22105369.9064
    212124.47347    174822.46145  22147916.1334                   22147912.6684
 -11750809.46947  -9150456.57445  22628056.5004                   22628054.5434
 -18607001.70348 -14493686.00446  21342391.9454                   21342390.7464
 -14647542.15247 -11412716.87145  22113437.5704                   22113435.7894
 11  7 28 19 26 30.0000000  0  7G24G07G13G19G28G08G11
  -7265577.76647  -5654675.44543  23520020.9694                   23520022.0944
 -14156152.85548 -11025971.53147  20402825.0314                   20402822.7704
   8310480.03947   6478829.83245  22126456.8754                   22126455.5944
    303494.43747    246019.80945  22165303.2194                   22165300.0864
 -11774782.73047  -9169136.99645  22623493.7424                   22623492.3164
 -18660993.46148 -14535757.46946  21332117.8674                   21332116.3524
 -14688470.36347 -11444608.96145  22105649.3054                   22105647.1884
 11  7 28 19 27  0.0000000  0  7G24G07G13G19G28G08G11
  -7327166.99247  -5702666.93444  23508300.0234                   23508303.4414
 -14163827.44548 -11031951.73047  20401364.7504                   20401362.6094
   8421560.19147   6565385.72745  22147594.2664                   22147593.3874
    395239.82447    317509.69145  22182761.8754                   22182758.3094
 -11798623.63347  -9187714.28545  22618957.4224                   22618955.5124
 -18714826.42648 -14577705.22346  21321873.4924                   21321871.7734
 -14729003.55147 -11476193.21545  22097935.7424                   22097933.6604
 11  7 28 19 27 30.0000000  0  7G24G07G13G19G28G08G11
  -7388643.02747  -5750570.19544  23496602.3134                   23496603.7704
 -14171153.40248 -11037660.27347  20399970.8444                   20399968.5164
   8532912.11347   6652153.37145  22168784.0394                   22168783.5394
    487358.53547    389290.48445  22200291.3914                   22200288.3634
 -11822332.62547  -9206188.79745  22614445.4614                   22614443.9224
 -18768497.62948 -14619526.92246  21311660.1414                   21311658.7464
 -14769138.50847 -11507467.17645  22090298.7274                   22090296.7074
 11  7 28 19 28  0.0000000  0  7G24G07G13G19G28G08G11
  -7450001.03547  -5798381.48444  23484926.0084                   23484927.6134
 -14178127.25848 -11043094.44547  20398643.5474                   20398641.0864
   8644534.12147   6739131.48045  22190025.2974                   22190024.6884
    579849.57047    461361.39545  22217891.8754                   22217888.6484
 -11845908.82847  -9224559.83245  22609959.1564                   22609957.7034
 -18822003.31648 -14661219.64846  21301478.5944                   21301476.5664
 -14808870.86747 -11538427.43045  22082737.8524                   22082736.6524
 11  7 28 19 28 30.0000000  0  7G24G07G13G19G28G08G11
  -7511231.54747  -5846093.44143  23473273.7734                   23473275.4304
 -14184740.89548 -11048247.93447  20397384.9774                   20397382.5514
   8756429.77047   6826322.80545  22211318.5314                   22211317.6454
    672716.34048    533725.08645  22235564.1644                   22235560.8594
 -11869346.50847  -9242822.91845  22605499.2424                   22605497.2734
 -18875335.02748 -14702776.81246  21291329.6804                   21291328.1724
 -14848191.49647 -11569066.84445  22075255.5474                   22075254.1484
 11  7 28 19 29  0.0000000  0  7G24G07G13G19G28G08G11
  -7572338.53147  -5893709.15244  23461645.2894                   23461647.3634
 -14190999.62548 -11053124.86747  20396194.1254                   20396191.7774
   8868588.84447   6913719.41045  22232661.5314                   22232660.9414
    765948.93747    606373.84445  22253305.6254                   22253302.2304
 -11892653.97747  -9260984.54345  22601064.1414                   22601062.1684
 -18928497.53948 -14744202.12946  21281212.9924                   21281211.2154
 -14887104.92247 -11599388.95345  22067850.7894                   22067849.3324
 11  7 28 19 29 30.0000000  0  7G24G07G13G19G28G08G11
  -7633317.35247  -5941224.98444  23450041.3134                   23450042.8954
 -14196900.01648 -11057722.56647  20395071.1334                   20395068.7424
   8981009.83247   7001320.08645  22254054.4774                   22254054.4184
    859546.23848    679306.78145  22271116.8674                   22271113.1604
 -11915830.26647  -9279043.97345  22596653.6884                   22596650.8674
 -18981487.15248 -14785492.71946  21271129.4224                   21271128.2114
 -14925607.36747 -11629390.82445  22060523.6804                   22060522.2114
 11  7 28 19 30  0.0000000  0  7G24G07G13G19G28G08G11
  -7694168.18047  -5988641.09844  23438462.0784                   23438464.0354
 -14202443.92248 -11062042.48447  20394016.3364                   20394013.9654
   9093686.38347   7089119.91445  22275495.9924                   22275496.2704
    953502.19147    752519.17245  22288995.9694                   22288992.7424
 -11938879.70347  -9297004.55145  22592267.1644                   22592265.4184
 -19034304.92248 -14826649.38746  21261078.6724                   21261077.4024
 -14963699.25847 -11659072.77045  22053275.4144                   22053273.3674
 11  7 28 19 30 30.0000000  0  7G24G07G13G19G28G08G11
  -7754880.80547  -6035949.49644  23426908.5394                   23426910.4884
 -14207622.56248 -11066077.78546  20393030.7734                   20393028.3484
   9206622.84847   7177122.25445  22296987.6484                   22296986.7544
   1047821.29747    826014.54746  22306943.9224                   22306940.9454
 -11961795.83247  -9314861.23845  22587906.5704                   22587904.9304
 -19086941.50448 -14867664.89546  21251062.2664                   21251060.9304
 -15001370.80947 -11688427.19145  22046106.3674                   22046104.1724
 11  7 28 19 31  0.0000000  0  7G24G07G13G19G28G08G11
  -7815456.60547  -6083151.31244  23415381.3754                   23415382.1994
 -14212438.60248 -11069830.54747  20392113.8204                   20392111.9774
   9319811.52347   7265321.13345  22318526.2894                   22318526.4224
   1142496.10247    899787.09845  22324960.1644                   22324956.9264
 -11984584.09847  -9332618.29745  22583570.3284                   22583568.5044
 -19139399.33648 -14908541.09846  21241080.0314                   21241078.3054
 -15038624.44948 -11717455.96545  22039017.5164                   22039015.3244
 11  7 28 19 31 30.0000000  0  7G24G07G13G19G28G08G11
  -7875899.88347  -6130249.85544  23403879.3054                   23403880.4924
 -14216897.54748 -11073305.04746  20391265.4534                   20391263.6174
   9433241.91047   7353708.36345  22340111.3444                   22340111.6024
   1237516.28947    973828.75845  22343041.9924                   22343039.1644
 -12007252.71547  -9350282.12545  22579256.5864                   22579255.1884
 -19191683.39548 -14949281.91046  21231130.1564                   21231128.5984
 -15075464.77348 -11746162.66845  22032006.7424                   22032004.2934
 11  7 28 19 32  0.0000000  0  7G24G07G13G19G28G08G11
  -7936201.13747  -6177237.71544  23392404.4384                   23392406.1134
 -14220991.05148 -11076494.78946  20390486.8754                   20390484.6134
   9546917.45347   7442286.61745  22361743.6804                   22361743.1804
   1332885.81647   1048142.65645  22361190.3754                   22361187.0594
 -12029796.06647  -9367848.34445  22574966.6024                   22574964.6804
 -19243785.08648 -14989880.60546  21221215.8134                   21221214.6564
 -15111882.41448 -11774540.01245  22025076.9614                   22025074.3054
 11  7 28 19 32 30.0000000  0  7G24G07G13G19G28G08G11
  -7996358.17247  -6224113.23043  23380956.5704                   23380957.1024
 -14224718.74248 -11079399.48447  20389777.2274                   20389774.8984
   9660834.16047   7531052.77345  22383421.4384                   22383420.4414
   1428600.51247   1122725.50845  22379403.9534                   22379400.9964
 -12052216.19147  -9385318.52345  22570699.7734                   22570698.4844
 -19295703.00048 -15030336.09846  21211336.5784                   21211334.6604
 -15147875.82047 -11802586.78145  22018227.6334                   22018225.4384
 11  7 28 19 33  0.0000000  0  7G24G07G13G19G28G08G11
  -8056369.44947  -6270875.14543  23369537.0554                   23369538.2734
 -14228080.59048 -11082019.11347  20389137.9304                   20389135.5394
   9774987.28147   7620003.16445  22405144.1724                   22405143.5474
   1524656.24647   1197574.10945  22397683.3524                   22397679.7344
 -12074515.21547  -9402694.35945  22566456.7584                   22566454.3914
 -19347436.69948 -15070648.06246  21201491.7114                   21201490.1564
 -15183444.42247 -11830302.53145  22011458.8754                   22011456.5904
 11  7 28 19 33 30.0000000  0  7G24G07G13G19G28G08G11
  -8116233.43447  -6317522.32444  23358144.6414                   23358146.7154
 -14231076.20748 -11084353.35547  20388567.9694                   20388565.4304
   9889372.20747   7709134.18845  22426910.5554                   22426910.4844
   1621048.44547   1272684.89845  22416025.7734                   22416022.3014
 -12096695.55947  -9419977.70745  22562235.6724                   22562233.5474
 -19398985.53548 -15110815.97746  21191682.0864                   21191680.4344
 -15218587.38347 -11857686.62545  22004771.3054                   22004769.2934
 11  7 28 19 34  0.0000000  0  7G24G07G13G19G28G08G11
  -8175954.62547  -6364058.22744  23346780.8204                   23346780.8834
 -14233711.68448 -11086406.98047  20388066.0314                   20388063.9614
  10003978.31647   7798437.55145  22448719.7974                   22448719.6214
   1717767.10247   1348050.06645  22434430.8284                   22434427.4104
 -12118765.76647  -9437175.24645  22558036.0784                   22558033.9614
 -19450354.59048 -15150843.78946  21181906.7894                   21181905.3524
 -15253309.71547 -11884742.94145  21998163.7194                   21998161.8874
 11  7 28 19 34 30.0000000  0  8G17G24G07G13G19G28G08G11
  -4861690.03556  -3778656.45354  24375142.6174                   24375146.0204
  -8235531.65647  -6410481.80144  23335442.7814                   23335443.8554
 -14235986.87148 -11088179.85247  20387632.9534                   20387630.8164
  10118800.78147   7887909.49245  22470569.8594                   22470569.6524
   1814807.56647   1423665.98045  22452896.9304                   22452893.6174
 -12140728.46947  -9454289.00045  22553856.6644                   22553854.9224
 -19501543.26248 -15190731.05546  21172166.0084                   21172164.3054
 -15287610.77747 -11911470.99645  21991636.4304                   21991634.6884
 11  7 28 19 35  0.0000000  0  8G17G24G07G13G19G28G08G11
  -4953197.08646  -3849960.35244  24357729.3834                   24357732.6954
  -8294969.05547  -6456796.57044  23324132.8204                   23324133.8554
 -14237907.96148 -11089676.80547  20387267.4384                   20387265.4304
  10233828.81647   7977541.63345  22492458.5394                   22492458.5084
   1912159.28547   1499524.44545  22471422.3984                   22471419.2384
 -12162592.10947  -9471325.57445  22549695.8984                   22549694.5904
 -19552557.20347 -15230482.17246  21162458.3914                   21162456.6684
 -15321495.65247 -11937874.74645  21985187.7734                   21985186.0084
 11  7 28 19 35 30.0000000  0  8G17G24G07G13G19G28G08G11
  -5044602.85946  -3921185.30144  24340334.7974                   24340338.1804
  -8354269.55547  -6503004.68044  23312848.6484                   23312848.9734
 -14239479.02048 -11090901.00847  20386968.7344                   20386966.6214
  10349053.69147   8067327.15244  22514385.4924                   22514384.6524
   2009813.60947   1575618.69145  22490005.4844                   22490001.7384
 -12184363.35947  -9488290.15645  22545553.2894                   22545551.1134
 -19603399.89548 -15270099.84446  21152783.2814                   21152781.6334
 -15354967.81647 -11963956.89845  21978818.2504                   21978815.8674
 11  7 28 19 36  0.0000000  0  8G17G24G07G13G19G28G08G11
  -5135899.83246  -3992325.48844  24322962.1094                   24322964.9614
  -8413424.89147  -6549099.66444  23301590.4144                   23301592.3874
 -14240693.49248 -11091847.33647  20386737.5234                   20386735.0904
  10464477.46547   8157267.64145  22536349.8054                   22536349.7934
   2107772.64147   1651950.37545  22508646.2584                   22508643.1454
 -12206037.93447  -9505179.41045  22541428.4614                   22541425.8874
 -19654063.71147 -15309578.12546  21143142.0554                   21143141.0124
 -15388019.23047 -11989711.21945  21972529.0004                   21972527.9844
 11  7 28 19 36 30.0000000  0  8G17G24G07G13G19G28G08G11
  -5227093.03146  -4063384.80544  24305608.0314                   24305611.3014
  -8472438.92647  -6595084.55544  23290361.0554                   23290362.2384
 -14241556.34848 -11092519.69547  20386573.5554                   20386571.4184
  10580090.08647   8247355.31344  22558350.4694                   22558350.3054
   2206027.03947   1728512.20745  22527344.3054                   22527341.0514
 -12227623.50047  -9521999.32845  22537321.0704                   22537318.6954
 -19704553.46948 -15348920.78146  21133534.4304                   21133532.7664
 -15420655.16847 -12015141.77345  21966318.1954                   21966317.3834
 11  7 28 19 37  0.0000000  0  8G17G24G07G13G19G28G08G11
  -5318174.26246  -4134356.85044  24288275.9774                   24288278.9494
  -8531301.88347  -6640951.69544  23279159.7114                   23279160.8324
 -14242059.39848 -11092911.68447  20386477.8054                   20386474.9964
  10695894.80547   8337592.65244  22580387.4224                   22580387.3014
   2304580.14547   1805306.80545  22546098.2424                   22546095.1094
 -12249114.52047  -9538745.55145  22533231.4224                   22533229.2114
 -19754860.30148 -15388120.89146  21123961.5554                   21123959.4884
 -15452866.28547 -12040241.28545  21960189.0314                   21960186.7774
 11  7 28 19 37 30.0000000  0  8G17G24G07G13G19G28G08G11
  -5409139.22346  -4205238.32844  24270964.4774                   24270968.5594
  -8590008.95747  -6686697.36344  23267988.0864                   23267988.6914
 -14242199.62548 -11093020.95347  20386450.8984                   20386448.7154
  10811890.51247   8427978.80544  22602460.7274                   22602460.4344
   2403431.09047   1882333.47745  22564908.6804                   22564905.5514
 -12270510.14147  -9555417.44545  22529159.7194                   22529158.2504
 -19804980.28548 -15427175.41046  21114424.0084                   21114422.0164
 -15484648.51647 -12065006.60545  21954141.0784                   21954139.2304
 11  7 28 19 38  0.0000000  0  8G17G24G07G13G19G28G08G11
  -5499983.00046  -4276025.37943  24253678.6804                   24253680.8094
  -8648553.87147  -6732316.69544  23256847.5944                   23256847.7034
 -14241971.84848 -11092843.46547  20386494.2344                   20386491.8404
  10928077.30147   8518513.85944  22624570.7664                   22624569.8134
   2502580.17647   1959592.48045  22583775.7114                   22583772.5394
 -12291807.99247  -9572013.14145  22525107.0084                   22525105.5354
 -19854907.82048 -15466079.97746  21104922.8134                   21104921.6374
 -15515996.68047 -12089433.70345  21948175.6174                   21948173.4734
 11  7 28 19 38 30.0000000  0  8G17G24G07G13G19G28G08G11
  -5590695.60945  -4346710.25443  24236414.7194                   24236418.6334
  -8706925.38347  -6777800.91844  23245739.8674                   23245739.9804
 -14241367.07448 -11092372.21946  20386609.4304                   20386606.6134
  11044459.85947   8609201.47744  22646717.1254                   22646717.2114
   2602032.57847   2037087.82845  22602701.1094                   22602697.0634
 -12313000.87147  -9588527.04745  22521074.0474                   22521072.6994
 -19904632.54348 -15504826.49646  21095460.7424                   21095459.1804
 -15546900.19548 -12113514.31245  21942295.1484                   21942293.1764
 11  7 28 19 39  0.0000000  0  8G17G24G07G13G19G28G08G11
  -5681277.12946  -4417292.95343  24219178.2894                   24219181.7424
  -8765122.88347  -6823149.52344  23234664.2274                   23234665.5984
 -14240385.42648 -11091607.29746  20386795.8984                   20386793.4144
  11161032.73447   8700037.35544  22668900.6484                   22668900.6724
   2701783.13347   2114815.50445  22621682.5314                   22621679.4654
 -12334091.91447  -9604961.59445  22517060.4454                   22517059.3444
 -19954154.32848 -15543414.88746  21086036.6484                   21086035.1914
 -15577358.90247 -12137248.32845  21936498.7894                   21936496.7464
 11  7 28 19 39 30.0000000  0  8G17G24G07G13G19G28G08G11
  -5771732.50046  -4487777.39843  24201964.7034                   24201968.2814
  -8823150.56647  -6868365.77344  23223622.4534                   23223623.4884
 -14239032.46548 -11090553.05147  20387053.6484                   20387051.2624
  11277786.10247   8791013.90244  22691117.7584                   22691117.6684
   2801822.03947   2192767.86345  22640719.6884                   22640716.6024
 -12355089.15247  -9621323.04745  22513064.8444                   22513063.2234
 -20003478.06648 -15581848.95746  21076650.9614                   21076648.9144
 -15607377.89147 -12160639.70345  21930786.3444                   21930784.6294
 11  7 28 19 40  0.0000000  0  8G17G24G07G13G19G28G08G11
  -5862039.14146  -4558145.97743  24184779.6804                   24184782.8714
  -8880983.89847  -6913430.61344  23212617.1174                   23212617.7894
 -14237285.59048 -11089191.84847  20387385.5234                   20387383.5234
  11394737.97747   8882145.13744  22713373.0084                   22713373.0394
   2902167.53147   2270959.12545  22659815.3204                   22659812.2504
 -12375972.20347  -9637595.53545  22509090.6884                   22509088.8634
 -20052580.67648 -15620110.70746  21067306.7114                   21067305.8284
 -15636933.45747 -12183669.97345  21925162.1954                   21925160.4534
 11  7 28 19 40 30.0000000  0  8G17G24G07G13G19G28G08G11
  -5952200.13346  -4628401.07043  24167622.8594                   24167625.2234
  -8938624.82846  -6958345.50843  23201648.3204                   23201648.3834
 -14235148.46148 -11087526.56647  20387792.5474                   20387790.2034
  11511879.95347   8973424.48844  22735664.5084                   22735664.1684
   3002811.64147   2349383.06645  22678967.6954                   22678963.8594
 -12396747.02747  -9653783.67645  22505137.9224                   22505135.7974
 -20101464.60948 -15658202.06646  21058004.3594                   21058003.2464
 -15666028.69547 -12206341.54345  21919625.7584                   21919623.6054
 11  7 28 19 41  0.0000000  0  8G17G24G07G13G19G28G08G11
  -6042208.31646  -4698537.11343  24150494.5944                   24150497.2854
  -8996065.79546  -7003104.60043  23190717.1644                   23190717.8794
 -14232614.59848 -11085552.13347  20388275.0084                   20388272.4734
  11629213.54347   9064853.14544  22757993.0704                   22757992.8134
   3103756.07047   2428041.03545  22698175.8594                   22698173.1764
 -12417409.84447  -9669884.55145  22501206.2894                   22501203.1484
 -20150122.71548 -15696117.45346  21048745.1024                   21048744.1764
 -15694656.51647 -12228648.90245  21914177.7664                   21914175.8914
 11  7 28 19 41 30.0000000  0  8G17G24G07G13G19G28G08G11
  -6132060.06647  -4768551.28544  24133396.4144                   24133398.4614
  -9053301.91446  -7047704.05544  23179825.9454                   23179825.9574
 -14229680.96548 -11083266.19147  20388833.3984                   20388830.6764
  11746737.43447   9156430.09044  22780356.5554                   22780356.7664
   3204999.94147   2506932.31645  22717442.1644                   22717439.1604
 -12437959.66447  -9685897.37145  22497295.1954                   22497293.4614
 -20198550.96548 -15733853.74246  21039529.8524                   21039528.1054
 -15722813.10247 -12250589.05945  21908819.6174                   21908817.9264
 11  7 28 19 42  0.0000000  0  8G17G24G07G13G19G28G08G11
  -6221741.83246  -4838432.96544  24116330.4064                   24116333.2074
  -9110318.10546  -7092132.17643  23168975.7424                   23168975.3164
 -14226333.98048 -11080658.16047  20389470.1024                   20389467.6024
  11864460.78147   9248162.44544  22802758.8204                   22802758.7854
   3306551.99247   2586063.73845  22736767.3594                   22736763.9064
 -12458385.52347  -9701813.60245  22493408.3594                   22493406.3714
 -20246734.94548 -15771399.68446  21030360.8914                   21030359.2424
 -15750484.41447 -12272151.08645  21903553.8204                   21903552.1254
 11  7 28 19 42 30.0000000  0  8G17G24G07G13G19G28G08G11
  -6311260.78947  -4908187.83644  24099295.4844                   24099297.8914
  -9167120.79347  -7136393.89544  23158167.1174                   23158166.6954
 -14222581.71548 -11077734.31647  20390184.2814                   20390181.7344
  11982370.89547   9340040.32444  22825196.6954                   22825196.1414
   3408400.26647   2665425.97745  22756148.4924                   22756145.3794
 -12478697.71547  -9717641.23845  22489542.8914                   22489541.0474
 -20294681.92248 -15808760.95746  21021236.9384                   21021235.0904
 -15777677.40647 -12293340.41045  21898379.3054                   21898377.5744
 11  7 28 19 43  0.0000000  0  8G17G24G07G13G19G28G08G11
  -6400620.44546  -4977818.54344  24082290.1724                   24082293.5394
  -9223712.25847  -7180491.04744  23147397.3524                   23147398.2274
 -14218427.85548 -11074497.54347  20390975.0394                   20390972.2464
  12100459.21147   9432057.07844  22847667.9454                   22847668.3714
   3510536.58247   2745012.66445  22775583.9774                   22775580.5944
 -12498902.18747  -9733384.95745  22485698.3444                   22485696.2154
 -20342395.21148 -15845940.12946  21012157.0164                   21012155.4574
 -15804395.56248 -12314159.72345  21893294.5314                   21893292.5944
 11  7 28 19 43 30.0000000  0  8G17G24G07G13G19G28G08G11
  -6489823.30147  -5047327.07443  24065315.7424                   24065317.7774
  -9280093.76247  -7224424.59444  23136669.4224                   23136668.4144
 -14213875.22748 -11070950.04347  20391841.1724                   20391838.3594
  12218718.23047   9524206.84844  22870171.8364                   22870172.1024
   3612953.76647   2824818.23045  22795073.5004                   22795069.2194
 -12519004.46547  -9749049.03145  22481872.8524                   22481870.7544
 -20389876.52048 -15882938.53946  21003121.8444                   21003120.2504
 -15830640.96147 -12334610.64145  21888300.4614                   21888298.4224
 11  7 28 19 44  0.0000000  0  8G17G24G07G13G19G28G08G11
  -6578868.48046  -5116712.74244  24048370.1414                   24048373.2234
  -9336263.29747  -7268193.00044  23125979.8444                   23125979.6024
 -14208923.64848 -11067091.67647  20392783.1644                   20392781.2774
  12337143.75447   9616486.35244  22892707.6174                   22892708.0234
   3715647.53947   2904839.31245  22814615.5554                   22814612.1294
 -12539006.59847  -9764635.07845  22478065.8134                   22478064.7384
 -20437124.70748 -15919755.29346  20994130.6564                   20994128.7974
 -15856412.58647 -12354692.40645  21883396.1334                   21883394.3244
 11  7 28 19 44 30.0000000  0  8G17G24G07G13G19G28G08G11
  -6667753.66046  -5185973.73444  24031456.6564                   24031458.9104
  -9392217.68047  -7311793.69944  23115331.8284                   23115331.9024
 -14203571.43748 -11062921.12147  20393801.3524                   20393799.1684
  12455732.82047   9708893.28144  22915274.5084                   22915274.8444
   3818615.53947   2985074.09045  22834209.5864                   22834206.5474
 -12558908.89847  -9780143.32445  22474278.9224                   22474277.4304
 -20484136.94948 -15956388.19546  20985184.3834                   20985183.4264
 -15881708.10547 -12374403.15645  21878582.1804                   21878580.7544
 11  7 28 19 45  0.0000000  0  9G17G24G07G26G13G19G28G08G11
  -6756473.64546  -5255105.97344  24014573.4144                   24014576.0944
  -9447950.45347  -7355221.72744  23104725.5944                   23104725.7704
 -14197813.46148 -11058434.39547  20394897.5474                   20394895.0274
  -4831159.45357  -3757174.56353  24037593.9304                   24037593.9844
  12574485.73847   9801427.90644  22937872.6334                   22937872.2384
   3921858.04747   3065522.75845  22853856.5084                   22853853.0554
 -12578709.02347  -9795571.94545  22470511.2894                   22470509.3364
 -20530907.61348 -15992832.84846  20976284.3054                   20976282.9184
 -15906521.95747 -12393738.60245  21873860.5394                   21873859.3444
 11  7 28 19 45 30.0000000  0  9G17G24G07G26G13G19G28G08G11
  -6845033.71546  -5324113.64144  23997720.8594                   23997723.1294
  -9503466.05147  -7398480.54744  23094161.8594                   23094161.7234
 -14191656.19948 -11053636.52347  20396069.0474                   20396066.9734
  -4901498.31647  -3811983.98843  24024208.0554                   24024208.8324
  12693391.93047   9894081.94544  22960500.0394                   22960500.0904
   4025364.75847   3146177.29345  22873553.1414                   22873550.5004
 -12598415.31647  -9810927.48845  22466761.1024                   22466759.6334
 -20577442.03548 -16029093.41446  20967429.1484                   20967427.6254
 -15930860.05947 -12412703.32045  21869229.2814                   21869227.5784
 11  7 28 19 46  0.0000000  0  9G17G24G07G26G13G19G28G08G11
  -6933437.77047  -5392999.72744  23980898.3204                   23980900.2734
  -9558766.55947  -7441571.75044  23083638.6954                   23083639.0864
 -14185103.07448 -11048530.19947  20397315.8674                   20397314.0984
  -4971427.84847  -3866474.48044  24010901.5234                   24010902.0784
  12812443.52347   9986849.29344  22983154.8364                   22983155.0554
   4129127.95747   3227031.69545  22893298.0554                   22893295.4344
 -12618033.67647  -9826214.48445  22463027.9224                   22463026.0784
 -20623742.76248 -16065171.89146  20958618.1804                   20958616.9964
 -15954725.12947 -12431299.44545  21864687.5704                   21864686.3484
 11  7 28 19 46 30.0000000  0  9G17G24G07G26G13G19G28G08G11
  -7021687.39546  -5461765.49644  23964104.4844                   23964107.4264
  -9613853.08647  -7484496.24244  23073156.0474                   23073156.5274
 -14178156.98448 -11043117.66047  20398637.7894                   20398635.5004
  -5040949.26647  -3920646.92643  23997671.6804                   23997672.5274
  12931632.77347  10079723.91444  23005835.8444                   23005835.9734
   4233140.39547   3308080.29745  22913091.3984                   22913088.2854
 -12637569.29347  -9841437.01645  22459310.6094                   22459308.0234
 -20669811.68448 -16101069.73846  20949851.4454                   20949849.9964
 -15978119.35947 -12449528.69545  21860236.0634                   21860233.8834
 11  7 28 19 47  0.0000000  0  9G17G24G07G26G13G19G28G08G11
  -7109781.60247  -5530410.14544  23947341.1724                   23947342.8914
  -9668723.34447  -7527252.19944  23062714.2114                   23062714.7154
 -14170817.03948 -11037398.22747  20400034.8284                   20400032.0084
  -5110060.94147  -3974500.07443  23984520.4454                   23984520.7544
  13050955.93047  10172702.86744  23028542.4694                   23028542.4844
   4337398.38747   3389320.23845  22932930.6254                   22932927.3524
 -12657023.47747  -9856596.09845  22455608.5164                   22455606.4224
 -20715647.19948 -16136785.71146  20941129.3834                   20941128.1134
 -16001041.45347 -12467390.03945  21855873.7584                   21855872.5204
 11  7 28 19 47 30.0000000  0  9G17G24G07G26G13G19G28G08G11
  -7197717.53147  -5598931.48044  23930606.8444                   23930608.6254
  -9723373.08647  -7569836.34044  23052314.3674                   23052314.3054
 -14163080.79348 -11031369.99247  20401506.8754                   20401504.8094
  -5178759.09047  -4028031.06644  23971447.2974                   23971447.7854
  13170411.02747  10265784.63344  23051273.6724                   23051273.8674
   4441900.51647   3470750.41445  22952816.2734                   22952813.6214
 -12676396.21147  -9871691.70345  22451922.3364                   22451919.5314
 -20761245.67248 -16172316.96946  20932452.2894                   20932450.5904
 -16023488.52347 -12484881.24645  21851602.7814                   21851600.3244
 11  7 28 19 48  0.0000000  0  9G17G24G07G26G13G19G28G08G11
  -7285484.75847  -5667321.35544  23913905.1804                   23913906.9414
  -9777790.59047  -7612239.50044  23041959.1414                   23041959.0084
 -14154938.45348 -11025025.31247  20403055.9144                   20403053.7544
  -5247032.87546  -4081231.32443  23958455.0004                   23958456.0084
  13290003.33247  10358973.29744  23074031.6954                   23074032.1914
   4546652.23047   3552375.08645  22972750.6884                   22972747.6454
 -12695679.62947  -9886717.72745  22448252.1954                   22448250.0234
 -20806596.03148 -16207654.89146  20923822.3834                   20923820.5784
 -16045449.78147 -12501993.89145  21847423.6414                   21847421.2734
 11  7 28 19 48 30.0000000  0  9G17G24G07G26G13G19G28G08G11
  -7373083.30947  -5735579.78544  23897236.3754                   23897237.7894
  -9831974.92647  -7654461.02044  23031648.3284                   23031648.0824
 -14146390.54748 -11018364.60947  20404682.9064                   20404680.3554
  -5314881.35547  -4134100.21143  23945544.4534                   23945544.1804
  13409728.12547  10452265.19144  23096814.4454                   23096815.4884
   4651648.74247   3634190.52345  22992731.1804                   22992727.8014
 -12714876.80547  -9901676.54745  22444599.2894                   22444596.9144
 -20851698.37948 -16242799.57446  20915239.4224                   20915237.1914
 -16066925.79747 -12518728.43045  21843336.6174                   21843334.8054
 11  7 28 19 49  0.0000000  0  9G17G24G07G26G13G19G28G08G11
  -7460498.53547  -5803695.38344  23880601.3984                   23880603.0084
  -9885910.57447  -7696488.73844  23021384.3754                   23021385.1804
 -14137423.23448 -11011377.09447  20406389.2664                   20406386.6844
  -5382289.38746  -4186625.91443  23932716.6954                   23932716.6724
  13529594.69147  10545667.56344  23119624.8284                   23119625.3164
   4756899.98047   3716204.44145  23012759.4614                   23012755.9454
 -12733975.58647  -9916558.68745  22440964.9774                   22440962.7814
 -20896537.29348 -16277738.98046  20906707.0164                   20906705.1374
 -16087901.29747 -12535072.95345  21839345.0234                   21839343.6134
 11  7 28 19 49 30.0000000  0  9G17G24G07G26G13G19G28G08G11
  -7547733.11747  -5871670.21144  23864000.2974                   23864002.4494
  -9939598.84047  -7738323.66044  23011167.7974                   23011168.3014
 -14128039.37148 -11004065.00447  20408175.0784                   20408172.5004
  -5449259.04346  -4238809.97743  23919972.6024                   23919973.0044
  13649595.51247  10639174.53944  23142460.0004                   23142461.0664
   4862398.35547   3798410.93745  23032835.6484                   23032832.2034
 -12752981.24647  -9931368.26645  22437348.2894                   22437346.4104
 -20941115.03548 -16312474.86746  20898224.1334                   20898222.8984
 -16108379.09847 -12551029.66045  21835448.4454                   21835447.0084
 11  7 28 19 50  0.0000000  0  9G17G24G07G26G13G19G28G08G11
  -7634784.87147  -5939502.56644  23847435.2584                   23847436.6724
  -9993036.38347  -7779963.21944  23000998.8054                   23000999.2624
 -14118237.24248 -10996426.98447  20410040.2894                   20410037.6954
  -5515787.27345  -4290650.07443  23907311.1954                   23907312.8524
  13769727.86347  10732784.02344  23165320.9384                   23165321.0944
   4968141.69947   3880808.32445  23052957.4304                   23052954.3524
 -12771894.37947  -9946105.75445  22433749.4224                   22433746.8794
 -20985428.57848 -16347004.89546  20889791.8444                   20889790.4964
 -16128357.07447 -12566596.89545  21831646.9454                   21831645.1954
 11  7 28 19 50 30.0000000  0  9G17G24G07G26G13G19G28G08G11
  -7721647.48447  -6007187.56244  23830906.0634                   23830906.8984
 -10046215.99247  -7821401.82044  22990879.6254                   22990878.5004
 -14108011.37548 -10988458.78947  20411986.2194                   20411984.1644
  -5581867.29745  -4342140.89843  23894737.4614                   23894738.2194
  13889992.73847  10826496.75844  23188206.4844                   23188207.1334
   5074131.20347   3963397.50045  23073126.4844                   23073123.4184
 -12790711.47747  -9960768.41445  22430168.5474                   22430166.1254
 -21029471.68048 -16381324.18046  20881410.4614                   20881409.0234
 -16147828.97347 -12581769.77345  21827941.2734                   21827939.3754
 11  7 28 19 51  0.0000000  0  9G17G24G07G26G13G19G28G08G11
  -7808316.27747  -6074721.53544  23814413.5554                   23814414.3914
 -10099131.52747  -7862634.63744  22980809.8364                   22980807.4494
 -14097357.36348 -10980156.96147  20414013.7034                   20414011.3014
  -5647493.62146  -4393278.23843  23882249.1024                   23882250.1374
  14010390.62947  10920313.14544  23211117.2504                   23211117.9454
   5180367.39147   4046178.89545  23093342.4534                   23093340.0554
 -12809430.58647  -9975354.69545  22426606.3364                   22426603.7384
 -21073238.46948 -16415428.16046  20873081.8284                   20873080.2424
 -16166790.05147 -12596544.62945  21824332.9924                   21824331.4454
 11  7 28 19 51 30.0000000  0  9G17G24G07G26G13G19G28G08G11
  -7894791.66847  -6142104.77044  23797957.1024                   23797958.5164
 -10151782.19947  -7903661.05544  22970789.8444                   22970788.8524
 -14086276.27348 -10971522.34847  20416122.2664                   20416119.9264
  -5712665.96546  -4444061.82443  23869847.7114                   23869848.1094
  14130915.66847  11014228.60544  23234052.9064                   23234053.4574
   5286844.89847   4129148.32445  23113604.9844                   23113602.2894
 -12828054.50447  -9989866.80545  22423062.3134                   22423060.0904
 -21116729.10248 -16449316.94946  20864806.1724                   20864803.9494
 -16185240.66847 -12610921.71945  21820822.1254                   21820819.8594
 11  7 28 19 52  0.0000000  0  9G17G24G07G26G13G19G28G08G11
  -7981071.41447  -6209335.57044  23781538.9144                   23781539.5314
 -10204165.13347  -7944478.85944  22960821.5634                   22960821.4844
 -14074766.70348 -10962553.86347  20418312.6484                   20418310.2344
  -5777381.84846  -4494489.75043  23857532.3134                   23857533.5704
  14251564.84847  11108240.78944  23257011.5554                   23257012.3524
   5393561.05947   4212303.73445  23133912.6254                   23133909.6214
 -12846584.30147 -10004305.58645  22419535.8284                   22419533.8324
 -21159941.14148 -16482988.66046  20856582.9774                   20856581.6914
 -16203179.15247 -12624899.74245  21817408.5084                   21817407.0434
 11  7 28 19 52 30.0000000  0  9G17G24G07G26G13G19G28G08G11
  -8067151.45747  -6276410.73044  23765158.0554                   23765159.4844
 -10256274.45747  -7985083.42644  22950905.6954                   22950905.6134
 -14062824.69148 -10953248.40647  20420584.9224                   20420582.5394
  -5841636.12546  -4544557.94943  23845305.3914                   23845305.5234
  14372337.98447  11202349.57444  23279993.8444                   23279995.3954
   5500515.55147   4295644.85545  23154264.9694                   23154262.0704
 -12865017.91447 -10018669.41845  22416028.2504                   22416026.6174
 -21202869.26248 -16516439.12946  20848414.0634                   20848412.2854
 -16220600.76647 -12638475.00445  21814093.3364                   21814091.8874
 11  7 28 19 53  0.0000000  0  9G17G24G07G26G13G19G28G08G11
  -8153037.82447  -6343335.02044  23748814.2504                   23748815.8524
 -10308115.22347  -8025478.72744  22941040.5944                   22941041.3164
 -14050457.03548 -10943611.28147  20422938.4224                   20422936.0434
  -5905434.16046  -4594270.65243  23833165.3204                   23833165.2814
  14493223.85947  11296546.19144  23302997.8674                   23302998.4964
   5607697.60247   4379163.29345  23174661.2974                   23174657.9574
 -12883364.34047 -10032965.29345  22412536.9144                   22412535.2504
 -21245518.88348 -16549672.58646  20840298.2034                   20840296.6454
 -16237512.03547 -12651652.59045  21810875.0394                   21810873.0084
 11  7 28 19 53 30.0000000  0  9G17G24G07G26G13G19G28G08G11
  -8238729.37947  -6410107.46544  23732506.9224                   23732509.4184
 -10359685.16047  -8065663.02044  22931227.4454                   22931228.0824
 -14037663.15648 -10933642.02747  20425373.2194                   20425370.8634
  -5968774.56647  -4643626.78544  23821111.9774                   23821112.2504
  14614218.44947  11390827.56344  23326022.7344                   23326023.1524
   5715103.50447   4462856.17645  23195099.9694                   23195096.4344
 -12901624.88347 -10047194.25445  22409061.6804                   22409060.0314
 -21287888.98448 -16582688.23846  20832235.2814                   20832233.5394
 -16253911.94947 -12664431.71945  21807754.3444                   21807752.8364
 11  7 28 19 54  0.0000000  0  9G17G24G07G26G13G19G28G08G11
  -8324226.37947  -6476728.34844  23716237.8364                   23716239.1764
 -10410983.41847  -8105635.62144  22921465.8284                   22921465.1454
 -14024444.00048 -10923341.39847  20427888.7194                   20427886.2624
  -6031656.87547  -4692625.92243  23809145.7974                   23809145.6334
  14735316.64547  11485189.63743  23349066.8674                   23349067.6294
   5822728.74247   4546719.96544  23215579.9614                   23215576.5704
 -12919802.33247 -10061358.46945  22405602.4454                   22405600.7544
 -21329979.13748 -16615485.75046  20824225.8284                   20824224.2464
 -16269800.63747 -12676812.48845  21804730.8524                   21804729.2814
 11  7 28 19 54 30.0000000  0  9G17G24G07G26G13G19G28G08G11
  -8409532.08247  -6543200.16444  23700004.5944                   23700005.8834
 -10462012.01647  -8145398.10244  22911754.4774                   22911754.5634
 -14010803.16048 -10912712.18047  20430484.4144                   20430481.8244
  -6094083.57847  -4741270.06243  23797265.6954                   23797266.4454
  14856510.65647  11579626.33643  23372130.0164                   23372130.3364
   5930565.64547   4630748.69145  23236100.8834                   23236097.3244
 -12937902.78147 -10075462.68045  22402158.2974                   22402156.7854
 -21371791.68448 -16648066.93446  20816269.3364                   20816267.5664
 -16285181.08647 -12688797.22745  21801804.0314                   21801802.0164
 11  7 28 19 55  0.0000000  0  9G17G24G07G26G13G19G28G08G11
  -8494648.13347  -6609524.17244  23683807.8134                   23683808.7704
 -10512771.89147  -8184951.14844  22902094.6024                   22902095.3834
 -13996743.16448 -10901756.34847  20433160.0394                   20433157.3874
  -6156056.02747  -4789560.25443  23785473.1724                   23785473.0864
  14977793.62547  11674132.37144  23395209.2194                   23395210.6954
   6038607.15647   4714936.84044  23256660.6094                   23256656.9844
 -12955930.56247 -10089510.27345  22398728.0164                   22398726.1994
 -21413327.71148 -16680432.66046  20808365.2034                   20808363.3674
 -16300056.02347 -12700388.06245  21798973.1954                   21798971.4264
 11  7 28 19 55 30.0000000  0  9G17G24G07G26G13G19G28G08G11
  -8579570.61347  -6675697.35544  23667646.7274                   23667648.4734
 -10563257.85547  -8224290.77744  22892488.4924                   22892488.4184
 -13982260.71948 -10890471.33247  20435915.8594                   20435913.2504
  -6217569.65647  -4837492.91043  23773767.7814                   23773767.2384
  15099164.53547  11768706.91443  23418305.1334                   23418307.0864
   6146852.85247   4799284.08645  23277259.2584                   23277255.7154
 -12973884.20747 -10103500.10245  22395311.5164                   22395309.4144
 -21454582.84448 -16712579.49646  20800514.3204                   20800512.9304
 -16314421.45747 -12711581.87945  21796239.5004                   21796237.6604
 11  7 28 19 56  0.0000000  0  9G17G24G07G26G13G19G28G08G11
  -8664301.97347  -6741721.61744  23651522.9454                   23651524.4184
 -10613470.62547  -8263417.53544  22882933.0004                   22882933.5164
 -13967358.47348 -10878859.19547  20438751.4694                   20438749.1564
  -6278626.12147  -4885069.32443  23762149.5234                   23762148.8134
  15220616.32847  11863344.49644  23441417.1174                   23441418.2074
   6255296.28147   4883785.42245  23297895.7114                   23297892.0744
 -12991768.54747 -10117435.91845  22391907.9694                   22391906.2424
 -21495558.53548 -16744508.59846  20792717.1564                   20792715.6174
 -16328279.52047 -12722380.33645  21793602.4224                   21793600.1094
 11  7 28 19 56 30.0000000  0  9G17G24G07G26G13G19G28G08G11
  -8748844.03147  -6807598.39844  23635434.8364                   23635436.2234
 -10663411.24647  -8302332.23444  22873429.7814                   22873430.6804
 -13952039.39848 -10866922.26247  20441666.5234                   20441664.4774
  -6339226.77747  -4932290.55943  23750616.8594                   23750616.7034
  15342142.35947  11958039.91844  23464543.3444                   23464544.1644
   6363930.53947   4968435.43845  23318567.8054                   23318564.8444
 -13009588.34047 -10131321.45745  22388517.2034                   22388515.2234
 -21536256.20748 -16776221.05946  20784972.4614                   20784970.8674
 -16341632.81247 -12732785.47345  21791061.7344                   21791058.9844
 11  7 28 19 57  0.0000000  0  9G17G24G07G26G13G19G28G08G11
 -10408606.59047  -8100919.69544  23319592.6884                   23319593.9264
 -12288487.00447  -9568624.97344  22564187.9454                   22564188.5984
 -15511710.31248 -12082250.26647  20144871.7734                   20144869.0084
  -7974780.12547  -6206747.63743  23439380.9844                   23439381.5394
  13888334.51247  10825202.45744  23187892.6644                   23187893.8054
   4897347.56347   3825643.45345  23039486.6334                   23039483.3524
 -14602753.48847 -11372748.80945  22085347.8914                   22085346.1524
 -23152083.59448 -18035307.32046  20477490.7344                   20477489.0124
 -17929888.72347 -13970387.44945  21488826.2894                   21488824.1134
 11  7 28 19 57 30.0000000  0  9G17G24G07G26G13G19G28G08G11
 -10492751.14847  -8166486.70344  23303580.3204                   23303581.5864
 -12337860.64147  -9607097.86344  22554793.0784                   22554793.3014
 -15495539.94148 -12069649.98447  20147948.5394                   20147946.1254
  -8034448.49646  -6253242.42643  23428027.2424                   23428026.5234
  14010013.09847  10920016.73044  23211047.3914                   23211048.4734
   5006368.66846   3910594.92244  23060232.3444                   23060228.7274
 -14620432.72347 -11386524.80945  22081983.7974                   22081981.6254
 -23192204.48048 -18066570.34046  20469855.7114                   20469854.4104
 -17942213.44147 -13979991.09845  21486480.9454                   21486478.6804
 11  7 28 19 58  0.0000000  0  9G17G24G07G26G13G19G28G08G11
 -10576698.07447  -8231899.72744  23287605.1724                   23287606.7854
 -12386950.46547  -9645349.60244  22545451.1954                   22545451.5864
 -15478946.33648 -12056719.91047  20151106.1414                   20151103.5824
  -8093651.27746  -6299374.38743  23416760.2734                   23416761.3874
  14131759.57847  11014883.94544  23234215.1174                   23234216.1764
   5115575.00847   3995690.72744  23081013.7974                   23081009.8284
 -14638046.80947 -11400250.04345  22078631.9694                   22078629.2384
 -23232037.28948 -18097608.87146  20462276.2274                   20462274.4414
 -17954025.63747 -13989195.37145  21484233.3284                   21484231.1524
 11  7 28 19 58 30.0000000  0  9G17G24G07G26G13G19G28G08G11
 -10660438.71547  -8297152.00444  23271670.5634                   23271671.6414
 -12435746.20347  -9683372.20344  22536165.8364                   22536165.8554
 -15461921.02048 -12043453.44147  20154345.8054                   20154343.3634
  -8152378.82047  -6345136.04344  23405585.4384                   23405585.9534
  14253577.83647  11109807.07844  23257396.7424                   23257397.8554
   5224970.96146   4080934.26644  23101830.9384                   23101827.2624
 -14655589.46547 -11413919.61745  22075293.2194                   22075290.9024
 -23271572.11348 -18128415.21146  20454752.9224                   20454751.7734
 -17965316.56247 -13997993.46145  21482084.6884                   21482082.4654
 11  7 28 19 59  0.0000000  0  9G17G24G07G26G13G19G28G08G11
 -10743981.10247  -8362249.83644  23255772.4454                   23255773.4734
 -12484254.78147  -9721171.02344  22526934.6094                   22526935.0004
 -15444472.57848 -12029857.26247  20157666.1254                   20157663.5744
  -8210638.83246  -6390533.40643  23394498.4774                   23394498.6254
  14375455.19947  11204776.23843  23280588.9694                   23280590.4534
   5334544.06646   4166315.86344  23122681.9304                   23122678.2664
 -14673071.10247 -11427541.64545  22071966.8674                   22071964.4454
 -23310816.45348 -18158995.21146  20447284.9064                   20447283.6254
 -17976094.35247 -14006391.71145  21480033.7504                   21480031.2464
 11  7 28 19 59 30.0000000  0  9G17G24G07G26G13G19G28G08G11
 -10827327.77347  -8427195.10944  23239912.0234                   23239912.9454
 -12532477.81247  -9758747.34044  22517758.1884                   22517758.9414
 -15426604.64148 -12015934.20747  20161066.7274                   20161064.1374
  -8268433.56247  -6435568.18443  23383501.1954                   23383500.2774
  14497384.11747  11299785.59443  23303791.3364                   23303793.0664
   5444287.01646   4251829.81644  23143565.9144                   23143562.2734
 -14690496.81247 -11441120.11345  22068651.1954                   22068648.5824
 -23349772.55948 -18189350.60246  20439871.3444                   20439869.8874
 -17986362.46147 -14014392.81245  21478079.5234                   21478077.1484
 11  7 28 20  0  0.0000000  0  9G17G24G07G26G13G19G28G08G11
 -10910474.24647  -8491984.43744  23224089.4774                   23224090.8484
 -12580409.23047  -9796096.42644  22508637.3674                   22508637.9694
 -15408313.23848 -12001681.17646  20164546.8134                   20164544.5084
  -8325757.71546  -6480236.28944  23372591.6484                   23372591.9534
  14619364.48447  11394835.01244  23327003.6954                   23327005.1174
   5554200.18446   4337476.38744  23164481.2344                   23164478.3094
 -14707864.64847 -11454653.47745  22065345.6024                   22065343.2734
 -23388434.93448 -18219477.12146  20432514.6724                   20432512.8054
 -17996116.23447 -14021993.11745  21476223.3754                   21476221.1134
 11  7 28 20  0 30.0000000  0  9G17G24G07G26G13G19G28G08G11
 -10993418.90647  -8556616.46544  23208305.9224                   23208306.7424
 -12628046.73047  -9833216.48844  22499572.3674                   22499573.4064
 -15389597.56648 -11987097.54747  20168108.5704                   20168105.9654
  -8382609.48846  -6524536.31644  23361773.3364                   23361773.9494
  14741392.92247  11489921.89843  23350225.6804                   23350227.1374
   5664280.36746   4423253.10544  23185427.7974                   23185425.8634
 -14725175.56647 -11468142.47345  22062051.7504                   22062049.5784
 -23426801.51648 -18249373.13746  20425213.7424                   20425212.2854
 -18005354.41047 -14029191.67245  21474465.8444                   21474463.3484
 11  7 28 20  1  0.0000000  0  9G17G24G07G26G13G19G28G08G11
 -11076159.89547  -8621089.82444  23192559.9614                   23192560.9574
 -12675387.19547  -9870105.09844  22490563.0234                   22490564.4844
 -15370456.34848 -11972182.32447  20171750.9454                   20171748.7194
  -8438986.52346  -6568466.40643  23351044.5474                   23351045.5004
  14863466.79747  11585044.18843  23373455.6024                   23373457.3054
   5774524.91446   4509157.88744  23206407.5164                   23206404.9064
 -14742430.03147 -11481587.48445  22058767.9384                   22058766.2074
 -23464869.63748 -18279036.60246  20417969.7034                   20417967.9144
 -18014075.48847 -14035987.28545  21472805.8594                   21472803.5514
 11  7 28 20  1 30.0000000  0  9G17G24G07G26G13G19G28G08G11
 -11158699.44947  -8685406.18744  23176854.3754                   23176854.0984
 -12722431.73447  -9906763.12944  22481611.6564                   22481611.4614
 -15350892.30948 -11956937.62947  20175473.9144                   20175471.7664
  -8494890.10246  -6612027.59443  23340407.0864                   23340407.0434
  14985578.76647  11680196.14143  23396693.2584                   23396694.3054
   5884927.36746   4595185.71144  23227416.2894                   23227413.8594
 -14759632.88347 -11494992.29345  22055494.5314                   22055492.6844
 -23502640.92248 -18308468.75846  20410781.5864                   20410779.9734
 -18022282.00847 -14042381.94945  21471244.3444                   21471241.8594
 11  7 28 20  2  0.0000000  0  9G17G24G07G26G13G19G28G08G11
 -11241042.20747  -8749569.22744  23161183.9064                   23161185.4774
 -12769183.83647  -9943193.27345  22472714.0554                   22472714.8524
 -15330910.76648 -11941367.60247  20179276.4614                   20179274.0904
  -8550324.74647  -6655223.36343  23329858.6024                   23329857.9344
  15107719.80147  11775370.75043  23419935.8674                   23419937.2344
   5995478.53146   4681329.40644  23248453.5084                   23248450.4224
 -14776791.39147 -11508362.54345  22052229.4144                   22052227.9964
 -23540119.41448 -18337672.77046  20403649.9384                   20403647.9304
 -18029979.03547 -14048379.60945  21469779.2424                   21469777.3984
 11  7 28 20  2 30.0000000  0  9G17G24G07G26G13G19G28G08G11
 -11323181.77747  -8813573.91044  23145553.1804                   23145554.5274
 -12815635.31247  -9979389.16844  22463874.8204                   22463874.9534
 -15310505.60248 -11925467.48447  20183159.4694                   20183157.3164
  -8605283.37147  -6698048.21143  23319400.4924                   23319399.7704
  15229891.66047  11870569.41043  23443183.9774                   23443185.4384
   6106180.65247   4767590.72744  23269519.7734                   23269516.8914
 -14793901.15247 -11521694.81245  22048973.6564                   22048971.8134
 -23577297.55148 -18366642.74246  20396575.5394                   20396573.5004
 -18037160.28548 -14053975.37145  21468412.8444                   21468410.7934
 11  7 28 20  3  0.0000000  0  9G17G24G07G26G13G19G28G08G11
 -11405120.91847  -8877422.42244  23129960.5554                   23129961.4454
 -12861788.61747 -10015352.71944  22455092.6644                   22455093.0204
 -15289681.50448 -11909240.92247  20187122.0784                   20187119.8364
  -8659768.70347  -6740504.26244  23309031.6254                   23309032.4024
  15352086.57047  11965785.95743  23466437.8364                   23466438.8364
   6217026.07446   4853963.72344  23290613.6094                   23290609.9534
 -14810967.50047 -11534993.25445  22045725.7894                   22045723.4774
 -23614178.02048 -18395380.77046  20389557.0554                   20389555.3834
 -18043829.28548 -14059171.96545  21467144.1484                   21467142.1024
 11  7 28 20  3 30.0000000  0  9G17G24G07G26G13G19G28G08G11
 -11486857.96547  -8941113.48444  23114407.2344                   23114407.6524
 -12907640.78147 -10051081.61745  22446367.5164                   22446367.3874
 -15268436.89148 -11892686.69147  20191164.8834                   20191162.5394
  -8713778.42247  -6782589.74244  23298754.3364                   23298754.6524
  15474301.32847  12061018.03144  23489694.4844                   23489695.9304
   6328012.08647   4940446.26244  23311733.7974                   23311729.5164
 -14827991.37547 -11548258.59445  22042486.0004                   22042484.1134
 -23650758.10548 -18423884.72746  20382596.0554                   20382594.2234
 -18049984.68048 -14063968.35945  21465973.0314                   21465970.7624
 11  7 28 20  4  0.0000000  0  9G17G24G07G26G13G19G28G08G11
 -11568395.75047  -9004649.27344  23098890.5864                   23098891.1684
 -12953193.05147 -10086576.83645  22437698.6334                   22437698.8444
 -15246775.25048 -11875807.50047  20195286.8364                   20195284.5984
  -8767314.97347  -6824306.50444  23288567.2274                   23288566.6214
  15596528.85947  12156260.02343  23512953.3674                   23512954.9654
   6439131.66847   5027032.91444  23332879.0474                   23332875.1884
 -14844977.85247 -11561494.79745  22039254.0474                   22039251.5124
 -23687039.77048 -18452156.14846  20375692.0864                   20375690.1414
 -18055629.67247 -14068367.03145  21464898.5084                   21464896.1844
 11  7 28 20  4 30.0000000  0  9G17G24G07G26G13G19G28G08G11
 -11649723.24647  -9068021.19945  23083414.2974                   23083414.8094
 -12998433.48447 -10121829.08245  22429090.0084                   22429091.1564
 -15224686.61348 -11858595.59447  20199490.2274                   20199488.0234
  -8820366.90247  -6865645.64144  23278471.7894                   23278471.0824
  15718775.32047  12251516.74243  23536217.0634                   23536218.1954
   6550391.37547   5113728.73844  23354050.6954                   23354047.0704
 -14861918.23047 -11574695.07845  22036030.4924                   22036027.5944
 -23723011.30548 -18480185.90646  20368847.1644                   20368844.9574
 -18060753.79747 -14072359.83245  21463923.0394                   21463921.2194
 11  7 28 20  5  0.0000000  0  9G17G24G07G26G13G19G28G08G11
 -11730837.65647  -9131227.09445  23067978.4384                   23067978.4104
 -13043358.07847 -10156835.20345  22420540.9064                   22420542.2894
 -15202168.87148 -11841049.32047  20203775.2274                   20203772.6644
  -8872931.19147  -6906604.78144  23268468.4304                   23268467.9884
  15841038.75047  12346786.69543  23559482.3284                   23559484.1914
   6661789.61746   5200532.52044  23375248.8134                   23375246.1134
 -14878812.27748 -11587859.26245  22032815.3524                   22032813.0434
 -23758669.17248 -18507971.24646  20362061.1644                   20362059.4344
 -18065354.31647 -14075944.64145  21463047.7504                   21463045.7034
 11  7 28 20  5 30.0000000  0  9G17G24G07G26G13G19G28G08G11
 -11811741.05547  -9194268.58644  23052582.9454                   23052583.1214
 -13087967.77347 -10191595.93745  22412052.3364                   22412052.6884
 -15179224.09448 -11823170.28547  20208141.3134                   20208138.9574
  -8925009.01247  -6947184.84044  23258558.4614                   23258557.9344
  15963312.89847  12442065.00043  23582751.5554                   23582752.7154
   6773320.16847   5287439.37944  23396472.2034                   23396470.0004
 -14895664.03947 -11600990.48845  22029608.9224                   22029606.1334
 -23794014.46148 -18535513.03146  20355335.5864                   20355333.7734
 -18069434.03147 -14079123.62145  21462271.1724                   21462269.3794
 11  7 28 20  6  0.0000000  0  9G17G24G07G26G13G19G28G08G11
 -11892429.19947  -9257142.31644  23037228.3444                   23037228.9384
 -13132257.28547 -10226107.19545  22403624.0474                   22403624.1094
 -15155849.09048 -11804956.01647  20212589.5554                   20212587.2734
  -8976595.80547  -6987382.28144  23248741.1954                   23248741.2934
  16085597.02047  12537351.09444  23606020.7504                   23606022.3954
   6884982.87146   5374449.21544  23417721.1414                   23417718.4884
 -14912471.86348 -11614087.47745  22026410.3984                   22026407.6024
 -23829042.10548 -18562807.29346  20348669.6884                   20348667.9924
 -18072989.20747 -14081893.87945  21461594.6804                   21461592.8014
 11  7 28 20  6 30.0000000  0  9G17G24G07G26G13G19G28G08G11
 -11972891.74647  -9319840.27344  23021916.6094                   23021916.9884
 -13176215.37147 -10260360.21145  22395259.1094                   22395258.9024
 -15132034.86748 -11786399.49647  20217121.2034                   20217118.8284
  -9027681.41447  -7027189.20344  23239019.5784                   23239020.7544
  16207896.96547  12632649.49243  23629293.8364                   23629295.2344
   6996783.59447   5461566.61344  23438996.6564                   23438993.7704
 -14929228.13348 -11627144.28545  22023221.2814                   22023219.0204
 -23863741.61348 -18589845.86346  20342066.6094                   20342064.5234
 -18076010.05547 -14084247.77345  21461020.1884                   21461018.4454
 11  7 28 20  7  0.0000000  0  9G17G24G07G26G13G19G28G08G11
 -12053122.25447  -9382357.41045  23006648.8984                   23006649.4384
 -13219834.25447 -10294348.90645  22386958.0704                   22386958.2974
 -15107775.53548 -11767496.13747  20221737.2504                   20221735.6564
  -9078258.89847  -7066600.20744  23229395.3834                   23229394.7344
  16330214.19147  12727961.37543  23652570.4774                   23652572.5004
   7108724.25047   5548793.04344  23460298.4144                   23460295.2074
 -14945928.48048 -11640157.52045  22020043.4534                   22020041.2384
 -23898105.67248 -18616623.03946  20335527.5474                   20335525.7584
 -18078490.67247 -14086180.70345  21460547.8054                   21460546.2624
 11  7 28 20  7 30.0000000  0  9G17G24G07G26G13G19G28G08G11
 -12133118.62547  -9444692.11744  22991426.4144                   22991427.1414
 -13263110.26247 -10328070.42245  22378722.9614                   22378723.3404
 -15083069.31247 -11748244.54746  20226438.9454                   20226436.6374
  -9128325.50847  -7105613.11744  23219868.8594                   23219867.9774
  16452546.48047  12823284.96943  23675849.0164                   23675852.0594
   7220802.88347   5636126.98444  23481626.1644                   23481622.9844
 -14962572.78548 -11653127.07445  22016876.4224                   22016874.0904
 -23932130.69548 -18643136.03146  20329052.8524                   20329050.6644
 -18080429.29347 -14087691.29345  21460178.9144                   21460176.8834
 11  7 28 20  8  0.0000000  0  9G17G24G07G26G13G19G28G08G11
 -12212871.37947  -9506836.98844  22976249.7114                   22976250.6484
 -13306033.05547 -10361516.69945  22370554.9694                   22370555.7544
 -15057907.77748 -11728638.17647  20231227.3834                   20231224.6914
  -9177871.37547  -7144220.26244  23210439.9384                   23210439.4454
  16574899.05947  12918624.35543  23699132.2974                   23699134.6134
   7333024.55947   5723572.39144  23502980.4924                   23502978.4064
 -14979153.95747 -11666047.44545  22013720.8754                   22013719.2664
 -23965806.50448 -18669376.91446  20322644.2344                   20322642.5434
 -18081817.07847 -14088772.68745  21459915.3674                   21459913.4104
 11  7 28 20  8 30.0000000  0  9G17G24G07G26G13G19G28G08G11
 -12292379.14147  -9568790.96944  22961119.9224                   22961119.2934
 -13348599.84047 -10394685.57445  22362455.0004                   22362455.2154
 -15032290.42648 -11708676.61347  20236102.2274                   20236099.6844
  -9226894.92646  -7182420.38744  23201110.4144                   23201111.1564
  16697268.48847  13013976.91843  23722419.1174                   23722421.4804
   7445387.27747   5811127.67644  23524362.3134                   23524360.1374
 -14995673.02048 -11678919.41045  22010577.2194                   22010575.6294
 -23999131.08248 -18695344.12146  20316302.8834                   20316301.0594
 -18082653.05548 -14089424.09045  21459756.5784                   21459753.5594
 11  7 28 20  9  0.0000000  0  9G17G24G07G26G13G19G28G08G11
 -12371636.44547  -9630549.77345  22946038.1414                   22946038.3834
 -13390804.62547 -10427572.37944  22354423.7274                   22354423.1524
 -15006212.87948 -11688356.48047  20241064.4144                   20241061.7154
  -9275390.59446  -7220209.17244  23191882.2504                   23191882.3754
  16819654.86747  13109342.66843  23745708.8284                   23745710.1844
   7557891.00047   5898792.87544  23545772.2584                   23545769.0824
 -15012127.22748 -11691740.84445  22007446.5004                   22007444.2074
 -24032098.80148 -18721033.24246  20310029.2344                   20310027.6764
 -18082932.96148 -14089642.18445  21459702.7504                   21459700.6454
 11  7 28 20  9 30.0000000  0  9G17G24G07G26G13G19G28G08G11
 -12450643.78547  -9692113.81244  22931003.0554                   22931003.5824
 -13432645.86747 -10460175.89844  22346461.3984                   22346460.7814
 -14979675.72348 -11667678.18747  20246114.0944                   20246112.0904
  -9323358.19546  -7257586.49244  23182754.6414                   23182754.7584
  16942054.52747  13204718.78943  23769001.1174                   23769002.3014
   7670531.78147   5986564.84844  23567207.1644                   23567202.7894
 -15028518.24647 -11704513.04745  22004327.4304                   22004325.3914
 -24064708.30148 -18746443.23447  20303823.7734                   20303822.5394
 -18082657.19148 -14089427.28545  21459754.9694                   21459753.3524
 11  7 28 20 10  0.0000000  0  9G17G24G07G26G13G19G28G08G11
 -12529396.47347  -9753479.42645  22916016.1804                   22916017.3914
 -13474118.29747 -10492492.02744  22338569.8054                   22338568.8364
 -14952675.27048 -11646638.88747  20251252.2344                   20251250.4104
  -9370792.81246  -7294548.49244  23173727.8594                   23173727.6454
  17064467.20346  13300105.02043  23792295.0634                   23792297.4454
   7783309.94547   6074443.89144  23588667.5314                   23588664.6024
 -15044844.28148 -11717234.60245  22001220.4534                   22001218.2234
 -24096954.80148 -18771570.37146  20297687.7424                   20297686.1214
 -18081821.55548 -14088776.12945  21459914.0704                   21459912.2814
 11  7 28 20 10 30.0000000  0  9G17G24G07G26G13G19G28G08G11
 -12607888.92647  -9814642.25445  22901080.3364                   22901080.7384
 -13515215.19547 -10524515.53945  22330749.0394                   22330749.2544
 -14925207.07848 -11625235.12547  20256479.5784                   20256477.3284
  -9417688.79346  -7331090.75044  23164803.5084                   23164803.4774
  17186894.01246  13395502.27343  23815593.2194                   23815594.3204
   7896226.56647   6162430.79344  23610154.9144                   23610152.6524
 -15061102.07847 -11729903.00045  21998126.6804                   21998124.2344
 -24128832.16448 -18796409.86346  20291621.7504                   20291619.8714
 -18080421.66848 -14087685.30545  21460180.6174                   21460178.7194
 11  7 28 20 11  0.0000000  0  9G17G24G07G26G13G19G28G08G11
 -12686114.59047  -9875597.21545  22886194.0084                   22886193.6954
 -13555928.75047 -10556240.34045  22323001.0554                   22323001.9224
 -14897265.29348 -11603462.32047  20261796.8134                   20261794.4344
  -9464039.22747  -7367207.90244  23155983.6334                   23155983.5664
  17309336.90246  13490912.02343  23838892.4924                   23838894.9734
   8009284.32447   6250527.67644  23631669.7114                   23631666.4774
 -15077287.21147 -11742514.76645  21995046.9064                   21995044.1764
 -24160332.25848 -18820955.38747  20285627.2734                   20285625.6134
 -18078451.30148 -14086149.94146  21460555.1724                   21460553.4304
 11  7 28 20 11 30.0000000  0  9G17G24G07G26G13G19G28G08G11
 -12764067.93447  -9936339.97745  22871360.0554                   22871360.8484
 -13596252.31647 -10587661.23445  22315327.5474                   22315328.2074
 -14868845.28148 -11581316.87547  20267204.6024                   20267202.5824
  -9509838.25847  -7402895.41044  23147268.4304                   23147268.3594
  17431796.80946  13586335.05143  23862196.1644                   23862199.3324
   8122484.43847   6338735.50444  23653211.0084                   23653207.7934
 -15093396.17647 -11755067.19145  21991981.0704                   21991978.6994
 -24191448.95748 -18845202.15647  20279705.7274                   20279704.3714
 -18075905.54348 -14084166.22746  21461040.1094                   21461038.2074
 11  7 28 20 12  0.0000000  0  9G17G24G07G26G13G19G28G08G11
 -12841748.94547  -9996870.52345  22856577.9384                   22856577.7384
 -13636184.80547 -10618777.40245  22307728.8284                   22307729.4614
 -14839947.88748 -11558799.43747  20272703.8984                   20272701.3054
  -9555085.60947  -7438153.06244  23138658.0944                   23138658.3524
  17554269.20346  13681767.73843  23885502.0634                   23885505.1524
   8235822.84047   6427051.07044  23674778.7194                   23674775.6024
 -15109431.28147 -11767562.06245  21988929.7894                   21988926.7074
 -24222181.23848 -18869149.37946  20273857.5084                   20273856.1024
 -18072785.17648 -14081734.76245  21461633.9614                   21461632.0824
 11  7 28 20 12 30.0000000  0  9G17G24G07G26G13G19G28G08G11
 -12919155.63747 -10057187.31245  22841847.7034                   22841847.5704
 -13675723.57047 -10649586.78945  22300204.4224                   22300204.8594
 -14810572.17648 -11535909.28547  20278293.7584                   20278291.5554
  -9599779.62946  -7472979.55144  23130153.0474                   23130153.1524
  17676751.17646  13777207.93043  23908809.8364                   23908812.9224
   8349297.18047   6515472.58244  23696372.1414                   23696369.5554
 -15125392.86747 -11779999.65245  21985892.5234                   21985889.7934
 -24252527.12948 -18892795.52046  20268083.3054                   20268081.5204
 -18069089.30948 -14078854.86745  21462337.1094                   21462335.0554
 11  7 28 20 13  0.0000000  0  9G17G24G07G26G13G19G28G08G11
 -12996294.12147 -10117295.10245  22827169.0084                   22827168.9844
 -13714872.60547 -10680092.46145  22292754.3134                   22292755.2624
 -14780724.40648 -11512651.29747  20283973.3364                   20283971.5354
  -9643925.19947  -7507378.66044  23121751.8914                   23121753.0664
  17799233.44946  13872648.32843  23932117.5554                   23932121.2234
   8462897.80946   6603992.50044  23717989.0004                   23717987.0274
 -15141288.68047 -11792385.98445  21982867.4534                   21982865.2424
 -24282491.05548 -18916144.03146  20262381.3054                   20262379.7114
 -18064823.90648 -14075531.15645  21463148.7974                   21463146.9384
 11  7 28 20 13 30.0000000  0  9G17G24G07G26G13G19G28G08G11
 -13073156.62547 -10177187.85545  22812541.9534                   22812541.8444
 -13753623.65247 -10710288.02745  22285380.0004                   22285381.0434
 -14750398.24648 -11489020.53947  20289744.3984                   20289741.8714
  -9687514.93447  -7541344.65644  23113458.2194                   23113457.6254
  17921718.64546  13968091.01643  23955426.3674                   23955429.4774
   8576627.83646   6692613.23444  23739630.5234                   23739628.6174
 -15157113.43447 -11804716.95745  21979856.1174                   21979853.4844
 -24312064.78948 -18939188.49246  20256753.6564                   20256752.1484
 -18059982.49248 -14071758.61745  21464069.9924                   21464068.0984
 11  7 28 20 14  0.0000000  0  9G17G24G07G26G13G19G28G08G11
 -13149743.78147 -10236866.03545  22797968.4454                   22797968.5824
 -13791976.30147 -10740173.15245  22278082.5004                   22278082.5824
 -14719594.92648 -11465017.97347  20295606.1484                   20295603.6454
  -9730549.12547  -7574877.75044  23105268.5004                   23105267.9844
  18044201.81346  14063532.15243  23978734.5394                   23978737.2974
   8690482.52046   6781331.08644  23761296.1254                   23761294.0164
 -15172869.97747 -11816994.76645  21976857.8674                   21976855.0944
 -24341247.79748 -18961928.50046  20251200.2424                   20251198.7664
 -18054566.38348 -14067538.26645  21465101.0394                   21465099.3324
 11  7 28 20 14 30.0000000  0  9G17G24G07G26G13G19G28G08G11
 -13226060.31647 -10296333.35545  22783445.5474                   22783444.9344
 -13829934.23447 -10769750.72345  22270858.9924                   22270859.2544
 -14688320.26648 -11440648.12946  20301557.1484                   20301555.1994
  -9773032.41847  -7607981.58244  23097183.9694                   23097183.5204
  18166673.77346  14158964.54743  24002040.3984                   24002043.6644
   8804453.30546   6870139.42644  23782984.6334                   23782982.2464
 -15188564.85947 -11829224.53545  21973871.0864                   21973868.6334
 -24370044.10948 -18984367.18046  20245720.4534                   20245718.7274
 -18048580.98448 -14062874.30945  21466239.8984                   21466237.6724
